     2.11           OBSERVATION DATA    G (GPS)             RINEX VERSION / TYPE
teqc 2010Oct21 OPUS Account 20111026 16:04:28UTC            PGM / RUN BY / DATE
E 1522                                                      MARKER NAME
1160                                                        MARKER NUMBER
CSMIDDLETON NGS                                             OBSERVER / AGENCY
0220280359 TRIMBLE 5700 NP 2.32 / SP 2.32                   REC # / TYPE / VERS
11885611 TRM41249.00 NONE                                   ANT # / TYPE
  -738277.3534 -5491747.9967  3148157.5977                  APPROX POSITION XYZ
        1.9990        0.0000        0.0000                  ANTENNA: DELTA H/E/N
     1     1                                                WAVELENGTH FACT L1/2
     5    L1    L2    C1    P1    P2                        # / TYPES OF OBSERV
    15                                                      LEAP SECONDS
  2011     8     1     0     0   30.0000000     GPS         TIME OF FIRST OBS
                                                            END OF HEADER
 11  8  1  0  0 30.0000000  0  9G10G28G09G17G12G04G27G20G02
 -19029553.43756 -14451342.96553  23030294.1414                   23030294.3674
 -99081667.34456 -71563902.25854  22227022.2734                   22227021.4924
 -27812402.33657 -19960872.59454  22160666.8984                   22160665.1334
 -78922429.00457 -59115713.47755  21667232.3444                   21667230.2424
  -1405644.95356   -370356.11353  24615033.2814                   24615031.0474
 -62014506.32057 -47058823.34855  19960024.7584                   19960023.3634
 -40387883.06256 -30229828.10954  22483224.5944                   22483223.4024
 -25677327.37915                  24585756.547
 -33034857.83657 -23049239.24255  21950221.2194                   21950217.2074
 11  8  1  0  1  0.0000000  0  9G10G28G09G17G12G04G27G20G02
 -19222337.81246 -14601564.44543  22993609.0634                   22993608.6414
 -99122209.84046 -71595493.86344  22219308.8204                   22219305.8164
 -27922347.62147 -20046544.27344  22139744.8754                   22139743.0634
 -78991496.21147 -59169532.09445  21654088.7114                   21654087.1174
  -1605193.77746   -525848.64542  24577059.6724                   24577059.1994
 -62112532.36347 -47135207.27346  19941371.3204                   19941369.2074
 -40485513.94947 -30305904.16444  22464645.8754                   22464645.1644
 -25728837.309 5                  24575954.227
 -33206740.55147 -23183173.79745  21917512.2584                   21917509.3834
 11  8  1  0  1 30.0000000  0  9G10G28G09G17G12G04G27G20G02
 -19414911.40646 -14751621.66443  22956962.7274                   22956963.5204
 -99162327.66846 -71626754.55944  22211673.4774                   22211671.6994
 -28031596.80946 -20131673.51244  22118955.5394                   22118953.8164
 -79060421.80947 -59223240.36345  21640973.0864                   21640971.1524
  -1804697.32846   -681305.89143  24539095.5784                   24539094.9844
 -62209951.07047 -47211117.94946  19922833.2584                   19922831.2304
 -40582608.35247 -30381562.18444  22446169.5944                   22446168.6884
 -25779830.113 5                  24566249.766
 -33378236.39847 -23316806.86745  21884877.4384                   21884874.5904
 11  8  1  0  2  0.0000000  0  9G10G28G09G17G12G04G27G20G02
 -19607284.77746 -14901522.86743  22920355.2814                   22920355.9654
 -99202034.66447 -71657695.14144  22204118.4224                   22204115.8984
 -28140164.58247 -20216271.80144  22098295.5944                   22098294.4884
 -79129219.84047 -59276849.22745  21627881.6954                   21627879.2664
  -2004167.73846   -836737.27042  24501136.7974                   24501137.2624
 -62306777.46947 -47286567.08245  19904407.9224                   19904405.5744
 -40679180.72747 -30456813.40644  22427793.1094                   22427791.2624
 -25830320.770 5                  24556642.203
 -33549358.13747 -23450148.45745  21852314.4144                   21852311.4964
 11  8  1  0  2 30.0000000  0  9G10G28G09G17G12G04G27G20G02
 -19799456.58246 -15051267.03543  22883786.0864                   22883786.3634
 -99241333.58647 -71688317.73844  22196639.9144                   22196637.7034
 -28248053.23847 -20300340.90244  22077765.3984                   22077763.8014
 -79197892.52747 -59330360.40245  21614812.9384                   21614811.6524
  -2203605.26646   -992143.15242  24463185.6644                   24463184.6884
 -62403014.66047 -47361557.09846  19886094.5394                   19886092.3674
 -40775234.16447 -30531660.28144  22409514.0084                   22409513.4144
 -25880312.402 5                  24547129.039
 -33720106.76247 -23583199.29345  21819822.1484                   21819818.8444
 11  8  1  0  3  0.0000000  0  9G10G28G09G17G12G04G27G20G02
 -19991422.05946 -15200850.35943  22847255.3834                   22847256.5394
 -99280223.57046 -71718621.67644  22189239.3134                   22189237.9304
 -28355261.59047 -20383879.90644  22057364.2274                   22057362.6484
 -79266438.27047 -59383772.66445  21601769.5474                   21601767.5164
  -2403006.80546  -1147520.93742  24425240.8134                   24425239.8164
 -62498662.49647 -47436087.86746  19867893.0634                   19867891.3714
 -40870767.90247 -30606102.19544  22391334.8444                   22391333.9184
 -25929805.555 5                  24537711.555
 -33890479.80947 -23715957.46945  21787401.2814                   21787397.8634
 11  8  1  0  3 30.0000000  0  9G10G28G09G17G12G04G27G20G02
 -20183175.46946 -15350268.48043  22810766.0234                   22810767.5664
 -99318702.27046 -71748605.11744  22181916.7974                   22181915.3284
 -28461787.41847 -20466887.06244  22037092.7974                   22037091.2664
 -79334854.85247 -59437084.30145  21588750.5474                   21588748.3484
  -2602368.07445  -1302867.29342  24387303.0704                   24387302.3714
 -62593719.43747 -47510158.19546  19849804.4844                   19849802.3954
 -40965780.34847 -30680137.89144  22373254.5634                   22373253.4884
 -25978798.984 5                  24528389.586
 -34060473.64547 -23848420.16445  21755052.3674                   21755049.1994
 11  8  1  0  4  0.0000000  0  9G10G28G09G17G12G04G27G20G02
 -20374710.48046 -15499516.40243  22774318.3444                   22774319.1524
 -99356767.25446 -71778266.19944  22174673.7114                   22174672.0514
 -28567628.36347 -20549360.54744  22016951.9534                   22016950.6024
 -79403139.57847 -59490293.17245  21575756.0554                   21575753.6644
  -2801684.58245  -1458178.83642  24349374.5554                   24349374.1844
 -62688183.96947 -47583766.91446  19831828.3444                   19831826.4884
 -41060269.47347 -30753765.81644  22355275.0474                   22355273.3634
 -26027290.820 5                  24519160.289
 -34230084.60247 -23980584.50045  21722776.3204                   21722773.2234
 11  8  1  0  4 30.0000000  0  8G10G28G09G17G12G04G27G02
 -20566024.82846 -15648592.39843  22737912.4224                   22737912.7544
 -99394420.07446 -71807606.11744  22167508.0474                   22167506.7734
 -28672785.78546 -20631301.41844  21996941.0394                   21996939.5744
 -79471293.24247 -59543399.94545  21562786.9534                   21562785.1914
  -3000955.12545  -1613454.46142  24311454.5864                   24311454.3404
 -62782057.79347 -47656915.32046  19813964.8284                   19813963.1454
 -41154236.75447 -30826987.09844  22337392.4384                   22337390.7974
 -34399312.77047 -24112450.57045  21690573.4924                   21690570.3984
 11  8  1  0  5  0.0000000  0  8G10G28G09G17G12G04G27G02
 -20757115.58246 -15797494.16043  22701549.2664                   22701548.9654
 -99431661.76246 -71836625.67644  22160421.0704                   22160420.3204
 -28777260.74247 -20712710.50444  21977060.7344                   21977058.9734
 -79539316.17247 -59596404.82445  21549842.8364                   21549840.5234
  -3200178.56245  -1768693.47342  24273544.0004                   24273543.6294
 -62875342.54747 -47729604.73045  19796213.9774                   19796211.2234
 -41247683.62147 -30899802.88344  22319610.5004                   22319608.9494
 -34568157.74247 -24244018.05145  21658443.1024                   21658439.7304
 11  8  1  0  5 30.0000000  0  8G10G28G09G17G12G04G27G02
 -20947972.75046 -15946213.93743  22665230.0314                   22665230.0664
 -99468485.76646 -71865319.75444  22153413.8984                   22153412.8244
 -28881046.95747 -20793582.89844  21957311.2894                   21957309.3404
 -79607201.75047 -59649302.70745  21536924.3674                   21536922.3444
  -3399346.32445  -1923889.04342  24235644.2734                   24235643.2584
 -62968033.01647 -47801831.05946  19778574.7894                   19778573.0634
 -41340604.10247 -30972208.48844  22301928.5164                   22301927.2424
 -34736611.68447 -24375280.80545  21626386.8914                   21626383.8204
 11  8  1  0  6  0.0000000  0  8G10G28G09G17G12G04G27G02
 -21138589.87546 -16094746.59843  22628956.5234                   22628957.6054
 -99504889.95746 -71893686.71944  22146486.4144                   22146485.5394
 -28984141.89147 -20873916.64844  21937692.5084                   21937690.1054
 -79674946.83247 -59702091.08645  21524032.8364                   21524030.6994
  -3598453.60945  -2079037.54342  24197753.9144                   24197754.6174
 -63060126.91047 -47873592.52346  19761049.6334                   19761047.8444
 -41432996.00047 -31044202.19544  22284346.4694                   22284345.4884
 -34904670.47347 -24506235.66845  21594406.7974                   21594403.4844
 11  8  1  0  6 30.0000000  0  8G10G28G09G17G12G04G27G02
 -19753530.86346 -15015479.72343  22892524.9774                   22892525.6994
 -97965447.30147 -70694121.07044  22439433.3444                   22439431.4534
 -27511116.46547 -19726104.64844  22217999.6884                   22217997.8284
 -78167123.03547 -58527163.46545  21810962.5474                   21810960.3324
  -2222065.62545  -1006527.37142  24459671.6564                   24459672.8014
 -61576196.66847 -46717283.22745  20043432.5554                   20043430.9104
 -39949431.14847 -29888177.65644  22566659.6644                   22566657.9734
 -33496901.70747 -23409272.96545  21862296.5394                   21862293.4104
 11  8  1  0  7  0.0000000  0  8G10G28G09G17G12G04G27G02
 -19943648.09446 -15163622.88743  22856346.4064                   22856346.6054
 -98001003.78146 -70721827.47344  22432666.0554                   22432665.0394
 -27612821.06647 -19805355.02044  22198646.6724                   22198644.3914
 -78234577.69947 -58579725.56645  21798126.0784                   21798123.9304
  -2421037.02345  -1161569.81242  24421809.2504                   24421811.1644
 -61667092.45347 -46788111.10246  20026135.4774                   20026133.5904
 -40040759.51947 -29959342.63544  22549280.3204                   22549279.1954
 -33664158.44547 -23539602.84845  21830468.3054                   21830465.4734
 11  8  1  0  7 30.0000000  0  8G10G28G09G17G12G04G27G02
 -20133510.71146 -15311567.65243  22820216.8834                   22820216.7074
 -98036137.62546 -70749204.56644  22425980.8914                   22425979.8014
 -27713831.82447 -19884064.71544  22179423.5864                   22179422.5394
 -78301887.68447 -58632174.92245  21785317.6094                   21785315.7504
  -2619937.92655  -1316557.57452  24383958.8054                   24383961.9924
 -61757391.21147 -46858473.76246  20008951.7974                   20008950.1954
 -40131557.57447 -30030094.42244  22532001.6334                   22532000.6454
 -33831013.08647 -23669619.40645  21798717.6254                   21798713.5434
 11  8  1  0  8  0.0000000  0  8G10G28G09G17G12G04G27G02
 -20323119.10546 -15459314.34043  22784135.3834                   22784135.9924
 -98070852.77046 -70776255.39544  22419375.1414                   22419373.8444
 -27814152.71146 -19962236.83644  22160333.4064                   22160332.5164
 -78369056.27347 -58684514.10545  21772535.5784                   21772533.9224
  -2818770.11715                  24346121.992
 -61847097.61747 -46928374.85946  19991882.2274                   19991880.1954
 -40221829.66847 -30100436.34044  22514823.8594                   22514822.6294
 -33997468.20347 -23799324.62945  21767041.7274                   21767038.7154
 11  8  1  0  8 30.0000000  0  8G10G28G09G17G12G04G27G02
 -20512469.40646 -15606859.90643  22748102.9304                   22748103.1884
 -98105149.64546 -70802980.30144  22412849.1804                   22412847.6054
 -27913784.53946 -20039872.05944  22141374.2504                   22141373.1484
 -78436083.37947 -58736743.04745  21759781.1254                   21759779.1644
  -3017531.453 5                  24308299.797
 -61936212.76247 -46997815.22746  19974923.6804                   19974921.5314
 -40311576.83247 -30170369.21144  22497745.3284                   22497744.5084
 -34163522.78547 -23928717.75845  21735442.7114                   21735439.1604
 11  8  1  0  9  0.0000000  0  8G10G28G09G17G12G04G27G02
 -20701557.96546 -15754201.51643  22712121.4614                   22712121.0744
 -98139028.66846 -70829379.59844  22406402.1884                   22406400.3484
 -28012727.85947 -20116970.79344  22122546.2504                   22122544.9924
 -78502968.73447 -58788861.50845  21747052.8674                   21747050.8794
  -3216219.895 5                  24270490.367
 -62024737.85547 -47066795.82446  19958078.2504                   19958075.6644
 -40400799.68747 -30239893.53544  22480766.8364                   22480766.0394
 -34329175.84847 -24057798.03945  21703919.8834                   21703916.7304
 11  8  1  0  9 30.0000000  0  8G10G28G09G17G12G04G27G02
 -20890383.68446 -15901338.30943  22676188.0864                   22676188.2074
 -98172492.44946 -70855455.34844  22400033.8444                   22400032.4964
 -28110985.20347 -20193534.98044  22103848.3134                   22103846.9024
 -78569713.75847 -58840870.63345  21734351.3674                   21734349.9964
  -3414835.68446  -1534406.20353  24232695.5554                   24232692.7894
 -62112676.23847 -47135319.23045  19941343.7974                   19941341.9774
 -40489501.16847 -30309011.60944  22463887.8134                   22463886.1174
 -34494428.42247 -24186566.22745  21672473.4384                   21672470.2584
 11  8  1  0 10  0.0000000  0  8G10G28G09G17G12G04G27G02
 -21078944.70346 -16048268.84043  22640306.5784                   22640305.8484
 -98205543.15246 -70881209.22344  22393745.0634                   22393743.2424
 -28208559.13347 -20269566.63344  22085280.5634                   22085279.5394
 -78636320.22747 -58892771.78145  21721677.3284                   21721675.4224
  -3613377.84846  -1689114.35943  24194914.6484                   24194912.8014
 -62200030.73847 -47203387.68045  19924720.8834                   19924719.1994
 -40577683.67647 -30377725.28944  22447107.5084                   22447106.2854
 -34659281.07047 -24315022.77745  21641102.5864                   21641098.6844
 11  8  1  0 10 30.0000000  0  8G10G28G09G17G12G04G27G02
 -21267237.45346 -16194990.35943  22604475.1644                   22604475.1884
 -98238181.27046 -70906641.60543  22387534.0234                   22387532.1724
 -28305450.43746 -20345066.35944  22066842.6804                   22066841.2894
 -78702788.28147 -58944565.06645  21709028.6954                   21709026.6484
  -3811844.85946  -1843763.93743  24157147.1564                   24157145.6374
 -62286802.52047 -47271002.04346  19908208.7114                   19908206.3554
 -40665348.55147 -30446035.58644  22430425.6334                   22430424.2154
 -34823733.15247 -24443167.21945  21609808.5394                   21609804.9454
 11  8  1  0 11  0.0000000  0  8G10G28G09G17G12G04G27G02
 -21455257.99646 -16341499.78143  22568695.6254                   22568696.3364
 -98270407.09846 -70931752.68443  22381401.4614                   22381400.0354
 -28401659.43046 -20420034.41844  22048534.9224                   22048533.5394
 -78769117.19147 -58996249.94545  21696406.7424                   21696404.5664
  -4010234.24246  -1998353.03543  24119394.0784                   24119393.2544
 -62372992.59047 -47338163.13746  19891807.4534                   19891805.0234
 -40752496.19146 -30513942.85544  22413841.3444                   22413840.3164
 -34987783.43047 -24570998.56645  21578590.7424                   21578587.7194
 11  8  1  0 11 30.0000000  0  8G10G28G09G17G12G04G27G02
 -21643004.02346 -16487795.27343  22532968.3594                   22532969.8524
 -98302222.42246 -70956543.91843  22375347.2504                   22375345.7114
 -28497187.82447 -20494472.16444  22030357.1174                   22030355.3674
 -78835307.98847 -59047827.20345  21683811.4614                   21683809.4144
  -4208545.19546  -2152881.00442  24081656.1174                   24081656.2894
 -62458603.45747 -47404872.89846  19875516.2274                   19875513.9804
 -40839128.61347 -30581448.66444  22397355.5004                   22397354.9734
 -35151432.09447 -24698516.96145  21547449.5474                   21547445.9654
 11  8  1  0 12  0.0000000  0  8G10G28G09G17G12G04G27G02
 -21830468.74246 -16633871.57843  22497295.6094                   22497295.0704
 -98333624.27046 -70981012.96143  22369371.3444                   22369369.8914
 -28592033.04347 -20568377.54744  22012308.2734                   22012307.2894
 -78901357.04347 -59099294.00445  21671242.8834                   21671240.4964
  -4406772.41446  -2307343.70743  24043936.0084                   24043934.6844
 -62543633.14547 -47471129.78946  19859335.5234                   19859333.5234
 -40925243.71547 -30648551.37544  22380968.6884                   22380967.0704
 -35314674.83247 -24825719.05945  21516385.2114                   21516381.9024
 11  8  1  0 12 30.0000000  0  8G10G28G09G17G12G04G27G02
 -22017651.00446 -16779727.78944  22461676.2034                   22461676.0314
 -98364615.59446 -71005162.09043  22363473.7664                   22363472.5204
 -28686197.84447 -20641752.73044  21994388.5864                   21994387.8204
 -78967265.99247 -59150651.63345  21658700.5634                   21658698.3524
  -4604915.60946  -2461740.90243  24006230.2034                   24006228.6054
 -62628084.71547 -47536936.20346  19843264.6954                   19843262.8984
 -41010844.34047 -30715253.16044  22364679.7114                   22364678.2734
 -35477512.62147 -24952605.60545  21485398.9384                   21485394.7114
 11  8  1  0 13  0.0000000  0  8G10G28G09G17G12G04G27G02
 -22204550.03546 -16925363.30943  22426109.2734                   22426110.0904
 -98395199.69546 -71028993.93043  22357653.7194                   22357652.6724
 -28779686.03146 -20714600.69944  21976598.9614                   21976597.5704
 -79033037.75847 -59201902.39545  21646184.2424                   21646182.5314
  -4802975.55946  -2616073.32043  23968541.1954                   23968539.5704
 -62711962.59047 -47602295.58246  19827303.3914                   19827301.5204
 -41095934.55947 -30781557.25444  22348487.2664                   22348486.2814
 -35639947.75047 -25079178.39145  21454487.5864                   21454484.0944
 11  8  1  0 13 30.0000000  0  8G10G28G09G17G12G04G27G02
 -22391161.46946 -17070774.71944  22390598.9384                   22390599.2584
 -98425376.30946 -71052508.23843  22351911.4454                   22351910.4694
 -28872497.77347 -20786921.54344  21958937.0864                   21958936.2034
 -79098670.98447 -59253045.16845  21633694.3284                   21633692.5744
  -5000949.48146  -2770338.69043  23930868.1414                   23930866.2814
 -62795267.44147 -47667208.45346  19811451.1804                   19811449.1564
 -41180514.57846 -30847463.78544  22332392.4064                   22332391.5904
 -35801978.34847 -25205435.96545  21423654.8054                   21423651.4844
 11  8  1  0 14  0.0000000  0  8G10G28G09G17G12G04G27G02
 -22577479.13746 -17215957.24643  22355143.8054                   22355143.6484
 -98455143.19546 -71075703.26243  22346248.1094                   22346246.9574
 -28964631.34047 -20858713.94144  21941404.8444                   21941403.2934
 -79164163.13747 -59304078.03545  21621231.9534                   21621230.2894
  -5198832.68746  -2924533.36343  23893211.2194                   23893210.5354
 -62877997.76247 -47731673.62946  19795708.2734                   19795705.6884
 -41264582.57846 -30912971.34844  22316395.2664                   22316393.9384
 -35963601.11347 -25331375.73845  21392898.1724                   21392895.0554
 11  8  1  0 14 30.0000000  0  8G10G28G09G17G12G04G27G02
 -21188072.54346 -16133302.64843  22619539.3594                   22619539.0204
 -96909079.84046 -69870978.63744  22640453.9844                   22640452.7974
 -27480664.19547 -19702375.93044  22223795.0234                   22223793.5084
 -77654090.85947 -58127398.35945  21908589.7114                   21908587.8364
  -3821195.84046  -1851050.02343  24155367.1954                   24155366.1414
 -61384731.80547 -46568089.76646  20079867.3754                   20079865.4104
 -39772716.52746 -29750478.35544  22600287.1564                   22600286.9384
 -34549389.45347 -24229392.57445  21662014.0864                   21662010.5474
 11  8  1  0 15  0.0000000  0  8G10G28G09G17G12G04G27G02
 -21373791.69146 -16278018.77344  22584198.4144                   22584198.1214
 -96938029.54346 -69893536.93443  22634945.5704                   22634944.4574
 -27571443.97347 -19773113.41444  22206519.3284                   22206518.7544
 -77719299.42647 -58178210.24245  21896180.3834                   21896178.5474
  -4018890.62146  -2005097.88743  24117748.6724                   24117745.3914
 -61466316.98847 -46631662.62946  20064342.1024                   20064339.8014
 -39855763.58647 -29815190.36744  22584484.6414                   22584483.3674
 -34710193.42647 -24354694.30945  21631414.2814                   21631410.5084
 11  8  1  0 15 30.0000000  0  8G10G28G09G17G12G04G27G02
 -21559205.23046 -16422496.76243  22548915.3524                   22548914.6604
 -96966570.37146 -69915776.61343  22629513.6334                   22629513.0474
 -27661547.06247 -19843323.64844  22189374.4534                   22189372.9064
 -77784364.72347 -58228910.48045  21883799.0004                   21883797.3634
  -4216486.72746  -2159068.80543  24080145.9454                   24080144.4774
 -61547330.49647 -46694790.03946  20048925.4304                   20048923.7344
 -39938300.77747 -29879505.10544  22568778.3284                   22568777.0864
 -34870585.83647 -24479675.35945  21600892.0634                   21600888.7894
 11  8  1  0 16  0.0000000  0  8G10G28G09G17G12G04G27G02
 -21744309.73446 -16566733.96143  22513690.9454                   22513690.1844
 -96994703.50046 -69937698.59844  22624160.4144                   22624159.7194
 -27750974.66447 -19913007.48444  22172355.9774                   22172355.2034
 -77849286.62547 -58279499.00045  21871444.7584                   21871442.4774
  -4413982.16046  -2312961.25043  24042562.8134                   24042562.0124
 -61627774.12947 -46757473.39146  20033617.6254                   20033616.2194
 -40020329.43747 -29943423.56644  22553168.7814                   22553167.5824
 -35030565.69947 -24604334.93045  21570449.6564                   21570446.1374
 11  8  1  0 16 30.0000000  0  8G10G28G09G17G12G04G27G02
 -21929101.60246 -16710727.50044  22478526.1484                   22478525.1294
 -97022428.84046 -69959302.84843  22618884.3364                   22618883.2934
 -27839727.06647 -19982165.21944  22155467.4614                   22155466.1054
 -77914064.09847 -58329974.96945  21859118.3134                   21859116.2814
  -4611374.84446  -2466773.76643  24005000.1884                   24004999.5594
 -61707648.58247 -46819713.22746  20018417.8284                   20018416.4064
 -40101849.93046 -30006946.07844  22537655.4694                   22537654.1254
 -35190131.54347 -24728671.89845  21540085.2814                   21540081.5984
 11  8  1  0 17  0.0000000  0  8G10G28G09G17G12G04G27G02
 -22113577.10246 -16854474.55144  22443421.6254                   22443420.5394
 -97049747.03546 -69980589.82443  22613686.1644                   22613685.1764
 -27927805.65247 -20050797.89144  22138706.7424                   22138705.1174
 -77978697.37547 -58380338.57845  21846819.0474                   21846817.1334
  -4808662.44546  -2620504.29343  23967458.5944                   23967457.1844
 -61786955.45747 -46881510.78946  20003326.5084                   20003324.6644
 -40182863.59446 -30070073.62944  22522239.1484                   22522237.5664
 -35349283.14847 -24852686.07445  21509798.9304                   21509795.9574
 11  8  1  0 17 30.0000000  0  8G10G28G09G17G12G04G27G02
 -22297733.90246 -16997973.25044  22408377.4304                   22408377.0314
 -97076660.33246 -70001561.28943  22608564.1254                   22608563.7274
 -28015212.96147 -20118907.48444  22122073.8834                   22122071.8054
 -78043187.05147 -58430590.29745  21834547.3054                   21834544.9224
  -5005843.55145  -2774151.86343  23929935.3674                   23929934.7074
 -61865697.52747 -46942868.24246  19988341.9614                   19988340.3954
 -40263372.85547 -30132808.16044  22506919.1644                   22506918.0514
 -35508020.93747 -24976377.79345  21479592.4774                   21479588.8914
 11  8  1  0 18  0.0000000  0  8G10G28G09G17G12G04G27G02
 -22481568.43046 -17141220.82444  22373394.5864                   22373394.5314
 -97103169.45746 -70022217.83243  22603520.3754                   22603519.4734
 -28101949.71547 -20186494.58644  22105568.5234                   22105566.4064
 -78107532.81247 -58480729.85945  21822302.5164                   21822300.2584
  -5202916.20346  -2927714.90243  23892434.3134                   23892433.1254
 -61943876.16447 -47003786.65646  19973465.2584                   19973463.2624
 -40343378.73446 -30195150.44544  22491694.4614                   22491693.4144
 -35666343.85947 -25099746.25845  21449464.4304                   21449460.8444
 11  8  1  0 18 30.0000000  0  8G10G28G09G17G12G04G27G02
 -22665078.71946 -17284215.76644  22338472.9844                   22338473.0634
 -97129276.16046 -70042560.81243  22598552.0554                   22598550.5434
 -28188018.72347 -20253561.35244  22089190.1254                   22089188.2704
 -78171735.92247 -58530758.27045  21810085.0394                   21810082.3524
  -5399879.63746  -3081192.87543  23854953.9614                   23854951.7194
 -62021494.22747 -47064268.25846  19958694.9224                   19958693.0204
 -40422884.01646 -30257102.63344  22476565.0474                   22476564.1214
 -35824252.67247 -25222792.04345  21419415.5084                   21419412.1454
 11  8  1  0 19  0.0000000  0  8G10G28G09G17G12G04G27G02
 -22848260.96946 -17426955.09844  22303615.1564                   22303614.5634
 -97154980.87946 -70062590.54343  22593660.7344                   22593659.2974
 -28273420.30947 -20320108.05544  22072937.6804                   22072936.9574
 -78235795.43747 -58580674.80945  21797894.7734                   21797892.8954
  -5596731.03546  -3234583.55143  23817493.3134                   23817492.1174
 -62098552.81247 -47124313.90646  19944031.0394                   19944029.4804
 -40501889.47347 -30318665.36744  22461530.8284                   22461529.9414
 -35981745.82847 -25345513.94145  21389445.5784                   21389442.0124
 11  8  1  0 19 30.0000000  0  8G10G28G09G17G12G04G27G02
 -23031108.92246 -17569433.91044  22268819.9774                   22268819.9024
 -97180281.80146 -70082305.62543  22588846.5394                   22588844.3634
 -28358153.41847 -20386133.86344  22056814.1644                   22056813.1214
 -78299708.29347 -58630477.03545  21785732.9844                   21785730.6484
  -5793465.77046  -3387883.31243  23780057.3134                   23780055.5164
 -62175050.86747 -47183922.78545  19929474.0474                   19929472.2584
 -40580393.85247 -30379837.67244  22446592.7894                   22446591.2384
 -36138820.31647 -25467909.58645  21359555.7034                   21359551.8244
 11  8  1  0 20  0.0000000  0  8G10G28G09G17G12G04G27G02
 -23213619.36746 -17711649.75844  22234089.4384                   22234089.3014
 -97205180.36746 -70101707.19943  22584108.1094                   22584106.7894
 -28442219.54347 -20451639.93444  22040817.2584                   22040815.7814
 -78363474.77047 -58680165.23045  21773598.2974                   21773596.4534
  -5990082.05146  -3541090.77743  23742641.4694                   23742640.4454
 -62250990.28947 -47243096.35245  19915023.2814                   19915021.4694
 -40658398.73847 -30440620.72744  22431747.9614                   22431746.8594
 -36295475.99247 -25589978.88745  21329744.2974                   21329740.5274
 11  8  1  0 20 30.0000000  0  8G10G28G09G17G12G04G27G02
 -23395790.88746 -17853601.50444  22199422.8984                   22199423.1254
 -97229678.92646 -70120797.03543  22579446.6644                   22579445.4224
 -28525621.80947 -20516628.73044  22024946.1954                   22024944.8954
 -78427096.13347 -58729740.32845  21761491.3444                   21761489.8834
  -6186579.15246  -3694205.39543  23705249.2504                   23705247.3754
 -62326374.63747 -47301837.40645  19900678.2894                   19900676.3484
 -40735907.16447 -30501016.96144  22416998.9694                   22416998.3364
 -36451713.81247 -25711722.59845  21300012.9064                   21300009.3714
 11  8  1  0 21  0.0000000  0  8G10G28G09G17G12G04G27G02
 -23577618.01246 -17995284.87944  22164823.3914                   22164822.5164
 -97253776.72746 -70139574.60543  22574860.9144                   22574859.5434
 -28608359.77347 -20581099.91044  22009201.3594                   22009200.6054
 -78490570.67247 -58779201.01245  21749412.9064                   21749410.5434
  -6382953.18746  -3847224.10243  23667881.2584                   23667878.5634
 -62401203.46547 -47360145.57846  19886439.0944                   19886436.9924
 -40812918.73447 -30561026.00044  22402344.1724                   22402343.2934
 -36607531.31247 -25833138.77745  21270362.1644                   21270358.6954
 11  8  1  0 21 30.0000000  0  8G10G28G09G17G12G04G27G02
 -23759095.87146 -18136696.10944  22130289.4694                   22130287.7774
 -97277472.72346 -70158039.11343  22570351.3754                   22570351.0514
 -28690433.08247 -20645053.14544  21993583.4144                   21993581.8954
 -78553896.11747 -58828545.54345  21737362.7734                   21737360.5744
  -6579200.37146  -4000143.91843  23630535.7274                   23630533.9064
 -62475476.88747 -47418020.97746  19872304.8914                   19872303.4184
 -40889433.09046 -30620647.62144  22387783.9224                   22387783.1134
 -36762926.21547 -25954225.67245  21240791.1334                   21240788.1644
 11  8  1  0 22  0.0000000  0  8G10G28G09G17G12G04G27G02
 -23940221.05146 -18277832.54344  22095821.4454                   22095820.4384
 -97300768.58246 -70176191.84043  22565919.2974                   22565918.1524
 -28771843.52747 -20708489.88744  21978091.2734                   21978090.1094
 -78617072.72347 -58877774.08245  21725340.4534                   21725338.2854
  -6775318.98046  -4152963.57043  23593215.6804                   23593214.1684
 -62549197.06647 -47475465.27746  19858276.5394                   19858275.0634
 -40965451.98047 -30679883.16444  22373317.7814                   22373317.1914
 -36917898.39547 -26074983.17645  21211300.9384                   21211297.3984
 11  8  1  0 22 30.0000000  0  8G10G28G09G17G12G04G27G02
 -22545566.32846 -17191088.53544  22361215.6804                   22361215.0084
 -95748245.99246 -68966434.07443  22861354.3444                   22861353.9734
 -27277171.99247 -19543810.80144  22262518.2114                   22262516.9024
 -77104679.89847 -57699286.18445  22013139.5314                   22013137.4304
  -5395882.00846  -3078077.55143  23855713.7734                   23855711.7854
 -61046945.04347 -46304879.28546  20144145.8524                   20144143.4224
 -39465556.30547 -29511133.34444  22658738.5394                   22658737.7344
 -35497023.80547 -24967808.13345  21481684.8444                   21481680.6094
 11  8  1  0 23  0.0000000  0  8G10G28G09G17G12G04G27G02
 -22725979.66446 -17331670.27044  22326884.0004                   22326883.3594
 -95770746.77746 -68983967.25043  22857072.3754                   22857072.0004
 -27357264.25447 -19606220.39144  22247277.3364                   22247275.9384
 -77167560.43047 -57748284.01645  22001173.0234                   22001171.4614
  -5591739.36746  -3230693.61343  23818443.5084                   23818441.4494
 -61119566.55947 -46361467.47746  20130326.0554                   20130324.5904
 -39540591.63347 -29569602.48444  22644459.7504                   22644459.2274
 -35651151.55147 -25087907.63345  21452354.9304                   21452351.6374
 11  8  1  0 23 30.0000000  0  8G10G28G09G17G12G04G27G02
 -22906028.55946 -17471967.99644  22292621.9694                   22292621.2344
 -95792848.23846 -69001189.27743  22852867.8674                   22852866.2734
 -27436696.07047 -19668115.35544  22232161.4614                   22232160.9574
 -77230289.30547 -57797163.67645  21989236.0704                   21989234.1954
  -5787459.49246  -3383202.72743  23781198.5394                   23781197.7934
 -61191637.86747 -46417626.95345  20116611.5004                   20116609.5824
 -39615133.96546 -29627687.48044  22630275.2974                   22630274.0944
 -35804853.02747 -25207674.99645  21423106.4384                   21423103.1994
 11  8  1  0 24  0.0000000  0  8G10G28G09G17G12G04G27G02
 -23085709.62946 -17611979.13344  22258430.5554                   22258429.6484
 -95814551.50046 -69018100.98443  22848736.8364                   22848736.0044
 -27515469.42647 -19729497.22744  22217171.4534                   22217170.4964
 -77292866.30947 -57845925.00045  21977328.1334                   21977326.7384
  -5983040.32446  -3535603.32443  23743981.3204                   23743979.6254
 -61263161.09847 -46473359.34845  20103001.2274                   20102999.2504
 -39689185.01646 -29685389.63744  22616183.3984                   22616183.0204
 -35958127.63347 -25327109.71945  21393939.3444                   21393935.7544
 11  8  1  0 24 30.0000000  0  8G10G28G09G17G12G04G27G02
 -23265018.00046 -17751699.84444  22224308.6724                   22224307.2234
 -95835855.66846 -69034701.73043  22844681.4224                   22844682.3014
 -27593583.93047 -19790365.69144  22202307.3284                   22202306.0274
 -77355289.15647 -57894566.19145  21965449.6334                   21965447.7114
  -6178478.10246  -3687892.43443  23706790.4384                   23706788.6454
 -61334136.23847 -46528664.66045  20089495.0704                   20089493.2304
 -39762744.68047 -29742708.91044  22602185.4304                   22602184.8834
 -36110973.16847 -25446210.10545  21364853.5784                   21364850.1174
 11  8  1  0 25  0.0000000  0  8G10G28G09G17G12G04G27G02
 -23443951.69946 -17891128.60944  22190258.7114                   22190257.2194
 -95856763.48846 -69050993.64143  22840704.4844                   22840703.5514
 -27671042.56247 -19850723.10944  22187567.0164                   22187566.0274
 -77417559.53947 -57943088.60245  21953599.8594                   21953597.8874
  -6373771.84446  -3840069.30943  23669627.2274                   23669625.7814
 -61404566.47747 -46583545.36345  20076092.3914                   20076090.5864
 -39835815.73446 -29799647.45744  22588280.5554                   22588280.0744
 -36263390.53947 -25564976.86345  21335849.8754                   21335846.0314
 11  8  1  0 25 30.0000000  0  8G10G28G09G17G12G04G27G02
 -23622504.67246 -18030260.69544  22156279.7424                   22156279.8094
 -95877273.19146 -69066975.35543  22836800.8204                   22836799.7704
 -27747844.25847 -19910568.63744  22172952.4614                   22172951.1914
 -77479674.13747 -57991489.59045  21941779.5784                   21941777.9884
  -6568916.48046  -3992129.99643  23632492.0084                   23632491.7114
 -61474450.80947 -46638000.69545  20062794.0234                   20062791.9774
 -39908397.04347 -29856204.39144  22574469.1724                   22574468.6094
 -36415376.55147 -25683407.50845  21306927.9064                   21306924.0744
 11  8  1  0 26  0.0000000  0  8G10G28G09G17G12G04G27G02
 -23800673.86746 -18169093.75444  22122375.8914                   22122375.4224
 -95897386.02346 -69082647.77043  22832973.6724                   22832972.3794
 -27823991.36347 -19969904.09444  22158462.8204                   22158461.2734
 -77541632.94947 -58039769.21545  21929990.1094                   21929988.1374
  -6763910.10546  -4144072.99643  23595386.4694                   23595385.2854
 -61543791.42647 -46692032.34446  20049598.7814                   20049597.0784
 -39980490.63746 -29912381.26644  22560749.8284                   22560749.8324
 -36566931.37547 -25801502.14145  21278087.7344                   21278084.4694
 11  8  1  0 26 30.0000000  0  8G10G28G09G17G12G04G27G02
 -23978458.34846 -18307627.03143  22088544.5314                   22088543.4774
 -95917105.61346 -69098013.72343  22829221.8364                   22829219.5634
 -27899487.86347 -20028732.59044  22144095.8914                   22144094.7854
 -77603438.10247 -58087929.09845  21918228.6094                   21918226.9844
  -6958753.49246  -4295898.95343  23558308.8364                   23558307.3284
 -61612592.65647 -46745643.68745  20036506.9304                   20036504.5944
 -40052100.67646 -29968181.35544  22547123.9454                   22547122.1954
 -36718056.92647 -25919262.27345  21249329.3524                   21249325.9774
 11  8  1  0 27  0.0000000  0  8G10G28G09G17G12G04G27G02
 -24155855.29346 -18445858.32043  22054787.1484                   22054786.4534
 -95936433.23046 -69113074.27043  22825543.5704                   22825541.9264
 -27974335.64546 -20087055.57044  22129852.3364                   22129851.7194
 -77665089.33247 -58135969.05144  21906496.5234                   21906494.4534
  -7153444.22746  -4447605.98043  23521260.1094                   23521258.4694
 -61680856.57447 -46798836.34045  20023515.8984                   20023514.0904
 -40123228.68046 -30023605.81244  22533588.5704                   22533587.2274
 -36868752.77047 -26036687.56645  21220653.2424                   21220649.2734
 11  8  1  0 27 30.0000000  0  8G10G28G09G17G12G04G27G02
 -24332859.86746 -18583783.88344  22021104.1954                   22021103.5944
 -95955368.92646 -69127829.41843  22821941.1414                   22821938.5554
 -28048535.29747 -20144873.55544  22115733.1024                   22115731.7194
 -77726585.34447 -58183888.03545  21894795.1884                   21894792.4414
  -7347978.74646  -4599191.27343  23484241.8204                   23484240.4344
 -61748583.69947 -46851610.70345  20010628.0864                   20010625.9184
 -40193875.16047 -30078655.07844  22520144.1954                   22520143.8364
 -37019017.50047 -26153776.93745  21192058.4844                   21192055.1684
 11  8  1  0 28  0.0000000  0  8G10G28G09G17G12G04G27G02
 -24509466.61346 -18721399.45344  21987496.3364                   21987495.9884
 -95973911.49246 -69142278.21143  22818412.8204                   22818411.1724
 -28122086.05947 -20202185.87944  22101736.6094                   22101735.0044
 -77787923.85247 -58231684.28545  21883122.3524                   21883120.4304
  -7542352.24646  -4750651.12144  23447253.5474                   23447252.2034
 -61815773.83647 -46903966.65246  19997842.3444                   19997840.3834
 -40264039.65646 -30133328.75844  22506793.0004                   22506792.3914
 -37168848.49647 -26270528.32045  21163546.9774                   21163543.7154
 11  8  1  0 28 30.0000000  0  8G10G28G09G17G12G04G27G02
 -24685675.51246 -18858705.01644  21953965.5234                   21953964.6054
 -95992064.95346 -69156423.83243  22814958.5784                   22814957.4534
 -28194993.06646 -20258996.57844  22087862.9144                   22087862.2974
 -77849107.22747 -58279359.68745  21871479.4924                   21871477.2544
  -7736566.32046  -4901986.74244  23410295.5554                   23410294.5864
 -61882431.93047 -46955908.00046  19985157.4144                   19985155.8134
 -40333726.62146 -30187630.34844  22493531.9454                   22493531.1564
 -37318248.19947 -26386943.64145  21135116.9694                   21135113.4654
 11  8  1  0 29  0.0000000  0  8G10G28G09G17G12G04G27G02
 -24861483.07846 -18995697.85544  21920510.4534                   21920509.6564
 -96009830.56246 -69170267.23443  22811576.9454                   22811576.6254
 -28267257.89147 -20315306.87544  22074111.3914                   22074110.3324
 -77910134.86747 -58326913.72345  21859866.1334                   21859864.8834
  -7930618.23446  -5053195.99644  23373368.2274                   23373367.3834
 -61948559.78547 -47007436.19945  19972573.4844                   19972572.0394
 -40402937.97746 -30241561.32844  22480361.2344                   22480360.3134
 -37467216.34447 -26503022.68045  21106769.0944                   21106765.0704
 11  8  1  0 29 30.0000000  0  8G10G28G09G17G12G04G27G02
 -25036883.83246 -19132373.71944  21887132.7664                   21887132.1604
 -96027207.54346 -69183807.77743  22808269.5704                   22808270.2304
 -28338880.51247 -20371116.74644  22060482.1094                   22060481.4654
 -77971004.63347 -58374344.73045  21848283.1334                   21848280.8014
  -8124503.83646  -5204275.67244  23336473.8364                   23336472.6804
 -62014157.57847 -47058551.33645  19960091.3364                   19960089.4654
 -40471673.51646 -30295121.55944  22467281.8444                   22467281.0904
 -37615750.66047 -26618763.65645  21078503.9924                   21078500.3324
 11  8  1  0 30  0.0000000  0  8G10G28G09G17G12G04G27G02
 -23636451.04746 -18041127.34044  22153625.8284                   22153625.4924
 -94468778.60946 -67969447.69143  23104829.0864                   23104829.3954
 -26834443.03147 -19198827.85944  22346767.6174                   22346766.4024
 -76456296.72347 -57194052.87545  22136522.4924                   22136520.8754
  -6742796.53146  -4127620.61344  23599404.1484                   23599402.7504
 -60503807.02047 -45881654.79745  20247501.1334                   20247499.2704
 -38964515.02746 -29120712.38744  22754084.1254                   22754083.4924
 -36188428.12547 -25506564.23445  21350114.3204                   21350110.7704
 11  8  1  0 30 30.0000000  0  8G10G28G09G17G12G04G27G02
 -23811031.54346 -18177164.03544  22120404.6414                   22120403.7384
 -94485384.46946 -67982387.42243  23101668.8834                   23101669.7464
 -26904790.07847 -19253643.78944  22333381.0234                   22333379.0784
 -76516852.88747 -57241239.52045  22124999.0474                   22124996.7034
  -6936345.13346  -4278437.69944  23562573.1564                   23562571.7734
 -60568352.87947 -45931950.26645  20235218.2424                   20235216.6914
 -39032306.77346 -29173537.17244  22741184.3524                   22741183.7234
 -36336096.53547 -25621630.48845  21322013.8754                   21322010.3134
 11  8  1  0 31  0.0000000  0  8G10G28G09G17G12G04G27G02
 -23985195.69547 -18312876.32044  22087261.8984                   22087261.7034
 -94501605.78545 -67995027.49643  23098581.5314                   23098583.0514
 -26974500.63347 -19307963.75044  22320115.1884                   22320114.0864
 -76577250.21947 -57288302.38745  22113505.9384                   22113504.3244
  -7129720.52047  -4429119.84044  23525774.9694                   23525773.1054
 -60632374.30947 -45981837.09045  20223035.5634                   20223034.0864
 -39099627.74646 -29225995.11744  22728373.7274                   22728372.3714
 -36483330.00047 -25736357.83245  21293996.4534                   21293992.9184
 11  8  1  0 31 30.0000000  0  9G10G28G09G17G12G04G05G27G02
 -24158940.89546 -18448262.11744  22054199.7894                   22054199.5044
 -94517443.94546 -68007368.99243  23095569.1414                   23095568.8134
 -27043577.47346 -19361789.88344  22306970.4924                   22306969.2544
 -76637489.30547 -57335241.94945  22102043.0164                   22102040.7234
  -7322921.20346  -4579665.83243  23489010.3524                   23489007.9064
 -60695874.11347 -46031317.45346  20210951.9534                   20210950.1174
   6004441.20355   4843840.64853  24756645.4304                   24756650.5314
 -39166480.73046 -29278088.40644  22715651.3834                   22715650.9924
 -36630129.27347 -25850746.83245  21266061.5944                   21266057.4184
 11  8  1  0 32  0.0000000  0  9G10G28G09G17G12G04G05G27G02
 -24332267.97346 -18583322.12144  22021216.1884                   22021216.1804
 -94532904.44946 -68019416.23843  23092627.0314                   23092626.8134
 -27112026.99647 -19415127.21544  22293945.1024                   22293943.9184
 -76697574.03147 -57382061.21545  22090608.7034                   22090607.1134
  -7515949.04746  -4730077.09843  23452277.7664                   23452276.1844
 -60758858.68047 -46080396.33245  20198966.4064                   20198964.6254
   5800854.49245   4685201.96942  24717904.0234                   24717909.7774
 -39232871.76646 -29329821.70344  22703017.6174                   22703017.4734
 -36776498.19147 -25964800.51245  21238208.8444                   21238204.1684
 11  8  1  0 32 30.0000000  0  9G10G28G09G17G12G04G05G27G02
 -24505179.18046 -18718058.08644  21988312.5234                   21988312.2854
 -94547994.07446 -68031174.45343  23089756.0394                   23089754.2734
 -27179856.33247 -19467981.30144  22281037.1884                   22281036.2154
 -76757509.20747 -57428763.96145  22079203.1174                   22079201.8754
  -7708807.05546  -4880356.05943  23415578.0784                   23415575.9844
 -60821335.14147 -46129079.29745  20187077.2664                   20187075.9264
   5597239.57045   4526541.27042  24679158.1174                   24679162.9104
 -39298807.84446 -29381200.49244  22690469.9694                   22690469.8404
 -36922441.66047 -26078522.66445  21210436.0944                   21210432.9064
 11  8  1  0 33  0.0000000  0  9G10G28G09G17G12G04G05G27G02
 -24677674.55546 -18852470.02044  21955487.9454                   21955486.7234
 -94562716.96546 -68042646.89543  23086954.0704                   23086952.9774
 -27247070.63746 -19520356.10944  22268247.3364                   22268245.9884
 -76817297.23047 -57475352.04345  22067826.4614                   22067824.9844
  -7901496.14846  -5030503.38343  23378910.1174                   23378908.7274
 -60883308.76647 -46177370.43745  20175284.5084                   20175282.8594
   5393595.64145   4367858.01642  24640404.4844                   24640410.6134
 -39364293.90246 -29432228.64544  22678009.1954                   22678007.8444
 -37067962.73847 -26191915.69145  21182744.6414                   21182740.7384
 11  8  1  0 33 30.0000000  0  9G10G28G09G17G12G04G05G27G02
 -24849745.96947 -18986551.55544  21922743.1414                   21922742.7274
 -94577069.51246 -68053830.77343  23084223.0554                   23084221.6374
 -27313667.10547 -19572249.49244  22255574.0004                   22255573.4844
 -76876933.45347 -57521821.83245  22056478.4064                   22056476.6484
  -8094008.83246  -5180513.21943  23342275.5634                   23342274.8554
 -60944776.05947 -46225267.03146  20163587.2424                   20163585.5744
   5189930.35946   4209158.00442  24601649.0944                   24601653.4774
 -39429327.03946 -29482903.85544  22665633.7664                   22665633.6454
 -37213056.03947 -26304975.37945  21155134.1954                   21155130.4264
 11  8  1  0 34  0.0000000  0  9G10G28G09G17G12G04G05G27G02
 -25021388.36746 -19120298.80944  21890081.1414                   21890079.9184
 -94591051.70346 -68064726.03143  23081562.6954                   23081561.1484
 -27379646.32847 -19623661.90244  22243018.2584                   22243017.3594
 -76936415.52347 -57568171.49245  22045158.7504                   22045156.7734
  -8286340.60246  -5330382.08243  23305676.8444                   23305675.4344
 -61005737.96947 -46272769.82845  20151987.7424                   20151985.2734
   4986247.94546   4050444.64842  24562889.4454                   24562893.6994
 -39493907.61346 -29533226.40644  22653343.8524                   22653344.0744
 -37357719.96547 -26417700.48445  21127605.5004                   21127601.1764
 11  8  1  0 34 30.0000000  0  9G10G28G09G17G12G04G05G27G02
 -25192597.51246 -19253708.46544  21857500.1884                   21857500.3524
 -94604663.39146 -68075332.60243  23078971.8754                   23078971.1994
 -27445009.07846 -19674593.94544  22230580.1884                   22230579.1994
 -76995741.96147 -57614399.88344  22033869.7974                   22033867.8954
  -8478488.96946  -5480108.03143  23269112.4064                   23269110.4734
 -61066195.44147 -46319879.55145  20140482.4224                   20140480.8014
   4782552.21946   3891721.00442  24524125.3284                   24524131.4734
 -39558036.03546 -29583196.62544  22641141.3984                   22641140.6764
 -37501953.03547 -26530089.85545  21100158.3674                   21100154.7274
 11  8  1  0 35  0.0000000  0  9G10G28G09G17G12G04G05G27G02
 -25363367.21546 -19386775.70344  21825004.4224                   21825003.3484
 -94617902.94146 -68085649.27343  23076453.1334                   23076452.2624
 -27509754.33247 -19725044.82444  22218259.6804                   22218259.6054
 -77054909.34447 -57660504.35544  22022610.2274                   22022608.8014
  -8670448.30946  -5629686.70743  23232583.7034                   23232582.1684
 -61126147.19147 -46366595.21945  20129073.6414                   20129071.8554
   4578849.18845   3732991.58642  24485361.8134                   24485367.7734
 -39621711.08246 -29632813.59043  22629023.3984                   22629023.8984
 -37645751.95747 -26642140.92645  21072794.6804                   21072791.3674
 11  8  1  0 35 30.0000000  0  9G10G28G09G17G12G04G05G27G02
 -25533696.56646 -19519499.78544  21792591.7194                   21792590.8594
 -94630773.93045 -68095678.76243  23074002.1804                   23074003.8984
 -27573886.98846 -19775018.34844  22206055.7034                   22206054.9264
 -77113919.93747 -57706486.64145  22011380.9694                   22011378.9844
  -8862218.56646  -5779118.01644  23196091.4064                   23196089.2384
 -61185597.92247 -46412920.46945  20117761.1414                   20117759.1024
   4375138.43446   3574256.20343  24446597.3364                   24446602.9064
 -39684937.40246 -29682080.92644  22616993.1094                   22616992.8554
 -37789119.05147 -26753855.51245  21045512.3284                   21045508.7384
 11  8  1  0 36  0.0000000  0  9G10G28G09G17G12G04G05G27G02
 -25703581.88347 -19651877.89544  21760263.6024                   21760262.8364
 -94643277.45745 -68105421.88343  23071623.6484                   23071625.2704
 -27637408.48847 -19824515.64144  22193968.6334                   22193967.3134
 -77172772.69147 -57752345.93444  22000181.7584                   22000179.8674
  -9053796.87546  -5928399.75444  23159635.1884                   23159633.3284
 -61244549.20347 -46458856.54345  20106542.8524                   20106541.2234
   4171423.21945   3415517.36743  24407831.9304                   24407836.6954
 -39747716.17646 -29730999.48044  22605045.8444                   22605045.8524
 -37932053.48047 -26865232.96545  21018313.2274                   21018309.6374
 11  8  1  0 36 30.0000000  0  9G10G28G09G17G12G04G05G27G02
 -25873018.67246 -19783906.46944  21728021.0864                   21728019.6764
 -94655413.37146 -68114878.58243  23069314.3914                   23069315.4804
 -27700319.41847 -19873537.17644  22181997.0164                   22181995.4654
 -77231465.58247 -57798080.66445  21989012.5944                   21989011.1454
  -9245178.93746  -6077528.59444  23123215.5234                   23123214.2814
 -61303001.24247 -46504403.59445  20095419.6564                   20095418.4024
   3967708.03545   3256778.49642  24369065.7584                   24369070.7704
 -39810047.92646 -29779569.71544  22593185.2734                   22593184.1994
 -38074553.73447 -26976272.10945  20991196.3204                   20991192.1724
 11  8  1  0 37  0.0000000  0  9G10G28G09G17G12G04G05G27G02
 -26042002.27747 -19915581.92644  21695864.3834                   21695862.9454
 -94667181.50446 -68124048.75043  23067076.3674                   23067075.8834
 -27762620.67247 -19922083.65244  22170141.1884                   22170139.9614
 -77289996.54347 -57843689.19545  21977875.1484                   21977872.9104
  -9436361.38346  -6226501.86744  23086835.3754                   23086833.2074
 -61360955.08247 -46549562.43745  20084391.6564                   20084389.7424
   3763996.83645   3098042.80542  24330301.2504                   24330305.4184
 -39871933.19946 -29827792.03944  22581409.2424                   22581408.6214
 -38216618.25447 -27086971.70745  20964162.6414                   20964158.5124
 11  8  1  0 37 30.0000000  0  9G10G28G09G17G12G04G05G27G02
 -26210530.43046 -20046902.48844  21663794.5394                   21663793.7114
 -94678584.08646 -68132934.02043  23064906.2734                   23064906.8014
 -27824315.52346 -19970157.58244  22158401.0784                   22158399.7274
 -77348366.55147 -57889172.34845  21966767.1484                   21966765.4304
  -9627342.87546  -6375318.55544  23050492.4694                   23050491.0594
 -61418413.54747 -46594335.28546  20073457.6024                   20073455.1884
   3560291.41845   2939311.66842  24291536.4384                   24291541.4454
 -39933374.94546 -29875668.77043  22569716.0474                   22569716.5394
 -38358247.62147 -27197332.23445  20937210.8984                   20937207.0394
 11  8  1  0 38  0.0000000  0  9G10G28G09G17G12G04G05G27G02
 -24803172.89847 -18950260.18044  21931605.1644                   21931604.5824
 -93114200.72346 -66913934.09043  23362599.5474                   23362598.4884
 -26309982.42647 -18790157.79344  22446569.1724                   22446568.4264
 -75831151.21147 -56706926.64145  22255483.8134                   22255482.3914
  -8242692.94546  -5296370.52344  23313982.3134                   23313980.7544
 -59899955.19547 -45411120.99245  20362410.7504                   20362408.7464
   4932022.65245   4008193.47343  24552567.6564                   24552573.0864
 -38418951.46146 -28695598.55944  22857902.5164                   22857901.6764
 -36924015.61747 -26079748.83245  21210136.3054                   21210132.7624
 11  8  1  0 38 30.0000000  0  9G10G28G09G17G12G04G05G27G02
 -24970777.75046 -19080861.28944  21899711.6484                   21899710.1524
 -93124873.12946 -66922250.39543  23360566.9694                   23360567.3754
 -26370468.03146 -18837289.45344  22435059.6484                   22435058.6454
 -75889194.53547 -56752155.22745  22244439.1884                   22244436.7584
  -8433261.69946  -5444865.62544  23277719.5474                   23277716.9534
 -59956426.29747 -45455124.46545  20351664.5864                   20351662.4654
   4728339.91445   3849479.97742  24513808.4224                   24513812.7854
 -38479508.68046 -28742786.03944  22846378.9774                   22846378.1564
 -37064771.47747 -26189428.68445  21183351.7664                   21183347.3914
 11  8  1  0 39  0.0000000  0  9G10G28G09G17G12G04G05G27G02
 -25137919.19547 -19211101.31244  21867905.5164                   21867904.1374
 -93135185.77046 -66930286.32443  23358605.5704                   23358605.2234
 -26430355.27747 -18883954.87944  22423662.5084                   22423662.2774
 -75947076.61747 -56797258.18445  22233424.2424                   22233422.2894
  -8623623.39846  -5593199.37543  23241493.5784                   23241491.6644
 -60012409.69547 -45498747.90245  20341010.6414                   20341009.0354
   4524669.83645   3690776.34442  24475051.3984                   24475056.1994
 -38539629.47346 -28789633.43444  22834937.9454                   22834938.2384
 -37205093.42647 -26298770.43445  21156648.8524                   21156645.1294
 11  8  1  0 39 30.0000000  0  9G10G28G09G17G12G04G05G27G02
 -25304592.07447 -19340976.21144  21836189.3054                   21836187.7504
 -93145138.04346 -66938041.42642  23356712.0474                   23356711.3954
 -26489644.94546 -18930154.63344  22412380.0314                   22412379.1454
 -76004795.37947 -56842233.85245  22222441.0704                   22222439.2934
  -8813773.70746  -5741368.42644  23205309.1094                   23205307.9534
 -60067905.61347 -45541991.49246  20330450.7424                   20330448.9414
   4321016.57845   3532085.80542  24436296.6024                   24436301.0394
 -38599314.18046 -28836141.04344  22823580.6334                   22823579.8834
 -37344979.30147 -26407772.39545  21130029.3134                   21130025.9654
 11  8  1  0 40  0.0000000  0  9G10G28G09G17G12G04G05G27G02
 -25470794.56247 -19470484.57844  21804561.3284                   21804560.3324
 -93154732.51646 -66945517.72342  23354884.9694                   23354885.8244
 -26548340.53947 -18975891.48444  22401210.9924                   22401209.7344
 -76062351.69946 -56887082.98444  22211488.1644                   22211485.8794
  -9003711.45747  -5889371.84044  23169166.2584                   23169163.8094
 -60122917.63347 -45584858.02045  20319982.4384                   20319980.3834
   4117381.67645   3373409.57442  24397546.6804                   24397550.8444
 -38658566.07046 -28882311.35544  22812305.5394                   22812304.6024
 -37484430.19947 -26516435.41045  21103493.0864                   21103488.9884
 11  8  1  0 40 30.0000000  0  9G10G28G09G17G12G04G05G27G02
 -25636526.17646 -19599626.01644  21773023.2814                   21773021.8834
 -93163973.32445 -66952718.46142  23353126.1094                   23353127.3324
 -26606446.80546 -19021169.11744  22390153.7664                   22390152.7854
 -76119747.50447 -56931807.00844  22200565.7114                   22200564.2074
  -9193436.82846  -6037209.76644  23133062.2734                   23133059.7544
 -60177450.36747 -45627351.06645  20309604.9694                   20309602.9304
   3913765.67245   3214748.03542  24358798.3754                   24358803.3284
 -38717389.60246 -28928147.90244  22801110.7974                   22801111.0004
 -37623448.83247 -26624761.60945  21077038.4534                   21077034.5824
 11  8  1  0 41  0.0000000  0  9G10G28G09G17G12G04G05G27G02
 -25801783.61347 -19728397.98044  21741575.9304                   21741574.8324
 -93172861.47745 -66959644.41442  23351435.3834                   23351436.3914
 -26663965.66846 -19065989.05144  22379208.7584                   22379207.5744
 -76176982.15647 -56976405.50044  22189674.0634                   22189672.8954
  -9382946.87546  -6184879.90244  23097000.0784                   23096997.2854
 -60231505.57847 -45669472.02745  20299318.6414                   20299317.0554
   3710171.21946   3056103.35543  24320055.6094                   24320061.1134
 -38775786.73046 -28973652.22743  22789998.7114                   22789998.3094
 -37762034.85247 -26732750.69545  21050666.2114                   21050662.4844
 11  8  1  0 41 30.0000000  0  9G10G28G09G17G12G04G05G27G02
 -25966561.26646 -19856796.07844  21710219.7034                   21710218.3244
 -93181396.26645 -66966295.05542  23349810.9614                   23349812.1334
 -26720897.17646 -19110351.29344  22368374.8754                   22368374.1054
 -76234052.71147 -57020876.10544  22178814.1644                   22178812.6684
  -9572237.23046  -6332378.83644  23060978.6094                   23060976.8674
 -60285082.98047 -45711220.66045  20289123.2344                   20289121.2774
   3506603.53945   2897479.51642  24281317.5314                   24281322.1414
 -38833757.09446 -29018823.96543  22778967.7894                   22778966.1604
 -37900185.73847 -26840400.73445  21024376.9064                   21024373.5204
 11  8  1  0 42  0.0000000  0  9G10G28G09G17G12G04G05G27G02
 -26130856.98847 -19984818.65644  21678955.2584                   21678954.2304
 -93189579.54345 -66972671.74642  23348254.3364                   23348256.5864
 -26777244.55546 -19154258.39544  22357652.3364                   22357651.0084
 -76290959.34047 -57065218.96544  22167985.5084                   22167983.5314
  -9761305.88346  -6479705.02044  23025000.4454                   23024998.4304
 -60338185.55947 -45752599.30545  20279018.3444                   20279016.1054
   3303064.78145   2738878.23042  24242585.6094                   24242590.5984
 -38891303.27346 -29063665.18743  22768015.6644                   22768015.8794
 -38037902.23847 -26947712.26245  20998170.7504                   20998167.0514
 11  8  1  0 42 30.0000000  0  9G10G28G09G17G12G04G05G27G02
 -26294666.94947 -20112462.73444  21647783.3754                   21647782.0234
 -93197412.58246 -66978775.52343  23346763.5474                   23346765.4104
 -26833009.99247 -19197712.02044  22347041.1334                   22347039.6294
 -76347701.08247 -57109433.35944  22157188.3134                   22157186.2664
  -9950149.93446  -6626856.23444  22989064.3524                   22989061.8134
 -60390814.93447 -45793609.21545  20269003.0704                   20269001.3634
   3099558.13745   2580301.95743  24203858.2274                   24203863.3164
 -38948426.98446 -29108177.25044  22757145.7274                   22757146.0824
 -38175183.79747 -27054684.90245  20972046.7974                   20972043.1804
 11  8  1  0 43  0.0000000  0  9G10G28G09G17G12G04G05G27G02
 -26457990.22746 -20239727.57444  21616703.7974                   21616702.1844
 -93204898.84046 -66984609.13343  23345340.4534                   23345341.0554
 -26888197.72347 -19240715.47344  22336538.7894                   22336537.6844
 -76404279.62147 -57153520.55944  22146421.4384                   22146419.3164
 -10138768.66046  -6773831.84044  22953171.1484                   22953169.0274
 -60442975.20747 -45834253.59045  20259077.3444                   20259075.3554
   2896084.27345   2421751.22742  24165139.6804                   24165143.5744
 -39005132.32046 -29152363.27044  22746355.8134                   22746355.3444
 -38312032.28547 -27161320.07445  20946005.5474                   20946001.7584
 11  8  1  0 43 30.0000000  0  9G10G28G09G17G12G04G05G27G02
 -26620825.01247 -20366611.77044  21585717.8364                   21585716.4534
 -93212040.93746 -66990174.48043  23343981.4534                   23343981.3524
 -26942811.35247 -19283271.57044  22326145.2504                   22326144.8984
 -76460695.79347 -57197481.23444  22135685.7894                   22135684.1214
 -10327160.89146  -6920630.94844  22917320.9304                   22917319.5394
 -60494669.78947 -45874535.09045  20249239.9924                   20249238.3204
   2692644.56645   2263227.09443  24126425.2504                   24126429.9144
 -39061422.73046 -29196226.00843  22735643.8284                   22735644.0634
 -38448448.95747 -27267618.76645  20920045.8914                   20920042.2504
 11  8  1  0 44  0.0000000  0  9G10G28G09G17G12G04G05G27G02
 -26783166.28547 -20493111.39144  21554824.3594                   21554823.4574
 -93218838.37546 -66995471.30943  23342688.0004                   23342687.7704
 -26996851.32846 -19325380.68444  22315862.6954                   22315861.8364
 -76516947.09847 -57241313.43744  22124981.1804                   22124979.9614
 -10515322.17247  -7067250.10544  22881515.8754                   22881514.1094
 -60545899.09447 -45914454.04345  20239491.1644                   20239489.6564
   2489244.17646   2104733.55943  24087719.8204                   24087723.3834
 -39117298.24646 -29239765.42243  22725011.5234                   22725010.7934
 -38584431.86347 -27373579.44945  20894169.6804                   20894165.4804
 11  8  1  0 44 30.0000000  0  9G10G28G09G17G12G04G05G27G02
 -26945014.30947 -20619226.67644  21524025.8754                   21524024.6414
 -93225295.51246 -67000502.97743  23341460.2344                   23341459.1414
 -27050323.23847 -19367047.14144  22305687.0314                   22305686.0004
 -76573035.90647 -57285019.01644  22114308.2194                   22114306.4734
 -10703253.10246  -7213689.76644  22845753.5234                   22845751.9184
 -60596667.80947 -45954014.09045  20229830.9384                   20229828.8484
   2285882.82045   1946270.44543  24049021.1724                   24049025.2664
 -39172763.95746 -29282985.50843  22714456.6884                   22714456.4264
 -38719984.25847 -27479204.68445  20868374.3284                   20868371.2114
 11  8  1  0 45  0.0000000  0  9G10G28G09G17G12G04G05G27G02
 -27106362.82846 -20744952.75444  21493322.4534                   21493321.5354
 -93231411.12145 -67005268.46142  23340295.3674                   23340295.2114
 -27103226.85546 -19408270.78143  22295620.7274                   22295618.6174
 -76628958.28547 -57328594.89845  22103666.9384                   22103665.3484
 -10890948.05146  -7359945.52344  22810036.3284                   22810034.5944
 -60646975.74247 -45993215.08245  20220257.6254                   20220255.3834
   2082566.40646   1787842.33643  24010331.7114                   24010335.1214
 -39227819.02046 -29325885.64843  22703980.1024                   22703980.1294
 -38855102.78147 -27584491.83245  20842662.6954                   20842658.5004
 11  8  1  0 45 30.0000000  0  9G10G28G09G17G12G04G05G27G02
 -27267210.62146 -20870288.64144  21462714.4454                   21462713.0474
 -93237188.49645 -67009770.46942  23339194.9064                   23339196.5864
 -27155566.20746 -19449054.73444  22285660.1884                   22285659.4304
 -76684715.85247 -57372042.37544  22093056.1724                   22093054.7274
 -11078406.06647  -7506016.69144  22774364.3754                   22774362.0434
 -60696826.05947 -46032059.48445  20210771.2974                   20210769.2894
   1879296.02745   1629450.05543  23971650.0084                   23971653.3594
 -39282467.25046 -29368468.75843  22693580.4694                   22693580.6844
 -38989789.03547 -27689442.15645  20817032.8204                   20817028.6294
 11  8  1  0 46  0.0000000  0  9G10G28G09G17G12G04G05G27G02
 -25852128.88747 -19767627.47744  21731994.5084                   21731993.8364
 -91667208.40245 -65786409.46542  23637953.3444                   23637954.4024
 -25631921.68046 -18261799.30943  22575600.6884                   22575599.0944
 -75164885.88347 -56187759.29344  22382270.8284                   22382269.2584
  -9690198.11746  -6424296.20744  23038531.6334                   23038529.0124
 -59170799.22747 -44842947.67246  20501164.4774                   20501162.8634
   3251501.41846   2698701.26243  24232771.1564                   24232774.9064
 -37761288.45746 -28183134.69943  22983051.4924                   22983051.0904
 -37548618.43447 -26566452.05145  21091278.0634                   21091274.2274
 11  8  1  0 46 30.0000000  0  9G10G28G09G17G12G04G05G27G02
 -26011966.54746 -19892176.24644  21701579.3364                   21701577.8714
 -91672313.60945 -65790387.63342  23636981.6484                   23636983.2194
 -25683140.13346 -18301709.83244  22565853.8364                   22565852.6954
 -75220312.43047 -56230948.84044  22371722.7894                   22371721.4614
  -9877175.12547  -6569992.57844  23002950.9774                   23002948.9024
 -59219741.71147 -44881084.67645  20491851.0704                   20491849.4064
   3048331.08246   2540386.96543  24194110.0394                   24194112.6214
 -37815129.59046 -28225088.91044  22972806.5704                   22972805.9264
 -37682440.92647 -26670729.30145  21065812.3674                   21065809.0594
 11  8  1  0 47  0.0000000  0  9G10G28G09G17G12G04G05G27G02
 -26171294.86746 -20016328.15244  21671259.4304                   21671258.7194
 -91677085.53545 -65794106.14842  23636074.3674                   23636075.7774
 -25733802.23446 -18341186.86344  22556213.0164                   22556211.8874
 -75275573.09047 -56274009.10944  22361206.6884                   22361206.1994
 -10063907.77047  -6715498.53144  22967416.6884                   22967414.4574
 -59268234.00847 -44918870.88745  20482623.0554                   20482621.7894
   2845214.57846   2382114.59843  24155457.6174                   24155461.2384
 -37868570.86346 -28266731.55143  22962636.7274                   22962636.1724
 -37815832.29747 -26774670.59845  21040428.8914                   21040425.1294
 11  8  1  0 47 30.0000000  0  9G10G28G09G17G12G04G05G27G02
 -26330111.60547 -20140081.38744  21641037.6724                   21641036.6334
 -91681526.74645 -65797566.92642  23635228.6024                   23635230.2344
 -25783911.62546 -18380233.18044  22546677.5474                   22546677.0594
 -75330668.18047 -56316940.35544  22350722.7344                   22350721.7034
 -10250395.13747  -6860813.36344  22931929.6804                   22931927.2774
 -59316279.02347 -44956308.57045  20473480.6254                   20473479.0984
   2642154.10945   2223885.84043  24116815.8134                   24116819.3244
 -37921615.42246 -28308065.05143  22952543.3754                   22952541.8914
 -37948792.96947 -26878276.30145  21015127.7894                   21015123.5354
 11  8  1  0 48  0.0000000  0  9G10G28G09G17G12G04G05G27G02
 -26488415.19547 -20263434.78944  21610914.0474                   21610912.3404
 -91685640.02746 -65800772.25842  23634446.0234                   23634446.9344
 -25833472.47746 -18418852.09844  22537246.8204                   22537246.1174
 -75385597.94547 -56359742.78144  22340270.3754                   22340268.8244
 -10436635.68447  -7005935.87544  22896489.3054                   22896486.9494
 -59363880.31247 -44993400.48845  20464422.2974                   20464420.4494
   2439151.28146   2065702.03143  24078186.2114                   24078188.8244
 -37974266.74646 -28349092.10243  22942523.9694                   22942523.3954
 -38081324.52347 -26981547.60245  20989907.5554                   20989903.2584
 11  8  1  0 48 30.0000000  0  9G10G28G09G17G12G04G05G27G02
 -26646201.40247 -20386385.03544  21580887.9224                   21580886.6724
 -91689425.55145 -65803722.12142  23633726.1804                   23633727.2424
 -25882485.98446 -18457044.50044  22527919.6334                   22527919.0864
 -75440361.25447 -56402415.48444  22329848.0314                   22329847.7664
 -10622625.15647  -7150862.74244  22861095.9064                   22861093.9694
 -59411038.75847 -45030147.33645  20455448.4384                   20455446.8284
   2236209.75046   1907566.03543  24039567.5394                   24039571.2854
 -38026525.71146 -28389813.46143  22932579.5704                   22932579.2194
 -38213425.80947 -27084483.64545  20964769.7194                   20964765.5784
 11  8  1  0 49  0.0000000  0  9G10G28G09G17G12G04G05G27G02
 -26803468.54746 -20508930.80144  21550961.2424                   21550959.4844
 -91692885.88745 -65806418.64542  23633067.0164                   23633068.8094
 -25930955.69546 -18494813.16444  22518695.1954                   22518695.2194
 -75494958.08647 -56444958.48045  22319460.1644                   22319458.6564
 -10808362.31247  -7295592.97344  22825751.6954                   22825749.7934
 -59457757.57847 -45066551.60945  20446557.6564                   20446556.4534
   2033331.96546   1749479.66443  24000959.8984                   24000964.5984
 -38078395.58246 -28430231.61344  22922709.1094                   22922708.2194
 -38345097.88347 -27187085.23445  20939713.1564                   20939709.1914
 11  8  1  0 49 30.0000000  0  9G10G28G09G17G12G04G05G27G02
 -26960212.23846 -20631068.71544  21521133.9304                   21521132.0904
 -91696021.30945 -65808861.92642  23632471.0164                   23632471.9844
 -25978883.07046 -18532159.22743  22509575.5314                   22509575.2624
 -75549386.48047 -56487370.24644  22309102.0864                   22309100.9414
 -10993843.28946  -7440123.58644  22790455.6724                   22790453.8134
 -59504037.60947 -45102613.97745  20437751.3364                   20437749.6724
   1830522.15246   1591446.22743  23962367.5784                   23962371.0904
 -38129877.15246 -28470347.21143  22912911.4844                   22912911.2464
 -38476339.57447 -27289351.47345  20914739.0164                   20914734.9844
 11  8  1  0 50  0.0000000  0  9G10G28G09G17G12G04G05G27G02
 -27116430.94947 -20752797.50044  21491406.1484                   21491404.9494
 -91698834.76645 -65811054.37942  23631935.5164                   23631937.2304
 -26026272.03146 -18569085.79343  22500557.4924                   22500557.5664
 -75603647.66847 -56529651.68744  22298777.0784                   22298775.0904
 -11179066.55147  -7584453.34044  22755208.9534                   22755207.1644
 -59549882.45747 -45138337.23445  20429027.1254                   20429025.7934
   1627781.63745   1433466.77042  23923786.4694                   23923789.6294
 -38180974.03546 -28510163.06244  22903189.1884                   22903188.8794
 -38607152.18747 -27391283.35545  20889845.7504                   20889842.1134
 11  8  1  0 50 30.0000000  0  9G10G28G09G17G12G04G05G27G02
 -27272122.93447 -20874115.87544  21461778.9384                   21461777.5394
 -91701328.94945 -65812998.00442  23631461.4064                   23631462.9414
 -26073126.38746 -18605595.73044  22491642.7114                   22491641.3134
 -75657741.78147 -56571802.93744  22288483.0314                   22288480.7584
 -11364030.54346  -7728581.07044  22720010.7814                   22720009.5744
 -59595295.30947 -45173723.88745  20420385.5864                   20420383.6054
   1425112.37946   1275542.88743  23885220.1564                   23885222.3834
 -38231689.51646 -28549681.67244  22893538.4614                   22893538.2114
 -38737537.03947 -27492881.91845  20865034.3054                   20865030.5824
 11  8  1  0 51  0.0000000  0  9G10G28G09G17G12G04G05G27G02
 -27427283.40647 -20995020.10244  21432252.7424                   21432251.4064
 -91703503.83645 -65814692.90242  23631047.0084                   23631049.6724
 -26119446.87946 -18641689.70344  22482827.7274                   22482826.3954
 -75711666.57047 -56613822.24244  22278222.5474                   22278219.8834
 -11548731.12547  -7872503.55144  22684864.0634                   22684862.0594
 -59640276.50047 -45208774.16445  20411826.3134                   20411824.1724
   1222519.00445   1117678.16843  23846667.8594                   23846670.7734
 -38282023.96546 -28588903.39843  22883959.9304                   22883960.0204
 -38867492.50447 -27594145.89545  20840304.1254                   20840300.6334
 11  8  1  0 51 30.0000000  0  9G10G28G09G17G12G04G05G27G02
 -27581913.89147 -21115511.32844  21402827.4614                   21402825.9844
 -91705364.88745 -65816143.14142  23630693.2584                   23630695.2384
 -26165240.43046 -18677373.03144  22474113.2034                   22474112.6454
 -75765425.55547 -56655712.35544  22267991.6884                   22267990.0554
 -11733169.82447  -8016221.96144  22649766.9454                   22649764.2304
 -59684832.65247 -45243493.24645  20403347.3524                   20403345.4264
   1020000.24646    959871.55943  23808130.2504                   23808132.2274
 -38331983.77046 -28627833.16443  22874452.6884                   22874452.3364
 -38997022.95747 -27695078.68445  20815655.7114                   20815652.0944
 11  8  1  0 52  0.0000000  0  9G10G28G09G17G12G04G05G27G02
 -27736008.16047 -21235584.73844  21373503.8754                   21373502.7234
 -91706910.54745 -65817347.67242  23630398.5784                   23630401.2894
 -26210506.43046 -18712645.29344  22465499.1564                   22465499.0204
 -75819014.87147 -56697470.25444  22257793.8674                   22257792.4384
 -11917340.68047  -8159731.64844  22614720.2664                   22614717.7774
 -59728962.36347 -45277880.03545  20394949.5784                   20394948.0394
    817562.50046    802128.08643  23769607.0084                   23769609.1914
 -38381567.98846 -28666470.30143  22865017.2814                   22865017.0904
 -39126124.92647 -27795677.59845  20791088.6484                   20791084.3014
 11  8  1  0 52 30.0000000  0  9G10G28G09G17G12G04G05G27G02
 -27889566.49246 -21355240.55144  21344283.0784                   21344281.9494
 -91708145.85245 -65818310.28942  23630163.8914                   23630165.7194
 -26255250.89846 -18747511.19143  22456984.8054                   22456984.6804
 -75872436.98447 -56739097.87144  22247627.7274                   22247625.8484
 -12101244.25047  -8303033.08244  22579723.5704                   22579722.0044
 -59772671.21147 -45311938.87945  20386631.7584                   20386630.7074
    615205.32446    644447.36743  23731100.0634                   23731101.7464
 -38430781.97346 -28704818.91043  22855651.5944                   22855652.2974
 -39254801.98447 -27895945.40645  20766602.3914                   20766598.1684
 11  8  1  0 53  0.0000000  0  9G10G28G09G17G12G04G05G27G02
 -28042585.92647 -21474476.42644  21315164.7814                   21315162.9184
 -91709071.70345 -65819031.80142  23629987.9694                   23629990.7234
 -26299476.17246 -18781972.53144  22448569.3524                   22448569.0234
 -75925691.39847 -56780594.81644  22237494.0394                   22237492.0354
 -12284877.55946  -8446123.89844  22544780.3204                   22544777.9574
 -59815960.95747 -45345671.14845  20378394.2974                   20378392.5944
    412931.83246    486831.88343  23692607.8284                   23692610.2854
 -38479627.73846 -28742880.59443  22846357.0164                   22846357.1524
 -39383054.05147 -27995882.04345  20742196.1804                   20742192.3404
 11  8  1  0 53 30.0000000  0  9G10G28G09G17G12G04G05G27G02
 -28195060.95747 -21593288.09044  21286149.8984                   21286148.1524
 -91709687.53145 -65819511.77342  23629871.7274                   23629873.0664
 -26343182.43446 -18816029.43743  22440252.2034                   22440252.1024
 -75978774.66047 -56821958.40244  22227392.3754                   22227391.1294
 -12468234.96147  -8588999.73844  22509887.7734                   22509886.3984
 -59858831.18447 -45379076.52345  20370236.7664                   20370234.7114
    210747.87146    329286.18443  23654133.6414                   23654135.8484
 -38528104.94546 -28780655.12143  22837132.0474                   22837132.2304
 -39510878.52347 -28095485.51245  20717872.7194                   20717868.3914
 11  8  1  0 54  0.0000000  0  9G10G28G09G17G12G04G05G27G02
 -28346992.59847 -21711676.32444  21257238.1174                   21257236.1804
 -91709998.82046 -65819754.48442  23629811.8834                   23629814.0514
 -26386376.64546 -18849687.31644  22432032.9304                   22432032.8054
 -76031690.07847 -56863191.23844  22217323.0864                   22217321.7154
 -12651318.22747  -8731661.93744  22475048.1884                   22475046.2894
 -59901288.15247 -45412159.88345  20362156.9304                   20362155.6134
      8652.34846    171809.37543  23615676.0164                   23615678.1644
 -38576220.03946 -28818147.45743  22827976.2974                   22827976.0474
 -39638279.60247 -28194759.05145  20693628.1644                   20693624.6334
 11  8  1  0 54 30.0000000  0  9G10G28G09G17G12G04G05G27G02
 -26922950.68447 -20602033.21944  21528223.8754                   21528222.8484
 -90134584.82045 -64592159.19942  23929603.6954                   23929605.7304
 -24853637.43446 -17655345.10544  22723703.8444                   22723703.6094
 -74509012.41046 -55676689.16444  22507078.2504                   22507077.3014
 -11258696.39146  -7646502.03144  22740055.4774                   22740053.4614
 -58367910.27347 -44217319.98445  20653949.2664                   20653947.5164
   1382077.59446   1242011.12543  23877029.4774                   23877032.0394
 -37048551.10546 -27627756.12543  23118682.3754                   23118682.3444
 -38189830.86347 -27066097.68745  20969259.4774                   20969255.4344
 11  8  1  0 55  0.0000000  0  9G10G28G09G17G12G04G05G27G02
 -27073783.33247 -20719565.09844  21499520.8444                   21499519.9494
 -90134287.76245 -64591927.85542  23929659.9454                   23929662.1844
 -24895811.21146 -17688207.86743  22715678.0474                   22715677.5274
 -74561585.85946 -55717655.52344  22497074.1414                   22497073.0744
 -11441219.33647  -7788727.64144  22705322.5164                   22705320.3634
 -58409543.05547 -44249761.11745  20646026.2504                   20646024.9804
   1180172.32046   1084682.50843  23838607.4774                   23838610.0824
 -37095944.50046 -27664686.11743  23109663.6094                   23109663.8014
 -38316381.78947 -27164708.77045  20945177.5944                   20945173.4774
 11  8  1  0 55 30.0000000  0  9G10G28G09G17G12G04G05G27G02
 -27224064.91447 -20836667.58644  21470923.4384                   21470922.2234
 -90133691.60245 -64591463.46542  23929773.0084                   23929776.1764
 -24937481.68446 -17720678.42244  22707748.6884                   22707747.8404
 -74613990.05547 -55758490.00844  22487102.6484                   22487100.6764
 -11623460.59447  -7930733.78144  22670643.2894                   22670641.5904
 -58450769.63347 -44281885.73045  20638181.7274                   20638179.9534
    978363.90246    927429.44143  23800204.3444                   23800207.4654
 -37142983.08646 -27701339.61743  23100712.4844                   23100712.5164
 -38442510.26247 -27262990.67645  20921175.9454                   20921171.5744
 11  8  1  0 56  0.0000000  0  9G10G28G09G17G12G04G05G27G02
 -27373792.90247 -20953338.70744  21442431.8594                   21442429.9574
 -90132798.28545 -64590767.49242  23929943.9774                   23929946.1564
 -24978651.73046 -17752759.06244  22699914.0704                   22699913.5314
 -74666224.56646 -55799192.23844  22477162.1804                   22477161.1524
 -11805417.50447  -8072518.33644  22636017.8524                   22636016.0984
 -58491592.43047 -44313695.69145  20630413.6884                   20630411.6644
    776654.95746    770253.85543  23761821.2974                   23761822.8834
 -37189669.32846 -27737718.57043  23091827.8524                   23091828.0004
 -38568216.78947 -27360943.79745  20897254.8594                   20897251.1564
 11  8  1  0 56 30.0000000  0  9G10G28G09G17G12G04G05G27G02
 -27522962.50847 -21069574.71144  21414045.8594                   21414044.0514
 -90131607.34445 -64589839.59042  23930169.5084                   23930173.4804
 -25019322.11347 -17784450.31244  22692175.0394                   22692174.9344
 -74718286.46946 -55839760.00444  22467255.2894                   22467254.2624
 -11987085.45347  -8214077.74644  22601447.9614                   22601445.7274
 -58532011.46947 -44345191.05545  20622721.7114                   20622720.2624
    575050.93446    613160.03143  23723456.7664                   23723459.5164
 -37236003.43446 -27773823.14543  23083011.4064                   23083011.4224
 -38693499.61747 -27458566.75845  20873414.7734                   20873410.6844
 11  8  1  0 57  0.0000000  0  9G10G28G09G17G12G04G05G27G02
 -27671573.18447 -21185375.17244  21385765.5784                   21385763.7194
 -90130122.69145 -64588682.82042  23930453.5234                   23930456.3324
 -25059498.17646 -17815756.38343  22684529.6884                   22684529.6524
 -74770177.16846 -55880194.33644  22457380.5864                   22457379.2854
 -12168463.95347  -8355411.60944  22566933.1644                   22566930.8524
 -58572031.51647 -44376375.50045  20615106.6644                   20615104.7584
    373552.41046    456148.40643  23685112.0944                   23685114.3984
 -37281990.03946 -27809656.95343  23074260.3364                   23074260.3954
 -38818361.52047 -27555861.72745  20849653.6954                   20849649.6454
 11  8  1  0 57 30.0000000  0  9G10G28G09G17G12G04G05G27G02
 -27819624.29747 -21300739.63744  21357592.4924                   21357590.5314
 -90128348.21545 -64587300.21942  23930790.4534                   23930793.8794
 -25099184.82046 -17846681.13744  22676977.1094                   22676977.3794
 -74821898.58246 -55920496.77344  22447538.3284                   22447537.4964
 -12349552.17247  -8496519.28144  22532472.0784                   22532470.7974
 -58611656.41447 -44407252.04745  20607565.5864                   20607564.3794
    172160.34846    299219.75443  23646788.9534                   23646790.8794
 -37327633.55546 -27845223.38743  23065574.7734                   23065574.4654
 -38942804.37547 -27652830.17645  20825973.4224                   20825969.0984
 11  8  1  0 58  0.0000000  0  9G10G28G09G17G12G04G05G27G02
 -27967114.76647 -21415667.21144  21329525.9774                   21329524.0044
 -90126287.35545 -64585694.50842  23931183.1024                   23931186.2344
 -25138386.25446 -17877227.74244  22669518.0474                   22669517.5004
 -74873451.58647 -55960667.97745  22437729.5004                   22437727.7464
 -12530349.46947  -8637400.27044  22498068.3364                   22498065.7384
 -58650889.98447 -44437823.66845  20600100.2504                   20600097.8984
    -29123.57446    142375.38743  23608485.7194                   23608487.7774
 -37372937.94946 -27880525.55143  23056953.2274                   23056954.1094
 -39066829.91447 -27749473.42645  20802371.9844                   20802367.5784
 11  8  1  0 58 30.0000000  0  9G10G28G09G17G12G04G05G27G02
 -28114042.98447 -21530156.68044  21301566.1094                   21301564.8404
 -90123942.20745 -64583867.14842  23931630.1414                   23931632.8134
 -25177106.16046 -17907399.18744  22662149.6724                   22662149.9384
 -74924835.87547 -56000707.69144  22427950.5004                   22427948.9384
 -12710853.86347  -8778053.02744  22463719.1174                   22463716.3204
 -58689735.53947 -44468092.93045  20592707.7974                   20592705.8164
   -230297.50046    -14383.31243  23570202.8364                   23570204.8324
 -37417906.29746 -27915565.87143  23048396.2344                   23048396.7974
 -39190439.64147 -27845792.67245  20778849.3284                   20778845.4534
 11  8  1  0 59  0.0000000  0  9G10G28G09G17G12G04G05G27G02
 -28260405.64847 -21644205.46544  21273714.2504                   21273713.2074
 -90121313.86745 -64581819.23442  23932129.6174                   23932132.3244
 -25215346.88346 -17937197.18044  22654872.5784                   22654872.2704
 -74976050.44947 -56040615.15644  22418205.0554                   22418203.1724
 -12891061.93446  -8918474.89544  22429425.8284                   22429424.3014
 -58728194.33647 -44498060.83645  20585389.2504                   20585387.5634
   -431357.52046   -171053.19943  23531942.6724                   23531944.7304
 -37462540.21546 -27950345.62943  23039902.0784                   23039903.3754
 -39313632.91047 -27941787.42645  20755406.9384                   20755402.4804
 11  8  1  0 59 30.0000000  0  9G10G28G09G17G12G04G05G27G02
 -28406200.18047 -21757811.55944  21245970.5704                   21245968.8794
 -90118404.48445 -64579552.27742  23932684.0944                   23932686.3714
 -25253111.61746 -17966624.30144  22647686.6024                   22647686.6054
 -75027095.00847 -56080390.13344  22408491.5084                   22408490.2734
 -13070970.89547  -9058663.70344  22395191.0234                   22395188.6414
 -58766268.97747 -44527729.38745  20578143.9534                   20578142.4064
   -632300.77646   -327632.09443  23493703.9614                   23493705.6254
 -37506842.39846 -27984866.89143  23031472.3914                   23031473.2704
 -39436410.53547 -28037458.27745  20732043.2424                   20732038.4964
 11  8  1  1  0  0.0000000  0  9G10G28G09G17G12G04G05G27G02
 -28551423.94147 -21870972.87545  21218335.5784                   21218333.5784
 -90115215.63745 -64577067.52742  23933289.5314                   23933293.4844
 -25290402.72346 -17995682.37943  22640590.1174                   22640589.8404
 -75077968.28947 -56120031.66844  22398810.4144                   22398809.4024
 -13250577.89147  -9198617.19544  22361012.9774                   22361011.1604
 -58803961.14147 -44557099.91845  20570971.3834                   20570970.0204
   -833123.89146   -484117.39843  23455488.6024                   23455490.1524
 -37550814.83246 -28019131.19943  23023104.6724                   23023105.0824
 -39558772.27347 -28132805.07045  20708757.8674                   20708754.0784
 11  8  1  1  0 30.0000000  0  9G10G28G09G17G12G04G05G27G02
 -28696075.18747 -21983688.08645  21190808.8674                   21190807.2814
 -90111749.80545 -64574367.04342  23933948.6484                   23933953.2304
 -25327224.45346 -18024374.66843  22633582.9614                   22633582.9454
 -75128670.98047 -56159540.24244  22389162.3594                   22389160.4844
 -13429881.32847  -9338334.16444  22326892.4224                   22326890.2114
 -58841274.46547 -44586175.25045  20563870.8204                   20563869.3524
  -1033825.14146   -640507.73843  23417296.1094                   23417297.7854
 -37594461.03146 -28053141.25043  23014799.6334                   23014799.6134
 -39680719.60547 -28227828.94945  20685552.4534                   20685548.3754
 11  8  1  1  1  0.0000000  0  9G10G28G09G17G12G04G05G27G02
 -28840151.89547 -22095955.61345  21163392.3054                   21163390.6174
 -90108009.54745 -64571452.68742  23934661.2274                   23934665.3834
 -25363580.14546 -18052703.83243  22626665.1024                   22626664.7974
 -75179202.32446 -56198915.29344  22379546.5784                   22379544.5704
 -13608879.20747  -9477813.03144  22292830.3444                   22292827.7894
 -58878211.31647 -44614957.22745  20556842.1954                   20556840.4454
  -1234402.02746   -796801.19143  23379127.3444                   23379129.3834
 -37637783.96946 -28086899.46143  23006554.9144                   23006555.8444
 -39802253.45747 -28322530.63345  20662425.1334                   20662421.2974
 11  8  1  1  1 30.0000000  0  9G10G28G09G17G12G04G05G27G02
 -28983652.54347 -22207774.25444  21136085.1254                   21136083.2814
 -90103997.71945 -64568326.69942  23935424.7974                   23935428.6604
 -25399474.00446 -18080673.14544  22619835.3134                   22619834.3364
 -75229563.60247 -56238157.84844  22369963.2814                   22369961.2304
 -13787569.77047  -9617052.42644  22258826.5474                   22258824.1994
 -58914775.21547 -44643448.58645  20549884.3444                   20549882.7704
  -1434852.44146   -952996.02343  23340982.6484                   23340984.7664
 -37680787.09046 -28120408.46943  22998372.2424                   22998373.0004
 -39923375.10247 -28416911.11345  20639376.8914                   20639372.6644
 11  8  1  1  2  0.0000000  0  9G10G28G09G17G12G04G05G27G02
 -29126575.71147 -22319142.90244  21108887.8914                   21108885.6174
 -90099716.82445 -64564991.00442  23936239.8754                   23936243.2114
 -25434909.98046 -18108285.65243  22613091.2034                   22613091.2624
 -75279754.68746 -56277267.77044  22360411.2974                   22360410.2114
 -13965950.91847  -9756050.71944  22224881.5944                   22224879.6994
 -58950969.19147 -44671651.71145  20542997.0704                   20542994.8094
  -1635174.28946  -1109090.70743  23302863.2194                   23302864.8014
 -37723473.73446 -28153670.87543  22990248.8284                   22990249.8634
 -40044085.71947 -28510971.32445  20616405.9304                   20616401.9734
 11  8  1  1  2 30.0000000  0  9G10G28G09G17G12G04G05G27G02
 -27693495.50447 -21202456.98044  21381593.8984                   21381592.8134
 -88519750.09445 -63333848.20742  24236897.7344                   24236901.2154
 -23894470.78546 -16907943.44943  22906228.0634                   22906227.2734
 -73754354.31247 -55088644.11344  22650685.8134                   22650684.2344
 -12568595.62147  -8667202.39845  22490789.7974                   22490787.6844
 -57411375.52047 -43471968.34445  20835971.7114                   20835970.1954
   -259939.02046    -37478.55143  23564560.3524                   23564562.8524
 -36190426.09846 -26959088.34843  23281978.6484                   23281978.7114
 -38588963.14547 -27377109.55945  20893306.6884                   20893302.8054
 11  8  1  1  3  0.0000000  0  9G10G28G09G17G12G04G05G27G02
 -27835258.80547 -21312921.84844  21354617.0234                   21354615.4774
 -88514939.02745 -63330099.41042  24237812.9064                   24237816.1334
 -23929001.77346 -16934850.78143  22899656.5084                   22899656.4024
 -73804205.19547 -55127488.92244  22641199.6334                   22641197.8834
 -12746352.87147  -8805714.52044  22456963.4384                   22456961.5004
 -57446838.71147 -43499602.00845  20829223.5704                   20829221.6684
   -459996.72746   -193367.43743  23526490.6414                   23526492.4064
 -36232489.46546 -26991865.03143  23273974.2194                   23273974.5664
 -38708855.43447 -27470532.09445  20870493.1804                   20870487.6094
 11  8  1  1  3 30.0000000  0  9G10G28G09G17G12G04G05G27G02
 -27976437.31247 -21422931.02345  21327751.6724                   21327749.8094
 -88509864.38745 -63326145.19942  24238778.3834                   24238781.8874
 -23963083.98846 -16961408.41443  22893170.5784                   22893170.4144
 -73853883.98046 -55166199.66844  22631745.7734                   22631744.0864
 -12923792.64847  -8943979.25845  22423198.1644                   22423195.7894
 -57481938.76247 -43526952.71545  20822544.2344                   20822542.5234
   -659916.92246   -349149.15643  23488446.9064                   23488448.4924
 -36274243.80946 -27024401.00843  23266028.9454                   23266029.1684
 -38828338.14147 -27563635.49245  20847753.7504                   20847750.8134
 11  8  1  1  4  0.0000000  0  9G10G28G09G17G12G04G05G27G02
 -28117028.73047 -21532482.73045  21300997.5634                   21300996.2194
 -88504528.148 5                  24239794.891
 -23996720.29346 -16987618.55943  22886770.8914                   22886770.2344
 -73903389.62146 -55204775.50044  22622325.8204                   22622323.4264
 -13100912.74247  -9081994.86344  22389492.8364                   22389490.7974
 -57516677.92647 -43554022.19945  20815933.2504                   20815931.6414
   -859696.47346   -504821.35243  23450430.5944                   23450431.3554
 -36315691.52346 -27056698.00043  23258141.2894                   23258141.7704
 -38947411.70347 -27656420.07445  20825096.0944                   20825092.3324
 11  8  1  1  4 30.0000000  0  9G10G28G09G17G12G04G05G27G02
 -28257032.15647 -21641576.25445  21274356.0704                   21274354.3914
 -88498933.602 5                  24240858.844
 -24029915.12146 -17013484.72343  22880453.2894                   22880453.6024
 -73952723.27046 -55243217.29344  22612936.9304                   22612935.2154
 -13277711.70347  -9219760.25045  22355849.8284                   22355847.1994
 -57551059.70347 -43580813.21145  20809390.8524                   20809389.3984
  -1059333.62946   -660382.52743  23412440.8134                   23412441.2734
 -36356836.59846 -27088759.18743  23250312.5474                   23250312.2934
 -39066077.83647 -27748887.18445  20802513.9924                   20802510.0394
 11  8  1  1  5  0.0000000  0  9G10G28G09G17G12G04G05G27G02
 -28396445.34447 -21750209.85545  21247825.9534                   21247824.9414
 -88493082.559 5                  24241972.883
 -24062671.82846 -17039009.46143  22874219.3834                   22874219.9924
 -74001884.55547 -55281524.80144  22603583.2734                   22603580.6054
 -13454186.64847  -9357273.16845  22322267.4064                   22322265.0944
 -57585086.47347 -43607327.58645  20802915.9304                   20802914.2774
  -1258825.69146   -815830.71543  23374478.7504                   23374479.2624
 -36397681.55546 -27120586.47743  23242538.4224                   23242540.0354
 -39184337.05947 -27841037.21545  20780010.8594                   20780006.9384
 11  8  1  1  5 30.0000000  0  9G10G28G09G17G12G04G05G27G02
 -28535267.20747 -21858382.68044  21221409.0704                   21221408.5744
 -88486978.25815                  24243134.516
 -24094994.77346 -17064196.22343  22868069.4224                   22868069.1954
 -74050874.17647 -55319698.53544  22594258.9694                   22594258.1844
 -13630336.93047  -9494533.08644  22288746.1414                   22288745.1684
 -57618762.08247 -43633568.33245  20796507.3444                   20796506.1254
  -1458170.97346   -971164.47743  23336544.4614                   23336545.5824
 -36438230.51246 -27152183.19543  23234823.7734                   23234824.0634
 -39302191.24647 -27932871.63746  20757583.6254                   20757580.0664
 11  8  1  1  6  0.0000000  0  9G10G28G09G17G12G04G05G27G02
 -28673495.63747 -21966093.10545  21195105.6254                   21195104.0594
 -88480623.027 5                  24244343.570
 -24126887.55546 -17089047.79343  22862000.4384                   22862000.0164
 -74099691.13746 -55357737.71944  22584970.5704                   22584968.2664
 -13806159.84847  -9631537.91044  22255289.2734                   22255286.9454
 -57652088.96947 -43659537.34445  20790165.7894                   20790163.9844
  -1657366.69946  -1126381.70343  23298638.0944                   23298639.7664
 -36478486.01646 -27183551.19543  23227163.6174                   23227163.4184
 -39419641.27347 -28024391.12945  20735233.7194                   20735230.3134
 11  8  1  1  6 30.0000000  0  9G10G28G09G17G12G04G05G27G02
 -28811129.82047 -22073340.47745  21168914.4144                   21168912.7704
 -88474020.004 5                  24245600.523
 -24158354.13346 -17113567.26643  22856011.6884                   22856012.7734
 -74148336.90646 -55395643.52344  22575713.8204                   22575712.3014
 -13981653.59447  -9768286.21545  22221893.5314                   22221891.7624
 -57685070.57847 -43685237.30545  20783889.5634                   20783887.7974
  -1856411.02346  -1281480.99243  23260761.1954                   23260761.8874
 -36518451.83646 -27214693.45343  23219557.6644                   23219558.1994
 -39536688.69147 -28115596.88345  20712960.6094                   20712956.2544
 11  8  1  1  7  0.0000000  0  9G10G28G09G17G12G04G05G27G02
 -28948167.39147 -22180122.94545  21142836.7734                   21142835.2274
 -88467170.617 4                  24246903.758
 -24189397.56546 -17137757.00143  22850104.1804                   22850104.8984
 -74196810.12946 -55433414.85944  22566489.3204                   22566487.2854
 -14156815.82847  -9904776.21945  22188561.3524                   22188559.3754
 -57717708.87147 -43710669.73845  20777678.6024                   20777677.1174
  -2055300.57046  -1436459.65643  23222913.6644                   23222914.2774
 -36558130.24646 -27245611.76243  23212007.1804                   23212007.5274
 -39653334.07447 -28206489.35945  20690763.3834                   20690759.3484
 11  8  1  1  7 30.0000000  0  9G10G28G09G17G12G04G05G27G02
 -29084606.76247 -22286439.28944  21116872.9064                   21116871.4654
 -88460078.047 5                  24248254.102
 -24220021.98846 -17161620.23443  22844277.4064                   22844277.8404
 -74245111.30946 -55471052.18444  22557297.8674                   22557296.6994
 -14331644.83647 -10041006.56245  22155292.1094                   22155290.0474
 -57750007.12947 -43735837.20745  20771532.4304                   20771530.5824
  -2254033.34046  -1591316.19143  23185095.1564                   23185097.3204
 -36597524.89846 -27276308.98043  23204510.6484                   23204511.7664
 -39769578.83647 -28297069.69145  20668643.1484                   20668638.8794
 11  8  1  1  8  0.0000000  0  9G10G28G09G17G12G04G05G27G02
 -29220446.60947 -22392288.47345  21091023.8754                   21091022.3874
 -88452744.551 5                  24249648.547
 -24250231.18746 -17185159.95743  22838528.9144                   22838528.9534
 -74293240.30146 -55508555.28544  22548138.8524                   22548137.6994
 -14506138.03547 -10176975.24245  22122087.2194                   22122085.2074
 -57781968.32047 -43760742.03145  20765450.7504                   20765447.9304
  -2452607.14846  -1746048.83643  23147307.8524                   23147309.6994
 -36636638.82046 -27306787.45743  23197068.3204                   23197068.5164
 -39885423.96947 -28387338.61345  20646598.3674                   20646594.6294
 11  8  1  1  8 30.0000000  0  9G10G28G09G17G12G04G05G27G02
 -29355685.77747 -22497669.60244  21065288.5394                   21065287.5514
 -88445173.234 5                  24251088.617
 -24280029.18046 -17208379.26643  22832858.8834                   22832858.8444
 -74341197.27046 -55545924.37944  22539013.4844                   22539011.9224
 -14680294.12147 -10312681.24245  22088946.3284                   22088944.0984
 -57813595.57847 -43785386.64845  20759431.9144                   20759430.7194
  -2651019.59446  -1900655.75843  23109551.5004                   23109553.0044
 -36675475.55546 -27337049.91043  23189677.6954                   23189677.8714
 -40000871.13747 -28477297.43045  20624629.6334                   20624625.4454
 11  8  1  1  9  0.0000000  0  8G10G09G17G12G04G05G27G02
 -29490322.57047 -22602581.34444  21039667.8594                   21039666.5944
 -24309419.74246 -17231281.04343  22827265.3914                   22827265.4104
 -74388982.46146 -55583159.60544  22529920.1724                   22529918.4494
 -14854111.08647 -10448122.96945  22055870.5474                   22055868.0554
 -57844891.79747 -43809773.30145  20753476.2114                   20753474.5274
  -2849268.37946  -2055135.14143  23071826.3444                   23071826.5634
 -36714038.24246 -27367098.79743  23182339.9534                   23182339.4304
 -40115921.33247 -28566946.91845  20602735.7974                   20602732.1724
 11  8  1  1  9 30.0000000  0  8G10G09G17G12G04G05G27G02
 -29624355.35947 -22707022.44545  21014162.6254                   21014160.8404
 -24338406.37946 -17253868.06243  22821749.2344                   22821749.5634
 -74436595.80146 -55620260.93444  22520859.7194                   22520857.9264
 -15027586.70347 -10583298.74245  22022858.8054                   22022856.2814
 -57875859.66047 -43833904.08645  20747583.5394                   20747581.8094
  -3047350.93746  -2209485.00843  23034132.1334                   23034132.8524
 -36752330.12946 -27396936.71143  23175053.0164                   23175053.2854
 -40230575.91447 -28656288.13745  20580917.2814                   20580914.0044
 11  8  1  1 10  0.0000000  0  8G10G09G17G12G04G05G27G02
 -29757776.64547 -22810987.04344  20988773.2664                   20988771.4924
 -24366987.21146 -17276138.94143  22816311.5164                   22816311.8164
 -74484031.05946 -55657223.49244  22511833.1484                   22511831.6024
 -15200712.68047 -10718202.06645  21989914.3364                   21989911.8204
 -57906495.98447 -43857776.54745  20741753.6414                   20741751.9964
  -3245258.82846  -2363698.76643  22996471.6254                   22996472.1724
 -36790348.34446 -27426561.35943  23167818.5234                   23167818.9534
 -40344829.55947 -28745316.93445  20559176.1954                   20559172.0274
 11  8  1  1 10 30.0000000  0  8G10G09G17G12G04G05G27G02
 -29890581.35247 -22914471.19144  20963501.3674                   20963499.6174
 -24395162.36346 -17298093.63743  22810949.5634                   22810949.0824
 -74531284.13746 -55694044.07444  22502840.7894                   22502838.7894
 -15373483.29747 -10852828.49245  21957036.7664                   21957034.1844
 -57936799.89147 -43881389.97345  20735987.0234                   20735984.7664
  -3442985.77346  -2517771.53544  22958844.7894                   22958846.1684
 -36828092.19946 -27455972.23043  23160635.1724                   23160636.5204
 -40458679.96147 -28834031.50445  20537511.3204                   20537507.2934
 11  8  1  1 11  0.0000000  0  8G10G09G17G12G04G05G27G02
 -28447343.84447 -21789870.50045  21238140.3914                   21238138.6644
 -22847514.91046 -16092134.61743  23105458.1024                   23105456.1214
 -73002934.55546 -54503122.35544  22793676.0234                   22793674.7344
 -13970471.30947  -9759572.35945  22224021.3364                   22224018.9534
 -56391353.68047 -42677146.17245  21030076.0554                   21030073.1564
  -2065103.35546  -1444096.73844  23221047.1334                   23221048.5434
 -35290144.32846 -26257571.35943  23453296.9534                   23453297.6914
 -38996704.95747 -27694830.18045  20815715.3054                   20815712.0314
 11  8  1  1 11 30.0000000  0  8G10G09G17G12G04G05G27G02
 -28578910.89147 -21892390.22744  21213103.9224                   21213102.3954
 -22874889.68446 -16113465.71943  23100248.0164                   23100248.2424
 -73049824.19147 -54539659.71144  22784753.1174                   22784751.8594
 -14142525.11347  -9893640.23444  22191280.6804                   22191278.3524
 -56421001.30547 -42700248.20345  21024434.0004                   21024431.7934
  -2262461.33646  -1597882.01243  23183491.4384                   23183492.0594
 -35327349.35546 -26286562.36743  23446217.7274                   23446218.3984
 -39109752.46147 -27782919.12946  20794203.7344                   20794199.5634
 11  8  1  1 12  0.0000000  0  8G10G09G17G12G04G05G27G02
 -28709860.21147 -21994428.62145  21188184.8134                   21188183.0004
 -22901873.32846 -16134492.00843  23095112.9534                   23095113.6214
 -73096535.00447 -54576057.75844  22775865.0394                   22775863.1764
 -14314220.60547 -10027428.91044  22158607.7734                   22158605.3204
 -56450328.48047 -42723100.53945  21018852.5314                   21018850.9184
  -2459634.37546  -1751523.15643  23145970.1564                   23145971.3484
 -35364292.94146 -26315349.66043  23439187.5474                   23439188.7974
 -39222403.61347 -27870699.22745  20772766.8364                   20772762.4414
 11  8  1  1 12 30.0000000  0  8G10G09G17G12G04G05G27G02
 -28840190.33647 -22095984.53945  21163384.0554                   21163382.2154
 -22928469.50846 -16155216.39143  23090052.1094                   23090052.8634
 -73143067.01247 -54612316.44544  22767010.1414                   22767008.0124
 -14485555.63347 -10160936.71545  22126003.8914                   22126001.6454
 -56479337.52347 -42745704.97745  21013332.9454                   21013331.2234
  -2656620.12146  -1905018.34443  23108484.6484                   23108485.2384
 -35400978.05946 -26343935.54343  23432206.6024                   23432207.8404
 -39334659.43747 -27958171.28145  20751405.0704                   20751401.0514
 11  8  1  1 13  0.0000000  0  8G10G09G17G12G04G05G27G02
 -28969899.62947 -22197056.66845  21138701.6724                   21138698.9414
 -22954681.75046 -16175641.59043  23085064.0784                   23085064.7934
 -73189419.81247 -54648435.50844  22758189.3054                   22758187.3444
 -14656528.09847 -10294161.98045  22093469.2894                   22093466.4184
 -56508031.40647 -42768063.82845  21007872.5784                   21007870.9734
  -2853415.31246  -2058365.08643  23071035.8134                   23071036.0634
 -35437407.78146 -26372322.43743  23425273.6954                   23425275.1844
 -39446520.88747 -28045336.02045  20730118.0944                   20730114.1604
 11  8  1  1 13 30.0000000  0  8G10G09G17G12G04G05G27G02
 -29098986.51647 -22297643.82045  21114136.1484                   21114134.9384
 -22980513.62546 -16195770.37143  23080149.1094                   23080148.9414
 -73235593.06647 -54684414.65244  22749403.2814                   22749400.6294
 -14827135.63747 -10427102.90645  22061002.8674                   22061000.9734
 -56536412.32847 -42790178.82845  21002471.7194                   21002469.8014
  -3050017.46146  -2211561.39843  23033624.2194                   23033623.7424
 -35473584.82846 -26400512.42643  23418389.4774                   23418390.5234
 -39557989.07047 -28132194.31646  20708907.0164                   20708902.7034
 11  8  1  1 14  0.0000000  0  8G10G09G17G12G04G05G27G02
 -29227448.52347 -22397744.04745  21089691.1484                   21089689.6024
 -23005967.60546 -16215604.71143  23075305.3134                   23075305.8714
 -73281585.66047 -54720253.03944  22740651.5084                   22740649.1604
 -14997374.46947 -10559756.51245  22028607.5704                   22028605.8094
 -56564482.18447 -42812051.43745  20997130.1484                   20997128.6914
  -3246422.90246  -2364604.42643  22996248.7114                   22996249.3404
 -35509511.31246 -26428507.16843  23411553.7734                   23411554.5664
 -39669063.77347 -28218746.00045  20687769.7114                   20687765.8364
 11  8  1  1 14 30.0000000  0  8G10G09G17G12G04G05G27G02
 -29355286.26247 -22497357.83245  21065364.3444                   21065362.6484
 -23031049.64546 -16235149.21143  23070531.3204                   23070532.0164
 -73327399.60946 -54755952.19144  22731932.8364                   22731930.5204
 -15167245.11747 -10692123.21145  21996282.6644                   21996280.5124
 -56592245.86747 -42833685.46545  20991846.8364                   20991845.2034
  -3442631.30546  -2517493.91044  22958911.2194                   22958912.1094
 -35545192.55146 -26456310.78543  23404764.2034                   23404764.6484
 -39779748.50447 -28304993.82445  20666707.9144                   20666703.3014
 11  8  1  1 15  0.0000000  0  8G10G09G17G12G04G05G27G02
 -29482499.53547 -22596485.01245  21041157.2194                   21041155.2504
 -23055764.58646 -16254407.66043  23065828.9614                   23065829.1994
 -73373035.69947 -54791512.77344  22723248.8284                   22723246.8874
 -15336746.42647 -10824202.13745  21964027.4774                   21964025.5204
 -56619706.97747 -42855083.72745  20986621.1254                   20986619.6054
  -3638641.28546  -2670228.77044  22921612.1094                   22921612.4024
 -35580632.65246 -26483926.54743  23398019.6804                   23398020.7304
 -39890045.32847 -28390939.37546  20645718.3134                   20645714.4344
 11  8  1  1 15 30.0000000  0  8G10G09G17G12G04G05G27G02
 -29609089.43447 -22695126.44945  21017067.1174                   21017065.2974
 -23080118.86746 -16273385.09443  23061195.7734                   23061194.4104
 -73418496.16047 -54826936.48044  22714598.3284                   22714596.1994
 -15505878.66447 -10955993.50045  21931842.6564                   21931840.2894
 -56646870.84447 -42876250.37945  20981452.0554                   20981450.6724
  -3834452.67246  -2822808.87544  22884349.3134                   22884351.2734
 -35615837.43446 -26511358.99243  23391319.8754                   23391321.8914
 -39999957.96147 -28476585.54745  20624803.0394                   20624798.5704
 11  8  1  1 16  0.0000000  0  8G10G09G17G12G04G05G27G02
 -29735052.77347 -22793279.66845  20993096.6564                   20993095.0984
 -23104114.33646 -16292082.96143  23056628.4924                   23056629.1414
 -73463779.29347 -54862222.04744  22705980.5394                   22705978.8204
 -15674637.57047 -11087493.93445  21899728.3284                   21899726.7894
 -56673738.14147 -42897185.93045  20976339.7114                   20976337.8594
  -4030060.99246  -2975230.77344  22847127.1334                   22847127.5704
 -35650807.93046 -26538608.78543  23384665.7424                   23384667.2154
 -40109486.09047 -28561932.10945  20603960.7504                   20603956.7304
 11  8  1  1 16 30.0000000  0  8G10G09G17G12G04G05G27G02
 -29860389.89847 -22890944.90645  20969245.6724                   20969244.3874
 -23127756.62146 -16310505.57843  23052129.4844                   23052130.2194
 -73508886.61746 -54897370.59844  22697396.8674                   22697395.1994
 -15843022.88347 -11218703.24245  21867685.9384                   21867684.1564
 -56700313.64847 -42917894.13345  20971281.9924                   20971280.8554
  -4225465.32046  -3127493.67244  22809942.7194                   22809942.2734
 -35685549.05946 -26565679.91043  23378054.9064                   23378056.3204
 -40218632.43047 -28646981.17246  20583190.4064                   20583185.8444
 11  8  1  1 17  0.0000000  0  8G10G09G17G12G04G05G27G02
 -29985099.50047 -22988121.16845  20945514.9454                   20945512.5394
 -23151048.69146 -16328655.31643  23047697.1804                   23047697.3404
 -73553817.34846 -54932381.57844  22688846.6954                   22688845.3794
 -16011032.12147 -11349619.51245  21835715.2194                   21835712.6644
 -56726599.24247 -42938376.42245  20966280.7814                   20966278.8014
  -4420662.73046  -3279595.39144  22772797.7974                   22772797.5164
 -35720063.55545 -26592574.43443  23371487.3754                   23371488.7854
 -40327397.21147 -28731732.90645  20562493.5704                   20562488.7894
 11  8  1  1 17 30.0000000  0  8G10G09G17G12G04G05G27G02
 -30109180.29747 -23084807.46145  20921902.9614                   20921900.9574
 -23173994.43746 -16346535.17243  23043330.3984                   23043331.0084
 -73598571.25046 -54967254.72744  22680330.1094                   22680329.0354
 -16178663.08647 -11480241.04345  21803816.0554                   21803814.0984
 -56752597.56247 -42958634.85945  20961333.2274                   20961331.6254
  -4615650.31646  -3431533.59044  22735692.7504                   22735692.7854
 -35754354.47746 -26619294.75043  23364961.6884                   23364963.8094
 -40435782.05947 -28816188.61745  20541867.9384                   20541864.1414
 11  8  1  1 18  0.0000000  0  8G10G09G17G12G04G05G27G02
 -30232630.61747 -23181002.47345  20898411.7274                   20898409.8484
 -23196597.37546 -16364147.88343  23039029.1884                   23039030.4144
 -73643148.09446 -55001989.92244  22671848.1094                   22671845.8014
 -16345913.22347 -11610565.82045  21771989.1884                   21771987.6214
 -56778311.34447 -42978671.59445  20956439.7894                   20956438.3094
  -4810425.46946  -3583306.25844  22698627.7344                   22698627.8794
 -35788424.81646 -26645843.16443  23358478.4924                   23358480.4224
 -40543787.62547 -28900348.76246  20521315.2584                   20521311.4454
 11  8  1  1 18 30.0000000  0  8G10G09G17G12G04G05G27G02
 -30355449.13347 -23276705.16045  20875039.1334                   20875037.3164
 -23218861.09446 -16381496.27343  23034793.3284                   23034793.5394
 -73687547.71946 -55036587.00843  22663398.5634                   22663396.5944
 -16512779.94547 -11740591.82845  21740236.1954                   21740233.3554
 -56803742.73847 -42998488.27045  20951600.2664                   20951598.5004
  -5004985.65246  -3734911.42644  22661604.1954                   22661604.2274
 -35822277.25046 -26672221.84043  23352036.9774                   23352038.2544
 -40651415.11347 -28984214.30945  20500834.7664                   20500830.6294
 11  8  1  1 19  0.0000000  0  8G10G09G17G12G04G05G27G02
 -30477633.53947 -23371913.73845  20851788.9774                   20851786.7034
 -23240788.36346 -16398582.52743  23030620.1254                   23030620.5314
 -73731768.71946 -55071044.91044  22654983.9774                   22654981.4104
 -16679260.80947 -11870317.16845  21708555.5704                   21708553.1054
 -56828893.75047 -43018086.48445  20946814.4304                   20946813.1254
  -5199327.18446  -3886346.19144  22624621.9304                   22624621.8834
 -35855914.24646 -26698432.58243  23345637.1484                   23345637.8634
 -40758665.07447 -29067785.67645  20480425.1254                   20480421.5234
 11  8  1  1 19 30.0000000  0  8G10G09G17G12G04G05G27G02
 -29023758.81247 -22239024.30945  21128451.7504                   21128449.6414
 -21686962.67646 -15187809.32043  23326303.7584                   23326304.1844
 -72200389.83646 -53877762.69544  22946395.4224                   22946393.7034
 -15269928.18047 -10772135.89145  21976742.2034                   21976740.3634
 -55278346.17647 -41809867.59445  21241873.8054                   21241872.4734
  -3818021.03946  -2810003.55143  22887475.8594                   22887475.3834
 -34313917.81246 -25496877.02343  23639068.3524                   23639069.4734
 -39290115.01647 -27923460.93045  20759881.2734                   20759877.0984
 11  8  1  1 20  0.0000000  0  8G10G09G17G12G04G05G27G02
 -29144671.48847 -22333241.92645  21105442.8284                   21105441.0554
 -21708228.36346 -15204380.03543  23322257.2584                   23322257.3914
 -72244252.68046 -53911941.51244  22938047.6334                   22938046.3834
 -15435630.07447 -10901254.25045  21945210.6724                   21945208.1804
 -55302943.96547 -41829034.71945  21237193.0474                   21237191.3484
  -4011917.16446  -2961091.31244  22850578.7734                   22850577.8244
 -34347132.66446 -25522758.85943  23632748.0474                   23632748.7234
 -39396612.76247 -28006446.16845  20739615.2034                   20739611.5044
 11  8  1  1 20 30.0000000  0  8G10G09G17G12G04G05G27G02
 -29264948.30547 -22426964.06645  21082555.0004                   21082552.8554
 -21729170.16446 -15220698.37143  23318272.1564                   23318272.3014
 -72287938.31646 -53945982.26644  22929735.2194                   22929733.6374
 -15600940.67247 -11030067.70345  21913753.1334                   21913750.3244
 -55327270.58647 -41847990.55145  21232564.1484                   21232562.4304
  -4205588.20746  -3112003.62544  22813724.2034                   22813723.6524
 -34380142.76246 -25548481.16443  23626466.1024                   23626468.1334
 -39502737.71947 -28089140.92246  20719420.9384                   20719416.4844
 11  8  1  1 21  0.0000000  0  8G10G09G17G12G04G05G27G02
 -29384588.19947 -22520189.91845  21059788.7194                   21059786.3324
 -21749792.12546 -15236767.51243  23314347.4534                   23314348.6764
 -72331446.25446 -53979884.52044  22921456.8754                   22921453.9024
 -15765858.03947 -11158574.73845  21882370.2114                   21882368.0904
 -55351328.87147 -41866737.27345  21227985.9534                   21227983.9454
  -4399031.76646  -3262738.71944  22776912.1804                   22776912.6254
 -34412951.36746 -25574046.48843  23620223.3834                   23620225.3554
 -39608491.20347 -28171546.19946  20699295.8674                   20699292.2934
 11  8  1  1 21 30.0000000  0  8G10G09G17G12G04G05G27G02
 -29503590.91047 -22612919.26245  21037142.3594                   21037140.5984
 -21770098.93446 -15252591.06643  23310484.2344                   23310483.7584
 -72374777.03146 -54013648.70744  22913210.5634                   22913208.3014
 -15930380.67247 -11286774.17245  21851062.7114                   21851059.8054
 -55375122.01647 -41885277.38345  21223457.9224                   21223456.2114
  -4592245.97746  -3413295.05944  22740145.5164                   22740144.6644
 -34445562.39846 -25599457.76643  23614018.0084                   23614019.6644
 -39713875.43447 -28253663.75846  20679241.9844                   20679238.2304
 11  8  1  1 22  0.0000000  0  8G10G09G17G12G04G05G27G02
 -29621952.78947 -22705149.26645  21014619.2194                   21014617.2344
 -21790091.50446 -15268169.73843  23306679.0314                   23306679.4064
 -72417927.66446 -54047272.54743  22904999.5474                   22904996.9534
 -16094503.92647 -11414662.39145  21819830.7424                   21819828.5864
 -55398650.10947 -41903610.96545  21218980.8284                   21218978.9804
  -4785225.49246  -3563668.53544  22703422.4924                   22703422.0944
 -34477976.30146 -25624715.49643  23607849.4774                   23607851.1954
 -39818888.60547 -28335492.16445  20659258.9614                   20659254.5204
 11  8  1  1 22 30.0000000  0  8G10G09G17G12G04G05G27G02
 -29739672.60547 -22796878.94545  20992217.3204                   20992215.6094
 -21809773.53946 -15283506.45743  23302933.9304                   23302934.2424
 -72460897.89846 -54080755.80944  22896822.6804                   22896820.5824
 -16258225.37947 -11542237.52045  21788676.1024                   21788673.4964
 -55421915.71547 -41921740.00845  21214553.6884                   21214552.0234
  -4977967.47346  -3713856.95344  22666744.5944                   22666744.2424
 -34510196.23846 -25649822.02743  23601718.5314                   23601719.6054
 -39923532.07447 -28417032.50446  20639345.9694                   20639341.8484
 11  8  1  1 23  0.0000000  0  8G10G09G17G12G04G05G27G02
 -29856749.84447 -22888107.91045  20969938.4774                   20969936.5864
 -21829149.34046 -15298604.54343  23299247.2274                   23299247.2504
 -72503688.27046 -54114098.92643  22888678.6094                   22888677.7934
 -16421543.46947 -11669498.31645  21757597.2034                   21757594.9694
 -55444921.86347 -41939666.86745  21210175.6804                   21210173.8244
  -5170469.85546  -3863858.65644  22630112.3524                   22630112.0864
 -34542225.60546 -25674780.14543  23595623.5944                   23595624.7584
 -40027807.84447 -28498286.31246  20619502.7664                   20619498.6484
 11  8  1  1 23 30.0000000  0  8G10G09G17G12G04G05G27G02
 -29973184.84047 -22978836.42245  20947781.2424                   20947779.6604
 -21848223.89846 -15313467.89843  23295616.6724                   23295617.5394
 -72546299.97346 -54147302.82044  22880570.6564                   22880569.2304
 -16584456.97747 -11796443.84445  21726595.4694                   21726593.2274
 -55467672.28147 -41957394.46945  21205846.9384                   21205844.6994
  -5362731.41046  -4013672.71144  22593526.2034                   22593525.9104
 -34574068.73445 -25699593.10243  23589564.2504                   23589565.8754
 -40131718.01647 -28579255.25846  20599729.3364                   20599725.3324
 11  8  1  1 24  0.0000000  0  8G10G09G17G12G04G05G27G02
 -30088976.36747 -23069063.55145  20925747.6024                   20925745.5084
 -21867000.83646 -15328099.35943  23292043.7664                   23292044.6374
 -72588732.29346 -54180366.95344  22872496.2894                   22872494.9964
 -16746963.96147 -11923072.60245  21695671.6644                   21695669.4184
 -55490169.70347 -41974924.90245  21201565.2504                   21201563.3484
  -5554749.25846  -4163296.84044  22556985.7504                   22556986.1134
 -34605728.70745 -25724263.37943  23583538.4614                   23583541.4964
 -40235263.87147 -28659940.30546  20580025.4614                   20580021.3444
 11  8  1  1 24 30.0000000  0  8G10G09G17G12G04G05G27G02
 -30204122.51647 -23158787.78145  20903835.4924                   20903833.8594
 -21885482.79746 -15342500.95343  23288527.3444                   23288527.2194
 -72630983.89546 -54213290.26243  22864455.8524                   22864454.2814
 -16909060.90647 -12049381.84445  21664825.2974                   21664823.5944
 -55512415.02347 -41992258.91045  21197332.0864                   21197330.1684
  -5746519.62546  -4312728.14844  22520493.5944                   22520492.9414
 -34637207.27046 -25748792.28943  23577549.2814                   23577551.3404
 -40338445.41047 -28740341.48046  20560390.6804                   20560386.2814
 11  8  1  1 25  0.0000000  0  8G10G09G17G12G04G05G27G02
 -30318630.78147 -23248014.94945  20882045.6884                   20882043.7154
 -21903681.71146 -15356681.98043  23285064.4224                   23285063.8164
 -72673063.30146 -54246079.38744  22856447.7894                   22856446.7074
 -17070754.10947 -12175376.47745  21634056.8364                   21634053.8204
 -55534419.32047 -42009405.09845  21193144.9064                   21193142.9144
  -5938048.24646  -4461971.09444  22484046.7194                   22484046.2734
 -34668515.89846 -25773188.69943  23571592.1094                   23571593.8444
 -40441272.14847 -28820466.17646  20540823.3594                   20540819.2424
 11  8  1  1 25 30.0000000  0  8G10G09G17G12G04G05G27G02
 -30432498.60247 -23336743.06645  20860377.2194                   20860374.9494
 -21921599.73446 -15370644.19543  23281654.3134                   23281654.6524
 -72714967.94946 -54278732.32444  22848474.2424                   22848472.3484
 -17232039.94947 -12301053.69145  21603364.5554                   21603361.8284
 -55556183.71147 -42026364.34445  21189002.7114                   21189001.3014
  -6129330.74646  -4611022.23844  22447647.4774                   22447646.4224
 -34699656.17246 -25797454.03143  23565665.4064                   23565667.7544
 -40543743.78947 -28900314.17646  20521323.7974                   20521319.3094
 11  8  1  1 26  0.0000000  0  8G10G09G17G12G04G05G27G02
 -30545721.25847 -23424968.47745  20838831.9844                   20838829.8404
 -21939237.17646 -15384387.73043  23278297.5004                   23278299.1294
 -72756694.73446 -54311246.69544  22840534.1334                   22840532.0664
 -17392912.37947 -12426408.77745  21572751.9064                   21572749.3244
 -55577706.83647 -42043135.59045  21184907.2274                   21184905.1564
  -6320360.70346  -4759876.62144  22411295.1024                   22411294.4384
 -34730627.43746 -25821587.60942  23559772.1484                   23559774.3484
 -40645857.80547 -28979883.51246  20501891.9534                   20501887.6644
 11  8  1  1 26 30.0000000  0  8G10G09G17G12G04G05G27G02
 -30658300.61347 -23512692.59845  20817408.3364                   20817406.4614
 -21956600.00446 -15397917.30543  23274994.4844                   23274995.5234
 -72798245.41446 -54343623.84444  22832627.1414                   22832625.3754
 -17553371.78947 -12551442.02745  21542217.1954                   21542214.7074
 -55598993.86747 -42059722.87145  21180856.6644                   21180854.7274
  -6511138.22346  -4908534.30544  22374990.8754                   22374990.1214
 -34761435.39845 -25845593.92242  23553910.0234                   23553912.2194
 -40747618.14847 -29059177.25846  20482527.3834                   20482522.9144
 11  8  1  1 27  0.0000000  0  8G10G09G17G12G04G05G27G02
 -30770235.12147 -23599914.25045  20796107.7194                   20796105.0004
 -21973691.52746 -15411235.47743  23271742.3524                   23271743.0434
 -72839618.87146 -54375862.90644  22824754.1334                   22824752.2274
 -17713415.30147 -12676151.18445  21511761.3594                   21511759.6644
 -55620046.43747 -42076127.45345  21176850.4844                   21176848.3554
  -6701659.81246  -5056992.51644  22338735.8914                   22338735.3914
 -34792082.18045 -25869474.66442  23548077.6644                   23548080.4064
 -40849025.32447 -29138195.81246  20463230.7114                   20463226.0314
 11  8  1  1 27 30.0000000  0  9G10G25G09G17G12G04G05G27G02
 -30881517.63747 -23686627.85245  20774931.4384                   20774929.6954
  15395707.69116                  24356128.938
 -21990508.87146 -15424339.99643  23268541.2194                   23268542.6844
 -72880809.05146 -54407959.12144  22816916.2664                   22816913.9064
 -17873034.49247 -12800529.72345  21481387.0864                   21481384.6294
 -55640860.52747 -42092346.20345  21172889.7194                   21172887.8524
  -6891916.28947  -5205244.23444  22302532.1954                   22302529.9304
 -34822564.46546 -25893227.21942  23542278.1254                   23542279.5044
 -40950073.75847 -29216934.82446  20444001.2584                   20443997.0274
 11  8  1  1 28  0.0000000  0  9G10G25G09G17G12G04G05G27G02
 -29416725.78147 -22545231.55545  21053671.7194                   21053670.0594
  16775816.969 6                  24618754.070
 -20431637.21946 -14209634.90643  23565185.0864                   23565185.6524
 -71346396.20346 -53212312.73844  23108905.2974                   23108903.1914
 -16456803.58247 -11696973.13745  21750887.5554                   21750884.5864
 -54086020.18747 -40880782.28945  21468765.8754                   21468763.9534
  -5506480.55146  -4125683.80544  22566171.3364                   22566169.5004
 -33277466.30946 -24689254.77043  23836300.9534                   23836302.7854
 -39475343.67647 -28067794.47746  20724633.2194                   20724628.8404
 11  8  1  1 28 30.0000000  0  9G10G25G09G17G12G04G05G27G02
 -29526706.96147 -22630931.12545  21032743.6334                   21032741.7234
  16580661.262 5                  24581616.969
 -20447922.35946 -14222324.75043  23562086.2974                   23562086.9734
 -71387223.66046 -53244126.33644  23101135.9774                   23101134.1764
 -16615572.20347 -11820688.92245  21720674.8984                   21720672.1954
 -54106370.16047 -40896639.40645  21464893.3984                   21464891.7154
  -5696203.91446  -4273520.06644  22530067.5704                   22530066.3634
 -33307633.94146 -24712762.12143  23830559.3914                   23830562.6604
 -39575684.04747 -28145981.75046  20705539.0084                   20705534.5204
 11  8  1  1 29  0.0000000  0  9G10G25G09G17G12G04G05G27G02
 -29636037.05947 -22716123.36345  21011938.0784                   21011936.5704
  16385669.148 6                  24544511.141
 -20463947.57446 -14234812.00043  23559036.1254                   23559037.3444
 -71427869.98446 -53275798.77344  23093401.1414                   23093399.0354
 -16773913.14847 -11944071.44545  21690542.9774                   21690540.9264
 -54126492.34847 -40912319.02745  21461064.4144                   21461062.0554
  -5885657.78546  -4421146.31244  22494015.4774                   22494014.4534
 -33337649.65246 -24736151.11343  23824847.9534                   23824850.3444
 -39675672.96547 -28223895.16845  20686511.7814                   20686507.7114
 11  8  1  1 29 30.0000000  0  9G10G25G09G17G12G04G05G27G02
 -29744716.75047 -22800808.80145  20991257.5004                   20991255.1334
  16190841.207 5                  24507436.781
 -20479718.41446 -14247101.07443  23556035.9384                   23556037.3874
 -71468336.47346 -53307331.07844  23085698.9384                   23085698.7544
 -16931825.77347 -12067120.22745  21660493.8134                   21660490.6954
 -54146391.03947 -40927824.48445  21457277.8674                   21457275.7664
  -6074840.67646  -4568561.44144  22458015.7194                   22458014.4534
 -33367518.09845 -24759425.37142  23819164.5554                   23819166.3014
 -39775313.37947 -28301537.02046  20667550.6644                   20667546.6804
 11  8  1  1 30  0.0000000  0  9G10G25G09G17G12G04G05G27G02
 -29852743.79347 -22884985.68045  20970700.5394                   20970698.3794
  15996181.629 5                  24470393.734
 -20495236.74646 -14259193.39543  23553083.2584                   23553084.5124
 -71508621.30946 -53338721.85944  23078034.1724                   23078032.8134
 -17089305.84447 -12189831.96145  21630525.8834                   21630523.2584
 -54166066.32847 -40943155.87945  21453533.6564                   21453532.1804
  -6263747.99646  -4715761.83244  22422067.2664                   22422065.8634
 -33397240.41845 -24782585.82042  23813508.8364                   23813510.2384
 -39874604.46547 -28378906.68046  20648656.0634                   20648651.8634
 11  8  1  1 30 30.0000000  0  9G10G25G09G17G12G04G05G27G02
 -29960117.90647 -22968653.77745  20950267.6724                   20950265.6914
  15801692.227 5                  24433384.273
 -20510506.70746 -14271092.16843  23550177.9694                   23550177.4454
 -71548724.84046 -53369971.39144  23070403.0084                   23070401.0164
 -17246352.05147 -12312205.59845  21600640.6484                   21600638.5904
 -54185521.37947 -40958315.63345  21449830.9844                   21449829.6604
  -6452377.76246  -4862745.93044  22386171.2504                   22386170.9884
 -33426820.19546 -24805635.04343  23807879.8134                   23807881.5204
 -39973547.98847 -28456005.50446  20629827.9614                   20629823.4024
 11  8  1  1 31  0.0000000  0  9G10G25G09G17G12G04G05G27G02
 -30066837.17647 -23051811.60245  20929959.7894                   20929958.0274
  15607376.637 5                  24396407.469
 -20525530.28146 -14282798.96543  23547318.6484                   23547319.1214
 -71588644.75446 -53401077.82044  23062806.5164                   23062804.0904
 -17402960.97747 -12434238.49645  21570839.2194                   21570837.2464
 -54204757.12947 -40973304.49645  21446170.8754                   21446169.0784
  -6640725.62946  -5009510.37944  22350330.4844                   22350329.9774
 -33456258.86345 -24828574.36343  23802278.0084                   23802280.5354
 -40072143.85247 -28532833.43045  20611066.0164                   20611061.0474
 11  8  1  1 31 30.0000000  0  9G10G25G09G17G12G04G05G27G02
 -30172902.55947 -23134459.92245  20909776.5394                   20909774.2734
  15413235.566 6                  24359463.719
 -20540313.04346 -14294318.07443  23544505.1724                   23544506.7584
 -71628382.59046 -53432042.33644  23055245.0314                   23055242.5314
 -17559131.94947 -12555930.13745  21541121.4534                   21541118.4774
 -54223777.68447 -40988125.71145  21442550.8524                   21442549.3324
  -6828790.57446  -5156054.37144  22314542.9694                   22314542.2074
 -33485561.02345 -24851407.41442  23796702.2034                   23796704.9734
 -40170394.77047 -28609392.56645  20592369.1564                   20592364.9964
 11  8  1  1 32  0.0000000  0  9G10G25G09G17G12G04G05G27G02
 -30278311.76647 -23216596.92245  20889717.4844                   20889715.3914
  15219272.898 6                  24322553.219
 -20554857.01246 -14305651.15243  23541738.2344                   23541738.6804
 -71667936.48446 -53462863.52743  23047718.7504                   23047715.9774
 -17714860.93447 -12677277.39845  21511486.7814                   21511484.0354
 -54242583.69147 -41002779.72745  21438972.3984                   21438970.7774
  -7016568.21146  -5302374.47344  22278809.7974                   22278809.0904
 -33514728.37145 -24874135.36342  23791151.1414                   23791154.3054
 -40268300.32047 -28685682.58246  20573738.5394                   20573733.9144
 11  8  1  1 32 30.0000000  0  9G10G25G09G17G12G04G05G27G02
 -30383064.88747 -23298222.68445  20869783.8524                   20869781.6414
  15025489.99246  13474446.85953  24285677.3054                   24285679.5044
 -20569166.52346 -14316801.48843  23539014.8204                   23539015.3594
 -71707307.54746 -53493542.27343  23040225.7814                   23040223.7074
 -17870146.77347 -12798279.32845  21481936.6884                   21481934.0554
 -54261178.55947 -41017269.22345  21435434.6804                   21435432.9494
  -7204057.23846  -5448469.67644  22243131.2584                   22243130.3874
 -33543764.69145 -24896761.21142  23785627.1484                   23785629.0634
 -40365862.85547 -28761705.31646  20555172.9064                   20555168.7624
 11  8  1  1 33  0.0000000  0  9G10G25G09G17G12G04G05G27G02
 -30487162.67647 -23379337.80145  20849974.6024                   20849972.0474
  14831888.17646  13323588.35242  24248836.8284                   24248839.0354
 -20583246.64146 -14327773.11743  23536335.1954                   23536335.8484
 -71746496.32046 -53524078.96543  23032767.6484                   23032766.4454
 -18024988.44547 -12918935.14545  21452471.0474                   21452468.4774
 -54279565.55147 -41031596.72345  21431935.5554                   21431933.2544
  -7391255.57446  -5594338.39144  22207509.2974                   22207507.9304
 -33572674.00445 -24919288.12143  23780126.1484                   23780128.1174
 -40463084.91047 -28837462.75046  20536672.2344                   20536667.4804
 11  8  1  1 33 30.0000000  0  9G10G25G09G17G12G04G05G27G02
 -30590604.44147 -23459941.73445  20830290.3524                   20830287.6414
  14638469.94146  13172872.88342  24212029.6884                   24212033.1954
 -20597100.40246 -14338568.34843  23533699.3134                   23533700.2074
 -71785501.53146 -53554472.64143  23025345.7504                   23025344.2544
 -18179383.44547 -13039242.90645  21423091.0164                   21423088.7344
 -54297746.63347 -41045763.77745  21428475.4844                   21428474.0594
  -7578160.30546  -5739978.31644  22171941.8984                   22171941.4144
 -33601458.91045 -24941718.07042  23774647.5634                   23774650.8794
 -40559967.44147 -28912955.61746  20518236.2194                   20518231.6914
 11  8  1  1 34  0.0000000  0  9G10G25G09G17G12G04G05G27G02
 -30693386.58247 -23540031.66845  20810731.4614                   20810728.7274
  14445240.71946  13022304.75043  24175259.7114                   24175262.7544
 -20610728.80546 -14349187.99243  23531106.8364                   23531107.0474
 -71824320.89546 -53584721.46143  23017958.7664                   23017956.8594
 -18333326.66047 -13159198.62145  21393796.8364                   21393793.9304
 -54315721.16447 -41059769.90644  21425054.9774                   21425053.5474
  -7764765.78546  -5885385.06244  22136431.8054                   22136431.1884
 -33630119.71545 -24964051.28142  23769193.8054                   23769195.9694
 -40656508.00847 -28988181.99645  20499865.6644                   20499860.4384
 11  8  1  1 34 30.0000000  0  9G10G25G09G17G12G04G05G27G02
 -30795505.68447 -23619604.94945  20791298.1884                   20791296.3714
  14252205.62546  12871887.84043  24138526.5004                   24138529.4414
 -20624132.56246 -14359632.61743  23528555.0084                   23528556.1524
 -71862950.65246 -53614822.56643  23010606.8594                   23010605.6994
 -18486813.18047 -13278798.46145  21364588.6954                   21364586.5904
 -54333488.73047 -41073614.73045  21421674.2114                   21421672.0784
  -7951066.24646  -6030554.13344  22100980.0554                   22100979.2664
 -33658656.31246 -24986287.78942  23763763.1564                   23763765.8164
 -40752705.24247 -29063140.87146  20481559.4304                   20481554.5394
 11  8  1  1 35  0.0000000  0  9G10G25G09G17G12G04G05G27G02
 -30896956.49247 -23698657.47745  20771993.4534                   20771990.7234
  14059371.77046  12721627.78943  24101831.7194                   24101833.4224
 -20637310.40245 -14369901.15642  23526047.8364                   23526049.3794
 -71901385.87146 -53644772.05943  23003293.5394                   23003291.2154
 -18639836.07847 -13398037.05945  21335469.7504                   21335467.3594
 -54351046.76247 -41087296.28945  21418333.1564                   21418331.2034
  -8137054.40646  -6175479.86344  22065587.0314                   22065586.4734
 -33687067.17245 -25008426.31242  23758356.7344                   23758359.4844
 -40848556.14847 -29137829.86746  20463319.5234                   20463314.9384
 11  8  1  1 35 30.0000000  0  9G10G25G09G17G12G04G05G27G02
 -30997743.65247 -23777192.89845  20752814.1884                   20752811.5234
  13866736.80146  12571522.62143  24065174.2274                   24065176.1414
 -20650270.90246 -14380000.35243  23523582.2734                   23523583.1804
 -71939631.43046 -53674573.78143  22996016.2274                   22996013.4734
 -18792398.28147 -13516916.66045  21306438.5314                   21306435.8404
 -54368402.46147 -41100820.19945  21415030.4774                   21415028.2854
  -8322732.47747  -6320163.96544  22030254.6334                   22030253.5474
 -33715359.89145 -25030472.80542  23752972.9144                   23752976.2774
 -40944066.30547 -29212253.33646  20445144.2814                   20445139.8874
 11  8  1  1 36  0.0000000  0  9G10G25G09G17G12G04G05G27G02
 -31097874.66447 -23855217.01245  20733759.5084                   20733757.1094
  13674295.01646  12421568.03143  24028554.2344                   24028555.4734
 -20663025.52746 -14389939.14143  23521154.3204                   23521155.7894
 -71977694.45346 -53704233.26243  22988772.7274                   22988770.6914
 -18944505.39147 -13635441.64145  21277493.0084                   21277490.4494
 -54385566.06247 -41114194.40645  21411764.7344                   21411762.0824
  -8508105.67246  -6464610.50444  21994979.3364                   21994977.7304
 -33743545.44145 -25052435.77342  23747610.4384                   23747612.7774
 -41039245.00847 -29286418.53945  20427032.6334                   20427027.7424
 11  8  1  1 36 30.0000000  0  9G10G25G09G17G12G04G05G27G02
 -29621923.14147 -22705124.87145  21014623.7194   21014621.7034   15057477.99246
  13499372.96143                  24291764.3674                   24291766.2034
 -19100154.84046 -13172117.91443  23818559.5944                   23818560.3714
 -70440150.89846 -52506147.38743  23281357.3984                   23281355.7624
 -17520727.46547 -12526004.27345  21548428.3914                   21548426.2664
 -52827116.58247 -39899818.17244  21708326.4694                   21708325.4614
  -7117742.72346  -5381210.67644  22259555.9454                   22259555.0864
 -32196203.43045 -23846714.82842  24042059.8364                   24042062.4494
 -39558667.90247 -28132722.06245  20708776.9384                   20708772.2074
 11  8  1  1 37  0.0000000  0  9G10G25G09G17G12G04G05G27G02
 -29720734.57047 -22782120.73045  20995820.6334   20995818.1644   14865435.80146
  13349729.64543                  24255219.8054                   24255222.0234
 -19112502.66046 -13181739.71943  23816210.8134                   23816210.5084
 -70477842.60946 -52535517.51643  23274185.2504                   23274182.7664
 -17671912.01647 -12643810.37945  21519658.9384                   21519656.8714
 -52843896.63347 -39912893.53545  21705134.0634                   21705132.0044
  -7302492.09446  -5525171.13344  22224399.3284                   22224398.4344
 -32224177.83245 -23868513.22742  24036736.7344                   24036739.6174
 -39653181.80147 -28206369.21946  20690791.4144                   20690786.9264
 11  8  1  1 37 30.0000000  0  9G10G25G09G17G12G04G05G27G02
 -29818885.27347 -22858601.76645  20977143.1484   20977140.6644   14673597.85545
  13200245.55142                  24218713.8444                   24218716.8244
 -19124651.80146 -13191206.69943  23813898.9534                   23813898.5904
 -70515347.39546 -52564742.02343  23267048.9224                   23267046.0394
 -17822631.27747 -12761253.93445  21490978.4304                   21490975.9804
 -52860487.46147 -39925821.44145  21701976.4844                   21701974.6644
  -7486924.30546  -5668884.43744  22189303.1564                   22189301.6564
 -32252050.25045 -23890232.19142  24031433.6484                   24031435.8874
 -39747364.30147 -28279758.15246  20672869.3134                   20672864.6914
 11  8  1  1 38  0.0000000  0  9G10G25G09G17G12G04G05G27G02
 -29916373.72747 -22934566.75445  20958592.0084   20958589.4654   14481967.62145
  13050923.32442                  24182247.5234                   24182250.4144
 -19136604.88346 -13200520.88743  23811623.9064                   23811624.8554
 -70552663.90646 -52593819.84043  23259946.8984                   23259944.5354
 -17972882.46547 -12878332.73445  21462386.5704                   21462383.7234
 -52876890.27747 -39938602.85545  21698855.5394                   21698853.8204
  -7671035.85946  -5812347.89144  22154267.9304                   22154266.3554
 -32279822.44945 -23911873.00842  24026147.7424                   24026151.9694
 -39841215.36747 -28352888.81246  20655010.3054                   20655005.6914
 11  8  1  1 38 30.0000000  0  9G10G25G09G17G12G04G05G27G02
 -30013202.56647 -23010017.75445  20940165.5394   20940163.3834   14290544.57845
  12901762.58242                  24145821.6804                   24145824.5234
 -19148368.18746 -13209687.19143  23809384.3594                   23809386.4884
 -70589794.74646 -52622752.94143  23252881.2734                   23252879.3324
 -18122666.09447 -12995047.22745  21433882.8754                   21433880.4104
 -52893110.13347 -39951241.67644  21695768.7894                   21695766.8444
  -7854827.16847  -5955561.79344  22119293.7274                   22119291.8594
 -32307500.32845 -23933440.40642  24020882.0554                   24020884.2894
 -39934739.26647 -28425764.53546  20637212.3754                   20637208.0164
 11  8  1  1 39  0.0000000  0  9G10G25G09G17G12G04G05G27G02
 -30109370.04747 -23084953.41445  20921865.3754   20921863.3524   14099332.50845
  12752766.24242                  24109435.2114                   24109438.3554
 -19159944.07846 -13218707.49243  23807181.8674                   23807183.6884
 -70626738.32846 -52651540.12144  23245851.9924                   23245849.4964
 -18271978.90647 -13111394.84845  21405469.7664                   21405467.1644
 -52909147.97347 -39963738.67645  21692716.5944                   21692715.3284
  -8038293.94547  -6098522.81645  22084380.5004                   22084379.3874
 -32335085.57445 -23954935.62542  24015632.5634                   24015634.3914
 -40027936.19147 -28498385.46945  20619477.6334                   20619473.6334
 11  8  1  1 39 30.0000000  0  9G10G25G09G17G12G04G05G27G02
 -30204875.31647 -23159373.06645  20903691.4534   20903688.8094   13908334.64545
  12603936.89142                  24073089.7504                   24073092.4384
 -19171335.55146 -13227584.09443  23805014.6724                   23805015.8204
 -70663493.51246 -52680180.50443  23238855.9844                   23238855.0984
 -18420817.68047 -13227373.08645  21377147.3284                   21377144.4734
 -52925005.12547 -39976094.89145  21689699.7734                   21689697.7154
  -8221432.66446  -6241228.22744  22049530.0554                   22049528.7814
 -32362580.23845 -23976360.22742  24010399.6884                   24010403.3404
 -40120806.30147 -28570751.75046  20601804.7974                   20601800.8054
 11  8  1  1 40  0.0000000  0  9G10G25G09G17G12G04G05G27G02
 -30299716.52347 -23233275.25445  20885644.0004   20885641.5594   13717554.99246
  12455277.47342                  24036785.3914                   24036787.7274
 -19182544.49246 -13236318.44543  23802881.4774                   23802883.4774
 -70700058.37546 -52708672.57043  23231897.9614                   23231896.7464
 -18569178.98447 -13342979.26645  21348915.0944                   21348912.3834
 -52940682.13747 -39988310.74645  21686716.2664                   21686714.1254
  -8404239.14846  -6383674.72744  22014743.7734                   22014742.3484
 -32389985.60245 -23997715.18042  24005185.6804                   24005188.0514
 -40213349.34847 -28642863.16845  20584194.7424                   20584190.1994
 11  8  1  1 40 30.0000000  0  9G10G25G09G17G12G04G05G27G02
 -30393895.18447 -23306661.18045  20867721.8524   20867719.5124   13526994.31646
  12306788.70742                  24000523.1644                   24000524.5594
 -19193575.87546 -13244914.42243  23800782.5234                   23800784.3914
 -70736434.21946 -52737017.35943  23224975.7194                   23224974.3874
 -18717062.64547 -13458213.25045  21320773.0554                   21320770.8484
 -52956183.02047 -40000389.32844  21683766.1884                   21683764.8834
  -8586712.63746  -6525861.77044  21980019.6644                   21980018.6294
 -32417306.27045 -24019004.25842  23999987.6804                   23999989.3914
 -40305568.30547 -28714722.05545  20566645.8444                   20566641.7584
 11  8  1  1 41  0.0000000  0  9G10G25G09G17G12G04G05G27G02
 -30487414.18747 -23379533.09045  20849925.6334   20849924.1294   13336652.31646
  12158470.39142                  23964302.2114                   23964302.8714
 -19204436.31645 -13253377.28143  23798714.7894                   23798717.3204
 -70772623.60246 -52765216.85543  23218090.4534                   23218088.0084
 -18864469.11347 -13573075.39145  21292722.7734                   21292720.6644
 -52971512.42247 -40012334.32444  21680849.5164                   21680848.1804
  -8768852.88746  -6667789.13344  21945359.7664                   21945358.5984
 -32444548.12945 -24040231.94542  23994802.6094                   23994805.8634
 -40397467.48847 -28786331.75445  20549158.3754                   20549153.7934
 11  8  1  1 41 30.0000000  0  9G10G25G09G17G12G04G05G27G02
 -30580269.90647 -23451888.15645  20832256.0474   20832253.8364   13146534.62946
  12010326.83643                  23928123.3134                   23928124.7114
 -19215126.03945 -13261707.05942  23796680.8754                   23796683.5274
 -70808623.08646 -52793268.39544  23211239.6174                   23211237.8634
 -19011393.14547 -13687561.61745  21264763.7114                   21264761.7544
 -52986669.42647 -40024144.95344  21677964.8204                   21677963.4304
  -8950654.02046  -6809452.24244  21910763.6804                   21910762.4844
 -32471710.79345 -24061397.78142  23989633.3834                   23989638.0984
 -40489044.55947 -28857690.47745  20531732.1564                   20531726.9654
 11  8  1  1 42  0.0000000  0  9G10G25G09G17G12G04G05G27G02
 -30672462.29347 -23523726.34845  20814712.2814   20814710.4144   12956643.30546
  11862359.71143                  23891988.5234                   23891990.0004
 -19225648.96945 -13269906.84843  23794678.9384                   23794681.3404
 -70844432.69946 -52821172.00043  23204425.8284                   23204423.1374
 -19157833.35947 -13801670.85245  21236897.4844                   21236895.2814
 -53001656.89847 -40035823.50844  21675113.1024                   21675111.3794
  -9132113.69946  -6950849.30944  21876233.8204                   21876231.7584
 -32498797.71545 -24082504.68742  23984479.9844                   23984482.8674
 -40580300.82447 -28928799.22346  20514365.7664                   20514361.5204
 11  8  1  1 42 30.0000000  0  9G10G25G09G17G12G04G05G27G02
 -30763991.29347 -23595047.60545  20797295.4384   20797292.6334   12766981.48846
  11714571.33643                  23855897.1094                   23855898.1254
 -19236008.12146 -13277979.06643  23792708.3914                   23792710.0744
 -70880051.40646 -52848926.80943  23197646.9384                   23197645.0904
 -19303786.71147 -13915400.71545  21209123.3364                   21209120.9804
 -53016475.78947 -40047370.68445  21672292.8364                   21672291.3134
  -9313228.75446  -7091977.82444  21841768.2424                   21841766.5984
 -32525811.02045 -24103554.24242  23979339.4614                   23979342.7894
 -40671237.56247 -28999658.98046  20497061.6254                   20497057.0234
 11  8  1  1 43  0.0000000  0  9G10G25G09G17G12G04G05G27G02
 -30854859.43047 -23665853.91845  20780003.9224   20780001.0314   12577548.92646
  11566961.64143                  23819849.6884                   23819850.0984
 -19246209.63745 -13285928.40242  23790767.5474                   23790769.4654
 -70915481.53146 -52876534.64843  23190905.1954                   23190902.1844
 -19449254.03147 -14028751.83245  21181441.7504                   21181439.8754
 -53031130.90247 -40058790.25044  21669504.4224                   21669502.4494
  -9493999.09447  -7232837.72345  21807368.0634                   21807367.0084
 -32552756.00045 -24124550.54742  23974211.1334                   23974215.7664
 -40761858.64847 -29070272.76246  20479816.8834                   20479812.3714
 11  8  1  1 43 30.0000000  0  9G10G25G09G17G12G04G05G27G02
 -30945066.16047 -23736144.84045  20762837.5864   20762835.1524   12388348.53146
  11419532.83643                  23783845.5784                   23783845.4844
 -19256256.66845 -13293757.40642  23788855.1094                   23788857.3954
 -70950722.60546 -52903995.21143  23184198.5234                   23184196.1724
 -19594233.11747 -14141722.50045  21153853.4384                   21153851.0784
 -53045624.36347 -40070083.85244  21666746.4454                   21666744.8324
  -9674421.72347  -7373426.66445  21773034.8364                   21773033.8634
 -32579635.62545 -24145495.88742  23969096.5004                   23969101.3914
 -40852164.91447 -29140641.25446  20462632.3054                   20462627.3284
 11  8  1  1 44  0.0000000  0  9G10G25G09G17G12G04G05G27G02
 -31034613.21947 -23805921.73445  20745797.8444   20745794.5394   12199380.95346
  11272285.46543                  23747885.8444                   23747886.1684
 -19266154.71945 -13301470.30542  23786971.2894                   23786973.9264
 -70985776.29746 -52931309.74243  23177527.9844                   23177525.6414
 -19738723.73447 -14254312.55945  21126357.4614                   21126354.7234
 -53059959.69547 -40081254.23444  21664018.1564                   21664016.2734
  -9854495.87547  -7513744.09045  21738768.3444                   21738767.0944
 -32606454.18045 -24166393.75042  23963994.3754                   23963998.1024
 -40942159.11747 -29210766.57446  20445506.8134                   20445502.1954
 11  8  1  1 44 30.0000000  0  9G10G25G09G17G12G04G05G27G02
 -31123500.55147 -23875184.56245  20728882.9694   20728880.1054   12010648.99646
  11125221.70743                  23711971.5314                   23711972.1524
 -19275906.75046 -13309069.44143  23785116.6884                   23785118.0594
 -71020641.76246 -52958477.68043  23170893.8594                   23170891.4774
 -19882723.58247 -14366520.19545  21098955.4144                   21098952.9804
 -53074138.90247 -40092302.94944  21661319.9614                   21661317.8484
 -10034218.41847  -7653787.53945  21704566.8914                   21704566.1454
 -32633214.36345 -24187246.02342  23958902.1724                   23958904.5434
 -41031842.43447 -29280649.64545  20428441.1484                   20428436.2384
 11  8  1  1 45  0.0000000  0  9G10G25G09G17G12G04G05G27G02
 -29636301.32047 -22716327.98445  21011887.2584   21011884.5984   13397585.61746
  12205951.60943                  23975895.6644                   23975897.4264
 -17710092.14146 -12088954.31243  24083081.5864                   24083083.0434
 -69479893.49246 -51757894.59443  23464088.6884                   23464086.2624
 -18450801.12147 -13250736.41845  21371441.2194                   21371438.3674
 -51512739.28547 -38875627.91444  21958444.3364                   21958442.7734
  -8638156.29747  -6565946.82445  21970229.5474                   21970228.2194
 -31084494.28545 -22980451.37942  24253613.4694                   24253616.7154
 -39545788.96547 -28122685.86346  20711227.0314                   20711222.1414
 11  8  1  1 45 30.0000000  0  9G10G25G09G17G12G04G05G27G02
 -29723862.37947 -22784557.34445  20995224.8134                   20995222.2974
  13209339.66846  12059266.57843  23940074.2894                   23940075.7814
 -17719555.91045 -12096328.79742  24081279.2584                   24081283.2034
 -69514374.18446 -51784762.64843  23457526.7194                   23457524.9774
 -18593805.77747 -13362168.56645  21344228.7734                   21344225.9534
 -51526605.07047 -38886432.43044  21955806.4224                   21955804.3634
  -8817160.38347  -6705430.42645  21936167.1644                   21936164.9574
 -31111139.51245 -23001214.17642  24248543.7194                   24248547.2304
 -39634846.89547 -28192081.62946  20694280.1334                   20694275.0394
 11  8  1  1 46  0.0000000  0  9G10G25G09G17G12G04G05G27G02
 -29810761.15247 -22852270.64545  20978688.4534                   20978686.1994
  13021339.93046  11912773.34443  23904299.5554                   23904299.9844
 -17728881.39545 -12103595.54342  24079506.5004                   24079508.5824
 -69548663.05546 -51811481.22743  23451001.9454                   23450999.4534
 -18736310.78947 -13473211.38345  21317110.3914                   21317107.7544
 -51540317.66447 -38897117.55144  21953196.3204                   21953194.3164
  -8995801.77747  -6844631.40645  21902171.8754                   21902170.1564
 -31137732.23045 -23021936.06242  24243482.7424                   24243487.2464
 -39723594.60247 -28261235.65245  20677391.4694                   20677387.3054
 11  8  1  1 46 30.0000000  0  9G10G25G09G17G12G04G05G27G02
 -29896999.41847 -22919469.26645  20962278.1334                   20962275.2664
  12833587.02046  11766472.46143  23868570.4614                   23868572.0984
 -17738073.73046 -12110758.54742  24077756.3444                   24077759.5084
 -69582761.34846 -51838051.28943  23444512.8914                   23444511.1954
 -18878315.62147 -13583864.44545  21290087.8134                   21290085.4534
 -51553881.05947 -38907686.41844  21950615.7584                   21950613.7894
  -9174079.79347  -6983549.24645  21868246.8984                   21868245.0514
 -31164276.90645 -23042620.48042  24238432.2734                   24238436.3834
 -39812035.25847 -28330150.42645  20660561.5634                   20660557.2774
 11  8  1  1 47  0.0000000  0  9G10G25G09G17G12G04G05G27G02
 -29982577.06247 -22986153.10945  20945993.4304                   20945990.2544
  12646083.84846  11620366.15243  23832890.6484                   23832891.2274
 -17747136.25446 -12117820.38342  24076032.6174                   24076034.1174
 -69616668.42246 -51864472.36343  23438061.1804                   23438059.0744
 -19019818.38347 -13694126.29345  21263160.5084                   21263157.9574
 -51567296.82847 -38918140.24244  21948063.1094                   21948060.5984
  -9351991.27347  -7122181.48445  21834391.2344                   21834389.4264
 -31190776.10245 -23063269.44942  24233388.9694                   24233394.0164
 -39900169.88347 -28398826.72345  20643790.7344                   20643785.7814
 11  8  1  1 47 30.0000000  0  9G10G25G09G17G12G04G05G27G02
 -30067494.74647 -23052322.69945  20929833.8984                   20929831.6254
  12458832.32446  11474455.93443  23797257.0704                   23797258.3874
 -17756072.95346 -12124784.16443  24074332.1724                   24074333.5164
 -69650384.42246 -51890744.54743  23431643.8914                   23431642.9654
 -19160817.60947 -13803995.77345  21236329.4694                   21236326.6294
 -51580567.40647 -38928480.94544  21945537.9614                   21945536.0164
  -9529534.28947  -7260526.59845  21800605.8134                   21800603.9774
 -31217233.05945 -23083885.44942  24228355.2424                   24228359.5004
 -39987999.91847 -28467265.68445  20627076.9304                   20627071.8594
 11  8  1  1 48  0.0000000  0  9G10G25G09G17G12G04G05G27G02
 -30151752.03147 -23117977.69145  20913800.2194                   20913797.4304
  12271835.73046  11328744.39843  23761673.3594                   23761674.2194
 -17764886.85246 -12131652.29343  24072654.0164                   24072656.3954
 -69683908.68446 -51916867.34843  23425265.3054                   23425263.3134
 -19301310.73447 -13913470.89145  21209594.3284                   21209591.5314
 -51593694.46547 -38938709.78544  21943038.9844                   21943036.9844
  -9706705.41847  -7398581.91845  21766890.7584                   21766889.6644
 -31243650.26245 -23104470.46942  24223328.3754                   24223333.3594
 -40075526.24647 -28535467.99245  20610421.5554                   20610416.7624
 11  8  1  1 48 30.0000000  0  9G10G25G09G17G12G04G05G27G02
 -30235350.55547 -23183119.36745  20897891.6414                   20897889.3674
  12085095.57446  11183232.61743  23726137.4304                   23726138.6054
 -17773582.09045 -12138427.94143  24071000.0164                   24071002.2894
 -69717241.82046 -51942841.18443  23418921.3524                   23418920.0864
 -19441296.69947 -14022550.83245  21182955.8444                   21182953.1374
 -51606680.91447 -38948829.08644  21940568.2424                   21940566.0124
  -9883503.09847  -7536346.25445  21733248.3524                   21733246.2154
 -31270031.30545 -23125027.35942  24218308.2974                   24218313.5234
 -40162751.10947 -28603435.39145  20593822.6334                   20593818.5514
 11  8  1  1 49  0.0000000  0  9G10G25G09G17G12G04G05G27G02
 -30318292.34047 -23247749.30545  20882108.2274                   20882105.6764
  11898612.60946  11037921.32443  23690651.2194                   23690652.1604
 -17782163.84046 -12145115.16442  24069367.3914                   24069368.7894
 -69750385.27346 -51968667.24243  23412614.6484                   23412613.5474
 -19580775.60547 -14131235.63345  21156414.4924                   21156410.9024
 -51619530.34047 -38958841.59444  21938122.7034                   21938120.9264
 -10059926.30147  -7673818.80545  21699675.3284                   21699673.6724
 -31296380.97345 -23145559.86342  24213295.0394                   24213300.0234
 -40249677.65647 -28671170.34446  20577281.7274                   20577276.6484
 11  8  1  1 49 30.0000000  0  9G10G25G09G17G12G04G05G27G02
 -30400573.66047 -23311864.56245  20866450.6414                   20866448.2774
  11712393.07046  10892815.21543  23655214.7424                   23655215.4304
 -17790631.90246 -12151713.85543  24067755.6804                   24067757.8284
 -69783335.01246 -51994342.35943  23406346.0314                   23406342.9454
 -19719741.81247 -14239520.94545  21129969.4694                   21129966.7704
 -51632240.97347 -38968745.96144  21935704.3834                   21935702.1414
 -10235969.02047  -7810994.85545  21666175.7504                   21666173.7664
 -31322698.176 5                  24208286.492
 -40336303.31247 -28738670.82845  20560796.7274                   20560792.5704
 11  8  1  1 50  0.0000000  0  9G10G25G09G17G12G04G05G27G02
 -30482197.48447 -23375467.50445  20850918.4224                   20850915.6954
  11526437.31646  10747914.69943  23619828.3204                   23619828.8014
 -17798992.01246 -12158228.36743  24066166.2584                   24066167.0204
 -69816093.06246 -52019868.11743  23400111.0634                   23400109.6024
 -19858195.62947 -14347406.98045  21103622.5394                   21103620.0394
 -51644817.10547 -38978545.53544  21933310.7504                   21933309.4024
 -10411631.05947  -7947874.28145  21632748.2894                   21632746.2034
 -31348988.258 5                  24203283.094
 -40422631.45747 -28805939.48445  20544369.7344                   20544364.5634
 11  8  1  1 50 30.0000000  0  9G10G25G09G17G12G04G05G27G02
 -30563163.75447 -23438558.07045  20835510.9774                   20835508.2664
  11340747.98846  10603221.79343  23584493.4614                   23584493.5664
 -17807247.62146 -12164661.45343  24064594.6804                   24064596.2464
 -69848658.87546 -52045244.06243  23393914.2344                   23393912.0084
 -19996135.22747 -14454892.35245  21077373.8364                   21077370.6644
 -51657260.44547 -38988241.62144  21930943.2194                   21930940.8094
 -10586909.33247  -8084454.66845  21599394.1024                   21599392.1724
 -31375253.64814                  24198286.547
 -40508663.15247 -28872977.14145  20527997.7974                   20527993.3284
 11  8  1  1 51  0.0000000  0  9G10G25G09G17G12G04G05G27G02
 -30643474.44547 -23501137.79345  20820228.3444                   20820226.0704
  11155326.09446  10458737.27043  23549208.1174                   23549209.2194
 -17815403.45745 -12171016.84043  24063042.6484                   24063044.7114
 -69881033.98846 -52070471.41843  23387753.3444                   23387751.1524
 -20133559.91847 -14561976.50045  21051221.9774                   21051219.6804
 -51669574.50047 -38997836.97744  21928599.9384                   21928598.1884
 -10761802.73447  -8220735.16845  21566112.1724                   21566110.7234
 -31401499.01615                  24193291.453
 -40594401.68747 -28939786.35545  20511682.1414                   20511677.8484
 11  8  1  1 51 30.0000000  0  9G10G25G09G17G12G04G05G27G02
 -30723128.59047 -23563205.91845  20805070.8284                   20805068.2154
  10970175.66846  10314464.27343  23513975.1804                   23513976.2154
 -17823461.65645 -12177296.09842  24061508.1954                   24061511.2814
 -69913216.43446 -52095548.63743  23381629.3524                   23381626.9184
 -20270466.78147 -14668657.13345  21025169.8524                   21025166.9804
 -51681759.72747 -39007331.94544  21926281.0164                   21926279.1884
 -10936307.31647  -8356712.67645  21532905.6254                   21532903.7274
 -31427725.410 5                  24188300.469
 -40679846.49247 -29006366.70745  20495422.5314                   20495418.2194
 11  8  1  1 52  0.0000000  0  9G10G25G09G17G12G04G05G27G02
 -30802128.76247 -23624764.46145  20790037.5634                   20790034.5474
  10785297.36346  10170403.32043  23478793.2814                   23478794.9614
 -17831427.32445 -12183503.34842  24059993.5314                   24059996.2814
 -69945207.90646 -52120477.00843  23375542.4844                   23375539.3674
 -20406855.91447 -14774934.34045  20999215.5784                   20999213.2274
 -51693820.12147 -39016729.60544  21923985.9304                   21923983.3594
 -11110422.21547  -8492386.54745  21499772.8594                   21499770.4804
 -31453937.391 5                  24183313.273
 -40765000.73047 -29072720.62946  20479218.6024                   20479214.0004
 11  8  1  1 52 30.0000000  0  9G10G25G09G17G12G04G05G27G02
 -30880473.89547 -23685812.58645  20775128.7194                   20775125.4264
  10600695.12546  10026557.48843  23443664.7114                   23443666.7304
 -17839302.84046 -12189640.27343  24058495.6564                   24058498.0124
 -69977006.96946 -52145255.49643  23369489.7894                   23369488.6454
 -20542723.90247 -14880805.47745  20973361.1024                   20973357.8834
 -51705755.74647 -39026030.09044  21921714.1024                   21921712.8834
 -11284143.93747  -8627754.05545  21466714.4064                   21466712.4024
 -31480136.387 5                  24178327.766
 -40849864.60947 -29138848.30145  20463069.2504                   20463064.5744
 11  8  1  1 53  0.0000000  0  9G10G25G09G17G12G04G05G27G02
 -30958163.09847 -23746349.59045  20760344.7034                   20760342.0274
  10416372.75046   9882929.69943  23408589.2504                   23408590.4304
 -17847090.14545 -12195708.44542  24057012.5864                   24057015.9694
 -70008611.81646 -52169882.65243  23363476.3444                   23363474.4964
 -20678068.15647 -14986268.51245  20947605.7504                   20947603.0864
 -51717567.56247 -39035234.10244  21919467.1174                   21919464.7194
 -11457468.15647  -8762811.80145  21433731.0234                   21433729.2584
 -31506324.098 5                  24173345.211
 -40934437.87547 -29204749.51645  20446976.0164                   20446971.2304
 11  8  1  1 53 30.0000000  0  9G10G25G09G17G12G04G05G27G02
 -29459778.32047 -22578776.99645  21045478.3594                   21045475.0664
  11807755.27046  10967123.93443  23673360.8054                   23673361.7424
 -16279376.02045 -10974113.22742  24355339.6564                   24355341.7504
 -68464605.07046 -50966760.49243  23657290.2584                   23657289.2234
 -19237465.70747 -13863721.12145  21221743.6024                   21221740.8014
 -50153840.63747 -37816745.56644  22217033.9064                   22217032.4614
 -10054970.53547  -7669956.43045  21700618.2974                   21700615.6214
 -29957086.223 5                  24468156.109
 -39443302.53547 -28042825.84845  20730729.3204                   20730724.4574
 11  8  1  1 54  0.0000000  0  9G10G25G09G17G12G04G05G27G02
 -29536160.50847 -22638295.53945  21030942.7114                   21030940.2274
  11623997.60546  10823936.19543  23638392.5004                   23638393.8324
 -16286999.85545 -10980054.09443  24353887.7424                   24353891.3554
 -68495823.32846 -50991086.38343  23651350.1884                   23651347.9454
 -19371759.23447 -13968365.38345  21196188.3984                   21196185.7074
 -50165412.99247 -37825762.96944  22214832.4144                   22214830.3634
 -10227495.24247  -7804391.20345  21667787.8284                   21667785.5084
 -29983262.508 5                  24463175.367
 -39527300.89147 -28108279.07845  20714745.1334                   20714740.4144
 11  8  1  1 54 30.0000000  0  9G10G25G09G17G12G04G05G27G02
 -29611888.92247 -22697304.67645  21016532.3284                   21016529.1054
  11440527.38346  10680972.44143  23603479.7734                   23603480.6294
 -16294545.74245 -10985934.26642  24352453.2664                   24352455.5594
 -68526847.05946 -51015260.69543  23645447.0314                   23645444.7424
 -19505523.62147 -14072597.34445  21170733.5164                   21170730.6724
 -50176867.03547 -37834688.17644  22212652.3364                   22212650.5664
 -10399615.28947  -7938510.64545  21635033.7974                   21635031.6954
 -30009435.965 5                  24458193.523
 -39611012.50847 -28173508.88345  20698815.1724                   20698810.2664
 11  8  1  1 55  0.0000000  0  9G10G25G09G17G12G04G05G27G02
 -29686964.32447 -22755804.96945  21002246.0704                   21002243.4064
  11257346.51646  10538234.14843  23568621.9844                   23568622.2424
 -16302017.71145 -10991756.78542  24351030.2274                   24351034.9414
 -68557676.63346 -51039283.73043  23639579.3204                   23639577.9534
 -19638757.84847 -14176416.18445  21145380.2274                   21145377.0824
 -50188205.48446 -37843523.30144  22210494.5314                   22210492.7664
 -10571328.62147  -8072313.16445  21602358.1024                   21602356.5084
 -30035610.141 5                  24453213.820
 -39694439.07447 -28238516.57046  20682939.7194                   20682934.8794
 11  8  1  1 55 30.0000000  0  9G10G25G09G17G12G04G05G27G02
 -29761385.80147 -22813795.69545  20988083.4774                   20988081.1094
  11074459.39146  10395724.78143  23533819.5944                   23533820.1764
 -16309417.34845 -10997522.89542  24349624.0704                   24349627.7704
 -68588309.76246 -51063153.67643  23633750.7664                   23633748.5904
 -19771458.23847 -14279819.05145  21120127.9774                   21120125.3874
 -50199428.18747 -37852268.25444  22208359.1174                   22208357.3484
 -10742631.09847  -8205795.56245  21569760.7734                   21569758.1564
 -30061785.727 5                  24448232.984
 -39777580.35947 -28303301.96145  20667118.3594                   20667113.5944
 11  8  1  1 56  0.0000000  0  9G10G25G09G17G12G04G05G27G02
 -29835155.14847 -22871278.26645  20974045.8754                   20974043.1914
  10891867.74246  10253445.65243  23499072.9924                   23499073.7894
 -16316748.75045 -11003235.90642  24348228.8984                   24348231.8094
 -68618746.99246 -51086870.99643  23627958.2034                   23627955.8674
 -19903623.89547 -14382805.23445  21094977.9144                   21094974.5704
 -50210537.79347 -37860925.06244  22206245.2114                   22206243.3444
 -10913520.93747  -8338956.40245  21537241.2974                   21537238.9104
 -30087966.395 5                  24443251.234
 -39860439.10247 -28367867.18745  20651350.9384                   20651346.5234
 11  8  1  1 56 30.0000000  0  9G10G25G09G17G12G04G05G27G02
 -29908273.52747 -22928253.60245  20960131.7504                   20960129.3794
  10709573.75446  10111398.42643  23464383.9774                   23464384.2304
 -16324015.69146 -11008898.69542  24346845.5394                   24346848.8524
 -68648988.45746 -51110435.74643  23622204.5704                   23622201.7974
 -20035253.71547 -14485373.90245  21069929.5474                   21069926.3054
 -50221536.65647 -37869495.58244  22204152.0084                   22204149.7774
 -11083995.89547  -8471793.95345  21504800.5704                   21504798.7934
 -30114155.098 5                  24438267.438
 -39943016.09847 -28432212.87945  20635637.2664                   20635632.0704
 11  8  1  1 57  0.0000000  0  9G10G25G09G17G12G04G05G27G02
 -29980741.70347 -22984722.27745  20946341.6724                   20946339.1374
  10527579.71546   9969584.95543  23429750.5004                   23429751.4414
 -16331221.85245 -11014514.07042  24345474.4694                   24345477.8094
 -68679034.44146 -51133848.16843  23616486.9924                   23616483.9064
 -20166346.30547 -14587523.92645  21044983.2584                   21044980.5354
 -50232426.69546 -37877981.32444  22202079.1804                   22202078.3244
 -11254054.04347  -8604306.73045  21472439.6954                   21472437.3484
 -30140354.957 5                  24433283.070
 -40025312.70747 -28496340.07845  20619975.9304                   20619971.7114
 11  8  1  1 57 30.0000000  0  9G10G25G09G17G12G04G05G27G02
 -30052559.18747 -23040683.92245  20932674.9924                   20932672.3984
  10345889.58246   9828008.27743  23395176.7114                   23395177.6804
 -16338369.43045 -11020083.83242  24344113.4614                   24344118.7304
 -68708883.31646 -51157107.00843  23610806.6254                   23610804.3634
 -20296898.95347 -14689253.23445  21020139.6334                   21020136.9344
 -50243208.34847 -37886382.58244  22200027.7664                   22200025.6454
 -11423691.17247  -8736491.43445  21440158.8754                   21440156.1294
 -30166567.46914                  24428293.313
 -40107329.36347 -28560249.13745  20604369.0554                   20604364.1914
 11  8  1  1 58  0.0000000  0  9G10G25G09G17G12G04G05G27G02
 -30123728.35947 -23096140.39545  20919131.8364                   20919129.5044
  10164504.25846   9686669.15243  23360660.3364                   23360661.0554
 -16345463.25845 -11025611.69142  24342764.7664                   24342768.6294
 -68738536.09846 -51180213.06243  23605165.3054                   23605161.7664
 -20426911.11347 -14790561.37145  20995399.6094                   20995395.8324
 -50253884.97746 -37894702.00444  22197995.5784                   22197994.2894
 -11592906.52047  -8868347.47745  21407958.0944                   21407955.7304
 -30192796.80915                  24423303.086
 -40189068.57047 -28623942.00445  20588814.0474                   20588809.7734
 11  8  1  1 58 30.0000000  0  9G10G25G09G17G12G04G05G27G02
 -30194251.42247 -23151093.40245  20905711.4064                   20905709.3554
   9983424.89146   9545568.44143  23326201.3594                   23326202.9384
 -16352507.83246 -11031101.24642  24341424.2034                   24341426.7894
 -68767994.61346 -51203167.71543  23599558.2584                   23599555.9534
 -20556383.04747 -14891448.56245  20970761.3674                   20970758.5904
 -50264459.80147 -37902942.13744  22195984.7664                   22195982.2384
 -11761699.29347  -8999874.25845  21375838.1094                   21375835.3674
 -30219047.434 5                  24418307.531
 -40270533.32047 -28687421.00845  20573312.3524                   20573307.2464
 11  8  1  1 59  0.0000000  0  9G10G25G09G17G12G04G05G27G02
 -30264127.48447 -23205542.25845  20892414.9614                   20892412.3444
   9802655.82446   9404709.48043  23291802.6094                   23291802.9964
 -16359504.94145 -11036553.82842  24340093.0944                   24340095.9804
 -68797256.80546 -51225969.39143  23593989.6564                   23593987.7974
 -20685310.98847 -14991911.86345  20946227.5784                   20946224.6294
 -50274932.96547 -37911103.01644  22193991.1254                   22193989.6994
 -11930065.16447  -9131068.35945  21343798.1954                   21343796.3054
 -30245320.062 5                  24413309.102
 -40351723.27747 -28750685.88345  20557862.2974                   20557857.5044
 11  8  1  1 59 30.0000000  0  9G10G25G09G17G12G04G05G27G02
 -30333357.27347 -23259487.52045  20879241.1414                   20879238.2584
   9622200.08646   9264094.73043  23257463.0394                   23257464.0314
 -16366457.35245 -11041971.46542  24338770.1564                   24338773.6374
 -68826321.67246 -51248617.32443  23588457.9534                   23588456.6374
 -20813693.22747 -15091949.94145  20921797.1484                   20921794.2974
 -50285305.49247 -37919185.48444  22192017.6414                   22192015.1484
 -12098001.37147  -9261927.67645  21311842.0634                   21311839.5044
 -30271617.07815                  24408304.320
 -40432639.06247 -28813737.12546  20542464.5554                   20542459.8164
 11  8  1  2  0  0.0000000  0  9G10G25G09G17G12G04G05G27G02
 -30401941.91047 -23312930.05945  20866189.6484                   20866187.2304
   9442059.73046   9123725.72744  23223182.8524                   23223184.5314
 -16373368.883 5                  24337454.438
 -68855189.74246 -51271111.87943  23582965.9614                   23582962.9304
 -20941528.80547 -15191562.03945  20897470.5864                   20897467.6254
 -50295579.68747 -37927191.31244  22190061.7424                   22190059.7544
 -12265506.02047  -9392450.71145  21279965.8914                   21279964.3014
 -30297941.398 5                  24403295.484
 -40513282.31247 -28876575.99646  20527118.6094                   20527114.2624
 11  8  1  2  0 30.0000000  0  8G10G25G09G17G12G04G05G02
 -30469882.94947 -23365871.11745  20853261.5084                   20853258.7704
   9262236.58646   8983603.88744  23188963.8204                   23188965.2894
 -16380243.437 5                  24336146.148
 -68883861.31245 -51293453.34443  23577508.1334                   23577507.3284
 -21068816.62547 -15290747.32845  20873248.4614                   20873245.4344
 -50305758.05947 -37935122.48044  22188125.6334                   22188122.7664
 -12432576.94547  -9522635.78545  21248173.3134                   21248171.6374
 -40593655.14847 -28939204.15645  20511824.3674                   20511819.3954
 11  8  1  2  1  0.0000000  0  8G10G25G09G17G12G04G05G02
 -30537181.53147 -23418311.54345  20840454.9694                   20840451.6994
   9082733.34046   8843731.34844  23154805.7814                   23154805.9924
 -16387084.215 5                  24334844.953
 -68912336.39846 -51315641.71543  23572090.0394                   23572088.8324
 -21195555.28947 -15389504.70745  20849131.1724                   20849128.0514
 -50315842.53546 -37942980.48844  22186205.9614                   22186204.3674
 -12599212.14847  -9652481.32845  21216464.2274                   21216462.4614
 -40673758.56247 -29001622.38345  20496581.0634                   20496576.4064
 11  8  1  2  1 30.0000000  0  8G10G25G09G17G12G04G05G02
 -30603839.62947 -23470252.88745  20827770.0314                   20827767.2344
   8903551.22346   8704109.02344  23120708.5234                   23120709.3874
 -16393895.79755 -11043442.11753  24333549.1254                   24333554.5594
 -68940615.98446 -51337677.70743  23566708.5864                   23566707.0004
 -21321744.59047 -15487834.00445  20825117.9304                   20825114.9184
 -50325835.70347 -37950767.37144  22184304.4534                   22184302.0354
 -12765410.45347  -9781986.43745  21184837.6174                   21184835.2504
 -40753595.49247 -29063832.94545  20481388.1174                   20481383.4064
 11  8  1  2  2  0.0000000  0  8G10G25G09G17G12G04G05G02
 -29094427.62147 -22294087.66845  21115001.6564                   21114999.2194
  10300127.44946   9792350.34844  23386468.2664                   23386468.7464
 -14825252.59045  -9821122.96142  24632052.5944                   24632057.4574
 -67393270.09446 -50131953.64843  23861158.2274                   23861156.8134
 -19871950.20347 -14358124.06245  21101003.9614                   21101001.4144
 -48760310.25847 -36730877.38344  22482213.4614                   22482212.1604
 -11355735.04747  -8683537.99645  21453089.5234                   21453087.9384
 -39257735.44547 -27898227.69546  20766041.4454                   20766036.5904
 11  8  1  2  2 30.0000000  0  8G10G25G09G17G12G04G05G02
 -29159792.64147 -22345021.41445  21102563.2344                   21102560.7814
  10121610.84047   9653246.60244  23352497.8594                   23352497.9884
 -14831999.91445  -9826380.96542  24630769.5784                   24630773.5204
 -67421142.52346 -50153672.40243  23855855.0784                   23855853.1954
 -19997020.53547 -14455581.43745  21077204.7814                   21077201.2934
 -48770110.38347 -36738513.85544  22480349.4454                   22480346.8984
 -11521036.64847  -8812344.37545  21421634.3444                   21421632.0744
 -39337027.10547 -27960013.37946  20750952.3984                   20750947.9024
 11  8  1  2  3  0.0000000  0  8G10G25G09G17G12G04G05G02
 -29224513.29347 -22395453.07845  21090246.6644                   21090244.2194
   9943430.18047   9514404.62944  23318590.4304                   23318590.6954
 -14838720.93445  -9831618.33242  24629490.3134                   24629494.3674
 -67448811.88346 -50175232.93743  23850589.6024                   23850587.8874
 -20121530.12547 -14552601.89545  21053510.8134                   21053508.5984
 -48779817.16847 -36746077.56644  22478501.9064                   22478500.5164
 -11685887.27047  -8940799.34445  21390264.3674                   21390261.8634
 -39416048.62947 -28021588.57046  20735915.4694                   20735910.2304
 11  8  1  2  3 30.0000000  0  8G10G25G09G17G12G04G05G02
 -29288593.20347 -22445385.44545  21078053.1484                   21078050.2734
   9765585.57447   9375824.53544  23284748.2274                   23284748.2774
 -14845421.16445  -9836839.53142  24628214.9844                   24628219.6524
 -67476280.22746 -50196636.81643  23845362.1954                   23845360.6684
 -20245479.73447 -14649185.96545  21029924.1644                   21029921.3134
 -48789434.83647 -36753571.83244  22476671.8594                   22476670.4384
 -11850286.74647  -9068902.76245  21358980.3594                   21358977.3524
 -39494803.73447 -28082956.15645  20720928.7894                   20720923.6954
 11  8  1  2  4  0.0000000  0  8G10G25G09G17G12G04G05G02
 -29352036.70747 -22494821.91845  21065980.3364                   21065977.3524
   9588076.36346   9237505.74244  23250969.0864                   23250969.8244
 -14852107.19945  -9842049.73442  24626943.9534                   24626947.7814
 -67503550.62546 -50217886.43443  23840173.1564                   23840171.1374
 -20368871.27047 -14745335.20345  21006443.3284                   21006440.4104
 -48798968.05947 -36761000.30144  22474857.8984                   22474855.5204
 -12014236.12947  -9196655.46545  21327781.0944                   21327778.6954
 -39573296.93747 -28144119.66445  20705992.0164                   20705987.0004
 11  8  1  2  4 30.0000000  0  8G10G25G09G17G12G04G05G02
 -29414844.29747 -22543762.86345  21054027.9304                   21054025.5314
   9410905.83246   9099450.88744  23217254.6094                   23217255.6954
 -14858781.25845  -9847250.55142  24625673.2814                   24625678.7664
 -67530622.53146 -50238981.42243  23835022.2034                   23835019.3754
 -20491702.39547 -14841047.75445  20983069.9454                   20983067.2344
 -48808417.89847 -36768363.80144  22473059.8914                   22473057.4774
 -12177732.30547  -9324055.02045  21296668.9384                   21296666.3484
 -39651528.85547 -28205079.57045  20691104.8674                   20691099.6684
 11  8  1  2  5  0.0000000  0  8G10G25G09G17G12G04G05G02
 -29477017.91447 -22592209.81645  21042197.3054                   21042194.0274
   9234075.64846   8961661.20744  23183604.3054                   23183605.6294
 -14865447.65215                  24624404.891
 -67557496.34446 -50259922.02343  23829907.2034                   23829905.5704
 -20613973.01247 -14936323.53145  20959802.0784                   20959799.1844
 -48817786.75047 -36775664.18044  22471277.1804                   22471274.4804
 -12340773.84847  -9451100.31245  21265642.6884                   21265640.7854
 -39729501.53147 -28265837.46945  20676267.2504                   20676262.7464
 11  8  1  2  5 30.0000000  0  8G10G25G09G17G12G04G05G02
 -29538556.39147 -22640161.85245  21030486.3444                   21030483.2774
   9057590.52746   8824140.39543  23150020.7194                   23150021.1684
 -14872107.137 5                  24623138.164
 -67584169.87946 -50280706.59043  23824832.1724                   23824829.5744
 -20735679.50847 -15031159.73445  20936642.0944                   20936638.8874
 -48827073.94947 -36782900.92644  22469508.6804                   22469506.9654
 -12503356.34847  -9577787.91445  21234705.0554                   21234702.3094
 -39807214.28547 -28326392.82845  20661478.7114                   20661474.3284
 11  8  1  2  6  0.0000000  0  8G10G25G09G17G12G04G05G02
 -29599464.04747 -22687622.33645  21018895.9224                   21018893.2464
   8881449.91046   8686888.01243  23116501.4924                   23116502.0084
 -14878766.133 5                  24621871.719
 -67610646.17246 -50301337.42643  23819793.4454                   23819791.4104
 -20856823.58247 -15125557.70345  20913589.6804                   20913586.3754
 -48836284.41846 -36790077.89544  22467756.4844                   22467754.1454
 -12665480.33247  -9704118.21945  21203853.1724                   21203851.1134
 -39884671.25847 -28386748.87945  20646739.3914                   20646734.1724
 11  8  1  2  6 30.0000000  0  8G10G25G09G17G12G04G05G02
 -29659740.61747 -22734591.07045  21007425.7974                   21007423.4144
   8705658.04746   8549907.38344  23083049.9304                   23083050.4064
 -14885426.340 5                  24620603.055
 -67636923.16846 -50321812.97343  23814793.3524                   23814791.0594
 -20977402.20747 -15219515.05545  20890643.6484                   20890640.8244
 -48845418.17246 -36797195.10944  22466018.5634                   22466016.4384
 -12827142.26247  -9830088.50845  21173089.7424                   21173087.3054
 -39961871.85547 -28446905.15646  20632048.7814                   20632043.9454
 11  8  1  2  7  0.0000000  0  8G10G25G09G17G12G04G05G02
 -29719389.55547 -22781070.74245  20996075.2664                   20996072.7424
   8530215.43046   8413198.89543  23049664.2504                   23049664.7114
 -14892092.59846  -9851856.71152  24619336.2424                   24619338.2504
 -67663002.99646 -50342134.88343  23809831.0084                   23809828.2704
 -21097416.14147 -15313032.37545  20867806.1804                   20867802.7934
 -48854478.33247 -36804254.96543  22464294.3834                   22464291.5744
 -12988341.98847  -9955698.62545  21142414.4384                   21142411.9614
 -40038819.64847 -28506864.44145  20617406.0704                   20617400.5944
 11  8  1  2  7 30.0000000  0  8G10G25G09G17G12G04G05G02
 -29778413.39847 -22827063.32845  20984843.1174                   20984840.4924
   8355123.41846   8276763.59444  23016345.2274                   23016346.5044
 -14898769.61745  -9857059.84843  24618065.1174                   24618069.1524
 -67688886.70746 -50362303.99243  23804904.1254                   23804902.7274
 -21216865.18747 -15406109.53145  20845075.7424                   20845072.5164
 -48863468.08647 -36811259.93043  22462583.9064                   22462581.2974
 -13149078.36747 -10080947.68445  21111827.4694                   21111825.1724
 -40115516.78947 -28566628.41445  20602810.6954                   20602805.7544
 11  8  1  2  8  0.0000000  0  8G10G25G09G17G12G04G05G02
 -29836811.31647 -22872568.17645  20973730.2424                   20973727.5704
   8180386.70346   8140605.16043  22983094.4304                   22983094.8634
 -14905458.21545  -9862271.98442  24616791.7734                   24616797.2734
 -67714571.89846 -50382318.41843  23800017.1724                   23800015.0164
 -21335746.26247 -15498744.09445  20822453.1254                   20822449.9964
 -48872386.76646 -36818209.52744  22460886.4534                   22460884.1524
 -13309346.89847 -10205832.18745  21081329.1334                   21081327.2464
 -40191962.62147 -28626196.55546  20588263.5394                   20588258.2974
 11  8  1  2  8 30.0000000  0  8G10G25G09G17G12G04G05G02
 -29894586.18047 -22917587.52745  20962736.3134                   20962733.2504
   8006006.34046   8004724.37943  22949910.7424                   22949910.8984
 -14912162.90245  -9867496.68042  24615515.6884                   24615521.4414
 -67740060.00446 -50402179.28143  23795167.3914                   23795165.1994
 -21454059.61347 -15590936.29745  20799939.1644                   20799936.2194
 -48881237.27347 -36825106.02044  22459202.5634                   22459200.1294
 -13469146.91047 -10330351.61745  21050920.4064                   21050918.2074
 -40268159.86347 -28685571.01245  20573763.7114                   20573758.6764
 11  8  1  2  9  0.0000000  0  8G10G25G09G17G12G04G05G02
 -29951738.73847 -22962121.96545  20951860.5704                   20951857.5704
   7831985.34446   7869123.64143  22916794.7274                   22916795.6644
 -14918886.51645  -9872736.10242  24614237.7034                   24614242.5394
 -67765350.35546 -50421886.00443  23790354.1334                   23790351.7894
 -21571803.50047 -15682684.74245  20777532.8364                   20777529.8674
 -48890020.80147 -36831950.34044  22457530.7974                   22457529.0234
 -13628475.81647 -10454503.95745  21020600.9774                   21020598.6954
 -40344109.29347 -28744752.35945  20559310.8914                   20559305.9574
 11  8  1  2  9 30.0000000  0  8G10G25G09G17G12G04G05G02
 -30008269.98047 -23006172.26245  20941102.8364                   20941100.2734
   7658326.44546   7733805.03144  22883748.7274                   22883749.2734
 -14925632.11345  -9877992.71942  24612954.5234                   24612959.5394
 -67790442.98046 -50441438.69143  23785579.6954                   23785577.1564
 -21688976.29347 -15773988.18445  20755235.6254                   20755232.6414
 -48898738.73847 -36838743.51644  22455872.0634                   22455870.0864
 -13787331.09447 -10578287.21945  20990371.6564                   20990369.3094
 -40419811.75047 -28803741.25445  20544905.1174                   20544900.2234
 11  8  1  2 10  0.0000000  0  8G10G25G09G17G12G04G05G02
 -30064182.40247 -23049740.37145  20930462.6334                   20930460.2234
   7485031.44946   7598769.99244  22850772.2894                   22850772.3244
 -14932403.37945  -9883269.31242  24611665.8134                   24611671.7274
 -67815338.34046 -50460837.64143  23780842.4534                   23780839.9574
 -21805577.39847 -15864846.15245  20733047.5704                   20733043.8714
 -48907393.10547 -36845487.16444  22454225.1804                   22454223.0204
 -13945711.32847 -10701700.32845  20960233.5234                   20960230.3524
 -40495269.53547 -28862539.49645  20530545.8754                   20530541.2344
 11  8  1  2 10 30.0000000  0  8G10G25G09G17G12G04G05G02
 -28544056.36747 -21865226.55945  21219733.2814                   21219730.7704
   8887527.73446   8691624.28144  23117658.0474                   23117659.3324
 -13363784.26646  -8660969.01242  24910164.5944                   24910169.8954
 -66264616.32445 -49252482.79742  24075933.5004                   24075932.1994
 -20346183.43447 -14727656.02045  21010760.1954                   21010757.7344
 -47340565.98446 -35624582.91144  22752381.7814                   22752379.7034
 -12528190.21547  -9597138.37545  21229978.3524                   21229975.5594
 -38995062.07047 -27693546.63346  20816026.0394                   20816021.1054
 11  8  1  2 11  0.0000000  0  8G10G25G09G17G12G04G05G02
 -28598734.69147 -21907833.02045  21209328.2814                   21209325.2854
   8714968.54746   8557162.63744  23084821.5634                   23084821.2384
 -13370615.81645  -8666292.59842  24908864.7504                   24908870.0164
 -66289116.03945 -49271573.51642  24071271.8834                   24071270.4964
 -20461638.11347 -14817620.66445  20988790.3754                   20988787.1804
 -47349097.11746 -35631230.52744  22750758.1414                   22750756.8524
 -12685613.64547  -9719805.91845  21200021.8054                   21200019.2234
 -39070033.23847 -27751965.69946  20801759.5004                   20801754.6844
 11  8  1  2 11 30.0000000  0  8G10G25G09G17G12G04G05G02
 -28652800.05147 -21949961.85945  21199040.0554                   21199037.2504
   8542779.16046   8422989.15244  23052054.7114                   23052054.5514
 -13377483.934 5                  24907556.188
 -66313419.83646 -49290511.50842  24066646.0234                   24066645.1254
 -20576519.67247 -14907138.72745  20966929.3754                   20966925.8874
 -47357571.06246 -35637833.57843  22749145.5164                   22749143.7114
 -12842557.53947  -9842099.79345  21170156.1884                   21170153.8284
 -39144764.80147 -27810198.06245  20787538.4534                   20787533.5904
 11  8  1  2 12  0.0000000  0  8G10G25G09G17G12G04G05G02
 -28706251.20347 -21991612.09045  21188868.5634                   21188866.3284
   8370964.89146   8289107.95344  23019359.8834                   23019359.8484
 -13384388.746 5                  24906243.047
 -66337524.69546 -49309294.55943  24062060.2274                   24062058.1174
 -20690824.59847 -14996207.48045  20945177.5944                   20945174.8284
 -47365986.30146 -35644390.91843  22747544.6094                   22747542.3014
 -12999016.82847  -9964016.07445  21140382.8594                   21140380.2154
 -39219255.48847 -27868242.72745  20773363.8594                   20773358.4614
 11  8  1  2 12 30.0000000  0  8G10G25G09G17G12G04G05G02
 -28759091.07447 -22032785.99245  21178813.6724                   21178811.0274
   8199526.96946   8155520.01644  22986736.0394                   22986735.6174
 -13391334.773 5                  24904922.414
 -66361432.21545 -49327923.74643  24057511.0314                   24057508.9964
 -20804552.55147 -15084826.62945  20923535.3594                   20923532.5394
 -47374345.43446 -35650904.53143  22745954.0704                   22745952.2344
 -13154990.50447 -10085553.94145  21110701.9774                   21110699.3444
 -39293507.55147 -27926101.44945  20759233.7894                   20759228.5044
 11  8  1  2 13  0.0000000  0  8G10G25G09G17G12G04G05G02
 -28811320.63347 -22073484.34045  21168874.5554                   21168871.8754
   8028468.46546   8022227.75843  22954184.3524                   22954184.8634
 -13398324.633 5                  24903592.813
 -66385141.46946 -49346398.52343  24052999.5704                   24052997.2584
 -20917702.15647 -15172995.11745  20902004.3204                   20902000.8754
 -47382649.44946 -35657375.13743  22744373.8754                   22744371.5554
 -13310476.18747 -10206711.56245  21081113.8754                   21081111.2664
 -39367521.48847 -27983774.62145  20745149.7584                   20745144.7114
 11  8  1  2 13 30.0000000  0  8G10G25G09G17G12G04G05G02
 -28862941.70347 -22113708.52745  21159051.1334                   21159048.1914
   7857791.61347   7889232.87544  22921706.1564                   22921706.0864
 -13405361.500 5                  24902252.914
 -66408652.47346 -49364718.75043  24048525.1484                   24048523.0594
 -21030272.64547 -15260712.34845  20880582.4694                   20880579.4654
 -47390900.01646 -35663804.16043  22742803.5314                   22742802.1844
 -13465472.09047 -10327487.53145  21051618.8674                   21051616.6724
 -39441299.07047 -28041263.62545  20731110.0634                   20731104.8444
 11  8  1  2 14  0.0000000  0  7G10G25G17G12G04G05G02
 -28913959.53947 -22153462.66845  21149343.0704                   21149340.2074
   7687495.28147   7756534.49644  22889299.6804                   22889299.7304
 -66431969.19946 -49382887.62143  24044088.8914                   24044086.0434
 -21142266.68747 -15347980.40645  20859270.8674                   20859267.9534
 -47399102.23446 -35670195.45743  22741242.3204                   22741240.2774
 -13619979.93747 -10447883.19145  21022217.4774                   21022214.2894
 -39514845.10947 -28098572.21145  20717114.6334                   20717109.5164
 11  8  1  2 14 30.0000000  0  7G10G25G17G12G04G05G02
 -28964370.81247 -22192744.15645  21139749.9614                   21139747.2934
   7517586.83647   7624138.37144  22856967.2114                   22856966.7154
 -66455086.52346 -49400901.16043  24039689.5634                   24039686.7934
 -21253678.30947 -15434794.63745  20838069.6414                   20838066.5594
 -47407252.49247 -35676546.29344  22739692.6024                   22739690.4654
 -13773992.46947 -10567892.89545  20992909.6804                   20992906.4964
 -39588155.69547 -28155697.30946  20703163.9304                   20703159.0084
 11  8  1  2 15  0.0000000  0  7G10G25G17G12G04G05G02
 -29014174.41447 -22231552.14545  21130272.8834                   21130270.1644
   7348071.48847   7492048.53544  22824708.7424                   22824709.3094
 -66478001.62546 -49418757.09043  24035329.4774                   24035326.6604
 -21364503.80547 -15521152.14145  20816980.3524                   20816977.3834
 -47415349.41847 -35682855.57844  22738151.9384                   22738149.4384
 -13927505.12947 -10687513.10545  20963697.0164                   20963694.7304
 -39661229.41447 -28212637.85246  20689258.3914                   20689253.3404
 11  8  1  2 15 30.0000000  0  7G10G25G17G12G04G05G02
 -29063371.84447 -22269887.78145  21120911.2034                   21120907.8364
   7178951.91847   7360267.13744  22792526.3754                   22792527.4024
 -66500714.39546 -49436455.30143  24031006.3054                   24031004.4344
 -21474741.88347 -15607051.91845  20796002.5944                   20795999.9494
 -47423394.35546 -35689124.35544  22736620.8754                   22736618.3164
 -14080515.70747 -10806742.07445  20934580.4924                   20934577.4844
 -39734067.40647 -28269394.71146  20675397.8054                   20675393.2194
 11  8  1  2 16  0.0000000  0  7G10G25G17G12G04G05G02
 -29111962.57047 -22307750.66845  21111663.6254                   21111661.4574
   7010232.62147   7228797.61344  22760421.0004                   22760420.9494
 -66523222.51646 -49453994.03143  24026723.3984                   24026721.4654
 -21584390.21547 -15692492.16445  20775137.6094                   20775134.4494
 -47431386.58246 -35695352.05543  22735099.7194                   22735097.3914
 -14233020.27347 -10925576.74645  20905559.4534                   20905556.9494
 -39806668.70347 -28325967.12545  20661582.0084                   20661577.2114
 11  8  1  2 16 30.0000000  0  7G10G25G17G12G04G05G02
 -29159951.92647 -22345144.95745  21102532.3914                   21102529.1644
   6841912.67247   7097639.26644  22728389.9224                   22728390.0274
 -66545529.42646 -49471376.09843  24022478.6334                   24022476.0354
 -21693450.78547 -15777474.39845  20754383.9304                   20754380.7384
 -47439330.82046 -35701542.35543  22733587.9924                   22733585.7624
 -14385020.12547 -11044018.13345  20876634.2584                   20876632.6254
 -39879038.02047 -28382358.78146  20647810.8674                   20647805.8094
 11  8  1  2 17  0.0000000  0  7G10G25G17G12G04G05G02
 -29207340.70747 -22382071.25045  21093514.2344                   21093511.5354
   6673995.67247   6966794.89544  22696436.4144                   22696436.6724
 -66567634.19546 -49488600.56643  24018271.0474                   24018269.5354
 -21801921.94547 -15861997.35245  20733742.7974                   20733739.8014
 -47447227.42246 -35707695.53543  22732084.9144                   22732083.0434
 -14536512.24647 -11162063.88345  20847807.2894                   20847803.6884
 -39951175.29347 -28438569.61745  20634083.5474                   20634078.4104
 11  8  1  2 17 30.0000000  0  7G10G25G17G12G04G05G02
 -29254131.09047 -22418531.28145  21084610.3594                   21084607.3094
   6506483.32847   6836265.84844  22664559.4304                   22664560.1414
 -66589537.56646 -49505668.13743  24014103.3914                   24014100.7814
 -21909803.27047 -15946060.70345  20713213.0004                   20713210.0864
 -47455078.30546 -35713813.09043  22730591.5004                   22730588.7974
 -14687495.53947 -11279713.16045  20819075.3754                   20819073.2194
 -40023082.37547 -28494601.08245  20620399.9614                   20620395.0634
 11  8  1  2 18  0.0000000  0  7G10G25G17G12G04G05G02
 -29300328.03547 -22454528.88745  21075819.1334                   21075816.9964
   6339375.27047   6706051.83244  22632760.8914                   22632760.2114
 -66611242.33246 -49522580.91843  24009973.6954                   24009971.4774
 -22017096.85547 -16029666.07445  20692795.6804                   20692792.5704
 -47462887.69946 -35719898.30144  22729104.8914                   22729103.1484
 -14837970.75047 -11396966.51645  20790441.3524                   20790438.0634
 -40094763.30147 -28550456.33246  20606759.3834                   20606754.7704
 11  8  1  2 18 30.0000000  0  7G10G25G17G12G04G05G02
 -29345931.76647 -22490064.25845  21067141.5474                   21067138.6334
   6172675.12947   6576155.67644  22601037.6414                   22601038.2424
 -66632747.07046 -49539337.82843  24005881.8134                   24005879.0864
 -22123800.80947 -16112811.98445  20672491.2504                   20672487.7234
 -47470655.63346 -35725951.20343  22727626.4614                   22727624.2584
 -14987934.79347 -11513821.56645  20761903.5784                   20761900.8054
 -40166218.32447 -28606135.54346  20593162.1564                   20593157.1374
 11  8  1  2 19  0.0000000  0  7G10G25G17G12G04G05G02
 -29390945.93047 -22525140.19945  21058575.5164                   21058572.6174
   6006383.83647   6446578.10944  22569393.9384                   22569394.6454
 -66654053.35246 -49555940.10943  24001826.6564                   24001824.5944
 -22229915.60247 -16195498.80945  20652297.7504                   20652294.7034
 -47478385.07046 -35731974.12944  22726156.7114                   22726154.2774
 -15137387.57847 -11630278.23445  20733463.5004                   20733461.2114
 -40237449.85947 -28661640.60545  20579606.9924                   20579602.1524
 11  8  1  2 19 30.0000000  0  7G10G25G17G12G04G05G02
 -27859950.65647 -21332156.85545  21349914.5554                   21349911.3364
   7415929.34047   7544925.29344  22837622.1884                   22837621.7074
 -65099740.44946 -48344787.28542  24297602.6414                   24297600.1134
 -20760017.30947 -15050123.49245  20932009.7894                   20932007.1604
 -45910656.92646 -34510367.76643  23024484.9304                   23024482.6724
 -13710902.15247 -10518731.09045  21004914.9694                   21004912.5204
 -38733036.82447 -27489370.69545  20865887.3984                   20865882.5164
 11  8  1  2 20  0.0000000  0  7G10G25G17G12G04G05G02
 -27903793.72347 -21366320.27345  21341571.4384                   21341568.0984
   7250460.03547   7415988.23444  22806133.7894                   22806134.0234
 -65120653.05946 -48361082.75442  24293623.2114                   24293620.9574
 -20864955.05147 -15131893.14145  20912041.1484                   20912038.2704
 -45918315.94146 -34516335.81643  23023027.3674                   23023025.3444
 -13859329.74247 -10634388.90245  20976670.1724                   20976667.4264
 -38803828.08247 -27544532.67245  20852415.8204                   20852411.2704
 11  8  1  2 20 30.0000000  0  7G10G25G17G12G04G05G02
 -27947053.75447 -21400029.36345  21333338.9144                   21333335.8284
   7085406.07847   7287374.82844  22774725.6094                   22774725.3444
 -65141368.08246 -48377224.38342  24289680.5634                   24289679.3054
 -20969302.22747 -15213202.60545  20892184.8674                   20892181.6174
 -45925940.96946 -34522277.37143  23021575.7504                   23021574.3914
 -14007241.33247 -10749644.64545  20948523.7424                   20948520.6564
 -38874400.23447 -27599523.94145  20838986.6954                   20838981.8834
 11  8  1  2 21  0.0000000  0  7G10G25G17G12G04G05G02
 -27989732.02747 -21433285.15245  21325217.2974                   21325214.5944
   6920769.87547   7159086.96144  22743395.7274                   22743396.0004
 -65161885.73446 -48393212.11343  24285776.3754                   24285774.5394
 -21073058.41047 -15294051.55545  20872440.6644                   20872437.4104
 -45933533.06646 -34528193.29743  23020131.2974                   23020129.0704
 -14154634.58647 -10864496.48845  20920475.0474                   20920472.5744
 -38944754.17247 -27654345.16045  20825598.3054                   20825593.6564
 11  8  1  2 21 30.0000000  0  7G10G25G17G12G04G05G02
 -28031831.16447 -21466089.66045  21317206.1254                   21317203.1604
   6756553.56647   7031126.25044  22712146.4924                   22712146.3754
 -65182206.05945 -48409046.15242  24281910.6094                   24281908.2344
 -21176223.32847 -15374439.77345  20852808.6414                   20852805.1484
 -45941094.07846 -34534084.98843  23018693.5474                   23018690.6174
 -14301508.47747 -10978943.63745  20892526.1174                   20892523.3834
 -39014891.76647 -27708997.80946  20812251.7504                   20812246.8914
 11  8  1  2 22  0.0000000  0  7G10G25G17G12G04G05G02
 -28073351.69547 -21498443.30544  21309304.7114                   21309301.8834
   6592760.92647   6903495.69144  22680977.9924                   22680977.4414
 -65202327.68046 -48424725.30142  24278080.5864                   24278078.9184
 -21278794.84847 -15454365.60245  20833290.3674                   20833286.9844
 -45948623.60246 -34539952.13344  23017259.9384                   23017257.6764
 -14447859.73847 -11092983.52745  20864676.1564                   20864674.0664
 -39084812.48847 -27763481.45745  20798946.7114                   20798941.2734
 11  8  1  2 22 30.0000000  0  7G10G25G17G12G04G05G02
 -28114297.52347 -21530349.12945  21301513.6334                   21301510.3404
   6429392.39146   6776195.59844  22649889.7664                   22649889.3524
 -65222252.69946 -48440251.35242  24274289.9844                   24274287.4064
 -21380773.50447 -15533829.44945  20813883.8754                   20813880.9964
 -45956124.91546 -34545797.30543  23015832.4454                   23015830.5204
 -14593688.54747 -11206616.32045  20836926.1564                   20836923.0004
 -39154519.68747 -27817798.73845  20785681.6484                   20785676.5634
 11  8  1  2 23  0.0000000  0  7G10G25G17G12G04G05G02
 -28154670.49247 -21561808.57445  21293830.3834                   21293827.6174
   6266450.36347   6649227.85944  22618882.9384                   22618882.5514
 -65241980.92246 -48455623.95343  24270535.8134                   24270533.4924
 -21482159.62147 -15612831.59845  20794591.2274                   20794587.8484
 -45963599.30146 -34551621.46944  23014409.8914                   23014408.1174
 -14738993.28147 -11319840.75045  20809275.4304                   20809272.6684
 -39224014.23447 -27871950.30545  20772457.3284                   20772452.1454
 11  8  1  2 23 30.0000000  0  7G10G25G17G12G04G05G02
 -28194472.54747 -21592823.14145  21286256.1804                   21286253.3634
   6103937.19947   6522594.30144  22587957.5634                   22587957.4184
 -65261512.84846 -48470843.63743  24266819.3914                   24266816.6684
 -21582952.72347 -15691371.65245  20775410.8134                   20775407.5704
 -45971047.77046 -34557425.47344  23012992.8674                   23012990.5664
 -14883771.90647 -11432655.22745  20781724.3364                   20781722.4104
 -39293297.48447 -27925937.23846  20759273.3914                   20759268.0084
 11  8  1  2 24  0.0000000  0  7G10G25G17G12G04G05G02
 -28233707.39547 -21623395.75045  21278790.1644                   21278787.6254
   5941853.73847   6396295.55144  22557113.6884                   22557113.9804
 -65280849.80546 -48485911.39543  24263140.1254                   24263136.3754
 -21683153.50847 -15769450.14845  20756343.5704                   20756339.8324
 -45978473.10246 -34563211.43443  23011579.9224                   23011578.2934
 -15028024.54347 -11545059.83645  20754275.0164                   20754272.0044
 -39362371.91047 -27979761.43445  20746128.8914                   20746123.5204
 11  8  1  2 24 30.0000000  0  7G10G25G17G12G04G05G02
 -28272381.93047 -21653531.74645  21271430.8594                   21271427.6994
   5780197.35547   6270329.60244  22526351.8284                   22526351.7974
 -65299996.71946 -48500831.04743  24259495.2664                   24259492.9344
 -21782766.28547 -15847070.48045  20737387.1724                   20737384.3284
 -45985881.50846 -34568984.18043  23010169.7814                   23010167.5394
 -15171754.53147 -11657057.19145  20726923.7274                   20726920.5044
 -39431243.52347 -28033427.60245  20733022.8984                   20733017.5204
 11  8  1  2 25  0.0000000  0  7G10G25G17G12G04G05G02
 -28310497.70747 -21683232.32045  21264177.0474                   21264174.7774
   5618970.92247   6144698.66844  22495670.8674                   22495671.0004
 -65318953.41846 -48515602.54342  24255888.0004                   24255885.7624
 -21881790.02747 -15924231.80945  20718544.0784                   20718540.3754
 -45993273.56246 -34574744.22343  23008763.3444                   23008760.4494
 -15314959.46147 -11768645.40245  20699672.7034                   20699669.6054
 -39499913.06647 -28086936.30945  20719955.6024                   20719950.8834
 11  8  1  2 25 30.0000000  0  7G10G25G17G12G04G05G02
 -28348055.94147 -21712498.46945  21257030.5634                   21257027.8054
   5458177.75847   6019405.35544  22465073.2194                   22465073.1764
 -65337718.88746 -48530224.99243  24252317.2504                   24252315.1174
 -21980223.32447 -16000933.04745  20699812.1804                   20699809.3364
 -46000649.46146 -34580491.64543  23007359.4774                   23007356.5664
 -15457636.98447 -11879822.66045  20672522.0394                   20672518.7854
 -39568380.69547 -28140287.68045  20706926.4304                   20706922.0124
 11  8  1  2 26  0.0000000  0  7G10G25G17G12G04G05G02
 -28385056.22747 -21741329.84445  21249989.5944                   21249986.9384
   5297822.68847   5894453.42244  22434558.6334                   22434558.4844
 -65356290.82446 -48544696.64143  24248783.6174                   24248780.9804
 -22078063.26247 -16077171.93445  20681194.0234                   20681190.6454
 -46008007.78146 -34586225.34843  23005959.3364                   23005957.2504
 -15599782.86747 -11990585.64545  20645472.3364                   20645469.7074
 -39636644.80147 -28193480.46945  20693936.4224                   20693931.5784
 11  8  1  2 26 30.0000000  0  7G10G25G17G12G04G05G02
 -28421500.61747 -21769728.07045  21243054.6724                   21243051.8914
   5137908.00446   5769844.62944  22404127.9064                   22404127.3484
 -65374669.21946 -48559017.47743  24245285.8134                   24245283.4224
 -22175309.43447 -16152948.16045  20662688.6484                   20662685.2464
 -46015349.54346 -34591946.23843  23004562.6094                   23004560.5234
 -15741395.55947 -12100933.14845  20618524.4064                   20618521.4344
 -39704706.92247 -28246515.85945  20680984.3984                   20680979.6764
 11  8  1  2 27  0.0000000  0  7G10G25G17G12G04G05G02
 -28457393.68047 -21797696.66845  21236224.2034                   21236221.4304
   4978433.93047   5645579.17644  22373780.7504                   22373781.4064
 -65392856.22746 -48573189.21543  24241825.6024                   24241822.7814
 -22271963.43047 -16228262.94145  20644296.4614                   20644293.0744
 -46022678.19546 -34597656.87143  23003167.8284                   23003165.5554
 -15882475.65647 -12210865.65645  20591677.8524                   20591674.9414
 -39772570.18047 -28299396.28945  20668070.5394                   20668065.2424
 11  8  1  2 27 30.0000000  0  7G10G25G17G12G04G05G02
 -28492735.08247 -21825235.41045  21229498.7034                   21229496.4774
   4819404.74646   5521660.41044  22343518.5084                   22343518.3714
 -65410850.04346 -48587210.35943  24238401.8204                   24238398.8954
 -22368023.19147 -16303114.66845  20626016.8054                   20626012.9734
 -46029992.84446 -34603356.56243  23001776.1484                   23001773.6524
 -16023019.63747 -12320380.40245  20564933.1094                   20564930.2234
 -39840233.49247 -28352120.93445  20655194.3594                   20655189.5164
 11  8  1  2 28  0.0000000  0  7G10G25G17G12G04G05G02
 -26952104.89847 -20624744.34845  21522670.8754                   21522668.2034
   6236248.93847   6625694.89544  22613135.1564                   22613135.1254
 -63853229.05146 -47373479.75043  24534805.5234                   24534804.6414
 -20888063.87947 -15149899.59445  20907643.6564                   20907640.2344
 -44461873.25446 -33381445.19143  23300179.0164                   23300176.9454
 -14587600.27747 -11201871.77345  20838084.4694                   20838081.3094
 -38332274.71947 -27177088.10245  20942149.8674                   20942144.2664
 11  8  1  2 28 30.0000000  0  7G10G25G17G12G04G05G02
 -26986349.81647 -20651428.69545  21516154.9304                   21516151.8164
   6078116.30147   6502474.73844  22583043.1174                   22583043.5394
 -63870836.72345 -47387200.03542  24531455.8364                   24531453.5234
 -20982933.89547 -15223824.27345  20889590.2274                   20889586.6764
 -44469162.99646 -33387125.49643  23298792.0314                   23298789.5744
 -14727067.21147 -11310547.27045  20811544.5394                   20811541.8484
 -38399541.64547 -27229503.86345  20929349.0004                   20929344.2234
 11  8  1  2 29  0.0000000  0  8G10G25G29G17G12G04G05G02
 -27020048.83647 -20677687.65644  21509742.5634                   21509739.0084
   5920436.19947   6379607.18044  22553037.8204                   22553038.0474
  28015819.96115                  24588010.852
 -63888251.03945 -47400769.64843  24528142.0554                   24528139.6804
 -21077207.58247 -15297284.26645  20871650.8134                   20871647.4884
 -44476440.92246 -33392796.60243  23297405.8134                   23297404.8594
 -14865992.50447 -11418800.69945  20785107.7974                   20785105.2504
 -38466611.06247 -27281765.72345  20916585.8444                   20916581.5394
 11  8  1  2 29 30.0000000  0  8G10G25G29G17G12G04G05G02
 -27053204.38747 -20703523.12945  21503432.8834                   21503429.7034
   5763210.79747   6257093.94544  22523119.0164                   22523118.9804
  27844874.004 5                  24555479.938
 -63905471.90645 -47414188.55942  24524864.5004                   24524863.3484
 -21170884.98847 -15370279.61745  20853824.3364                   20853820.9694
 -44483708.54346 -33398459.68743  23296023.4304                   23296021.5984
 -15004374.82847 -11526631.04345  20758774.6024                   20758771.5394
 -38533484.18747 -27333874.63345  20903860.7274                   20903855.7624
 11  8  1  2 30  0.0000000  0  8G10G25G29G17G12G04G05G02
 -27085817.92247 -20728936.26245  21497226.8444                   21497223.6174
   5606443.24647   6134937.48844  22493287.2814                   22493287.1764
  27673877.902 5                  24522941.297
 -63922498.55145 -47427456.07043  24521624.8364                   24521623.4224
 -21263964.57447 -15442809.14545  20836112.0164                   20836108.3914
 -44490965.75846 -33404114.67243  23294642.0944                   23294640.9534
 -15142211.69147 -11634036.35245  20732545.3754                   20732542.2854
 -38600161.19147 -27385830.72345  20891172.5234                   20891167.4344
 11  8  1  2 30 30.0000000  0  8G10G25G29G17G12G04G05G02
 -27117893.05147 -20753929.85545  21491122.5704                   21491120.0744
   5450134.18847   6013138.28544  22463541.7974                   22463541.5084
  27502830.309 5                  24490391.148
 -63939332.75445 -47440573.68442  24518420.9694                   24518420.6254
 -21356447.84047 -15514874.00445  20818512.3834                   20818509.4734
 -44498215.19546 -33409763.57043  23293262.6644                   23293260.5944
 -15279503.19947 -11741016.70745  20706419.4304                   20706416.1564
 -38666644.77747 -27437636.08645  20878520.5864                   20878516.1134
 11  8  1  2 31  0.0000000  0  8G10G25G29G17G12G04G05G02
 -27149429.35947 -20778503.59844  21485122.1024                   21485119.1484
   5294288.65247   5891700.27044  22433886.2344                   22433885.5634
  27331734.49214                  24457832.008
 -63955971.93445 -47453539.26242  24515254.7814                   24515253.7304
 -21448331.82047 -15586471.89145  20801027.6804                   20801024.8714
 -44505455.16446 -33415405.10243  23291885.8984                   23291883.5234
 -15416245.59447 -11847569.17245  20680397.7504                   20680395.2734
 -38732933.16447 -27489289.36345  20865906.7814                   20865901.4384
 11  8  1  2 31 30.0000000  0  8G10G25G29G17G12G04G05G02
 -27180431.44547 -20802661.04744  21479222.3674                   21479219.6334
   5138906.24647   5770623.12544  22404317.1564                   22404317.2114
                                  24425263.711
 -63972418.79745 -47466355.04742  24512124.6254                   24512124.3204
 -21539619.08647 -15657604.82045  20783656.5944                   20783653.4344
 -44512689.21946 -33421041.99243  23290509.1414                   23290506.7854
 -15552439.93447 -11953694.60945  20654481.0704                   20654478.4414
 -38799030.10247 -27540793.44945  20853328.8524                   20853323.6884
 11  8  1  2 32  0.0000000  0  7G10G25G17G12G04G05G02
 -27210901.21147 -20826403.71544  21473423.7344                   21473420.6804
   4983990.00847   5649909.25044  22374837.8444                   22374837.1684
 -63988672.46945 -47479020.25442  24509032.5234                   24509031.7074
 -21630308.76647 -15728272.07445  20766398.9924                   20766395.1484
 -44519917.43746 -33426674.37543  23289133.7894                   23289131.2154
 -15688083.84847 -12059391.12145  20628669.0474                   20628665.9494
 -38864935.71947 -27592148.47345  20840787.5234                   20840782.1414
 11  8  1  2 32 30.0000000  0  6G10G25G12G04G05G02
 -27240843.50847 -20849735.35544  21467725.7424                   21467723.0784
   4829539.31347   5529558.11344  22345446.5084                   22345445.9614
 -21720403.39847 -15798475.66845  20749254.5084                   20749251.4924
 -44527143.68746 -33432305.18043  23287757.7424                   23287755.4964
 -15823178.79347 -12164659.88745  20602961.6724                   20602958.5314
 -38930653.95747 -27643357.45345  20828281.4224                   20828276.6174
 11  8  1  2 33  0.0000000  0  6G10G25G12G04G05G02
 -27270256.52047 -20872654.58244  21462128.7274                   21462125.7154
   4675560.41447   5409574.59844  22316145.3594                   22316145.1844
 -21809898.52747 -15868212.11345  20732224.0554                   20732220.5824
 -44534364.93446 -33437932.15643  23286384.2974                   23286381.9534
 -15957719.63747 -12269496.85945  20577359.1174                   20577356.0084
 -38996181.35247 -27694417.74645  20815812.2424                   20815807.1214
 11  8  1  2 33 30.0000000  0  6G10G25G12G04G05G02
 -27299140.84047 -20895161.83244  21456632.2974                   21456629.4804
   4522057.16047   5289961.72345  22286935.0784                   22286934.4184
 -21898792.51647 -15937480.13345  20715308.3284                   20715304.7814
 -44541580.39146 -33443554.55143  23285011.1414                   23285009.1764
 -16091703.04347 -12373899.48445  20551862.9144                   20551859.6414
 -39061517.73847 -27745329.19545  20803378.8834                   20803373.8284
 11  8  1  2 34  0.0000000  0  7G10G25G29G12G04G05G02
 -27327499.00447 -20917259.07444  21451235.8284                   21451232.8284
   4369031.83247   5170721.26644  22257815.3834                   22257814.9494
  28138195.61315                  24262288.359
 -21987085.23847 -16006279.64545  20698506.5864                   20698503.2194
 -44548791.12146 -33449173.29743  23283639.3834                   23283637.2934
 -16225127.68047 -12477866.70746  20526472.9304                   20526469.7464
 -39126664.00047 -27796092.49245  20790982.2734                   20790976.7934
 11  8  1  2 34 30.0000000  0  7G10G25G29G12G04G05G02
 -27355331.57047 -20938946.79345  21445939.6024                   21445936.8244
   4216488.30947   5051856.23845  22228787.0164                   22228786.8594
  27966777.418 5                  24229668.531
 -22074774.66847 -16074609.05545  20681820.2274                   20681816.5864
 -44555996.08246 -33454787.55943  23282266.6804                   23282265.5634
 -16357990.84447 -12581396.41045  20501189.5864                   20501186.5274
 -39191619.09847 -27846706.84445  20778621.9774                   20778616.4534
 11  8  1  2 35  0.0000000  0  7G10G25G29G12G04G05G02
 -27382641.18747 -20960227.00044  21440742.8134                   21440739.6564
   4064428.43847   4933368.07844  22199851.1804                   22199850.5864
  27795319.035 5                  24197041.102
 -22161861.44547 -16142468.85945  20665247.4774                   20665244.5664
 -44563196.48846 -33460398.26243  23280896.8284                   23280894.8134
 -16490291.35947 -12684487.68746  20476013.1024                   20476010.9264
 -39256384.35547 -27897173.25845  20766297.0474                   20766292.0084
 11  8  1  2 35 30.0000000  0  7G10G25G29G12G04G05G02
 -27409433.35247 -20981104.00444  21435644.9144                   21435641.2974
   3912851.21947   4815256.00444  22171006.8674                   22171006.3834
  27623818.305 6                  24164405.680
 -22248348.38747 -16209861.25845  20648790.0944                   20648786.2814
 -44570396.46546 -33466008.60243  23279527.5554                   23279524.8054
 -16622030.94147 -12787141.86346  20450944.2424                   20450941.5634
 -39320964.05947 -27947495.09045  20754008.4064                   20754003.0704
 11  8  1  2 36  0.0000000  0  7G10G25G29G12G04G05G02
 -27435710.96147 -21001580.03944  21430644.2114                   21430640.5274
   3761758.44547   4697521.42244  22142253.8364                   22142254.1484
  27452275.199 5                  24131762.141
 -22334236.30947 -16276786.91045  20632446.1804                   20632442.6644
 -44577597.14846 -33471619.49643  23278156.8364                   23278154.7274
 -16753208.81247 -12889358.36345  20425981.7664                   20425979.2544
 -39385359.77347 -27997673.54345  20741753.7584                   20741748.9534
 11  8  1  2 36 30.0000000  0  7G10G25G29G12G04G05G02
 -27461478.26647 -21021658.44144  21425740.5944                   21425737.2734
   3611150.30547   4580164.48445  22113594.5944                   22113593.9534
  27280688.715 5                  24099108.813
 -22419526.91047 -16343247.09845  20616215.3914                   20616212.3484
 -44584801.42246 -33477233.25043  23276786.4844                   23276784.3054
 -16883825.57447 -12991137.63345  20401126.5864                   20401123.2624
 -39449574.24647 -28047710.77345  20729534.2274                   20729529.0634
 11  8  1  2 37  0.0000000  0  7G10G25G29G12G04G05G02
 -25911314.63347 -19813738.73444  21720726.6884                   21720724.3014
   5036455.93047   5690792.28144  22384821.0004                   22384821.0594
  28684487.531 5                  24366243.125
 -20928795.37147 -15181638.09845  20899892.5704                   20899889.0864
 -43016587.87146 -32255248.62943  23575207.2974                   23575205.2814
 -15438453.92647 -11864873.96946  20676172.3754                   20676168.8794
 -37938183.98447 -26870004.04745  21017141.9924                   21017137.3874
 11  8  1  2 37 30.0000000  0  7G10G25G29G12G04G05G02
 -25936066.62947 -19833025.98444  21716016.8754                   21716014.1484
   4886824.77747   5574196.62144  22356347.3984                   22356347.0824
  28512818.207 5                  24333575.438
 -21012890.00847 -15247166.37545  20883889.8524                   20883886.4774
 -43023800.35946 -32260868.77043  23573835.3914                   23573832.9184
 -15567944.17647 -11965775.43045  20651530.4064                   20651527.3444
 -38002037.01247 -26919759.63345  21004991.4304                   21004985.9694
 11  8  1  2 38  0.0000000  0  7G10G25G29G12G04G05G02
 -25960314.87947 -19851920.72344  21711402.1174                   21711399.7974
   4737684.94547   5457983.81345  22327967.5314                   22327966.4964
  28341108.27045  23236956.93852  24300901.1024                   24300899.7034
 -21096387.27747 -15312229.16045  20868000.4304                   20867997.1134
 -43031018.51246 -32266493.34043  23572461.8524                   23572459.3054
 -15696869.72747 -12066236.87146  20626996.7274                   20626993.6374
 -38065711.10247 -26969375.78945  20992874.7894                   20992869.2664
 11  8  1  2 38 30.0000000  0  7G10G25G29G12G04G05G02
 -25984060.89147 -19870424.09844  21706884.0004                   21706880.7384
   4589039.73447   5342156.40644  22299680.7504                   22299680.3524
  28169359.59045  23103126.96142  24268218.7114                   24268217.1024
 -21179285.87147 -15376825.45745  20852225.7344                   20852222.2504
 -43038242.01646 -32272122.03543  23571087.3524                   23571085.0164
 -15825227.93447 -12166256.21946  20602571.0164                   20602567.7894
 -38129206.03947 -27018852.34445  20980792.3914                   20980787.0234
 11  8  1  2 39  0.0000000  0  7G10G25G29G12G04G05G02
 -26007310.07447 -19888540.34044  21702459.6724                   21702456.9264
   4440888.30147   5226713.78545  22271488.0554                   22271487.9384
  27997570.12146  22969265.06642  24235527.6094                   24235527.8094
 -21261588.92247 -15440957.70345  20836563.6414                   20836560.7384
 -43045474.62946 -32277757.82443  23569710.6174                   23569708.6294
 -15953020.64547 -12265834.92645  20578252.5004                   20578249.8554
 -38192525.57847 -27068192.22345  20968742.4144                   20968737.3554
 11  8  1  2 39 30.0000000  0  7G10G25G29G12G04G05G02
 -26030064.19947 -19906270.81244  21698129.4144                   21698126.8984
   4293233.12947   5111657.84444  22243390.3284                   22243390.5904
  27825741.09045  22835372.35242  24202829.9614                   24202829.6134
 -21343296.20347 -15504625.69945  20821015.4844                   20821012.4844
 -43052716.68046 -32283400.94943  23568332.3364                   23568330.6454
 -16080246.43747 -12364971.88346  20554043.0394                   20554039.5514
 -38255670.12947 -27117395.75845  20956726.6094                   20956721.3444
 11  8  1  2 40  0.0000000  0  7G10G25G29G12G04G05G02
 -26052325.40647 -19923617.18745  21693893.5004                   21693890.3874
   4146076.67647   4996990.52044  22215387.8134                   22215386.9964
  27653873.98045  22701450.01242  24170124.1094                   24170125.6024
 -21424407.49647 -15567829.28945  20805581.1094                   20805577.0904
 -43059968.29446 -32289051.55443  23566952.2734                   23566950.3914
 -16206903.96947 -12463666.02045  20529940.3594                   20529937.3634
 -38318640.46147 -27166463.52745  20944743.7734                   20944738.6174
 11  8  1  2 40 30.0000000  0  7G10G25G29G12G04G05G02
 -26074096.28147 -19940581.51644  21689750.5864                   21689748.0394
   3999420.82047   4882713.27345  22187479.6094                   22187479.5434
  27481969.453 5                  24137412.453
 -21504922.90247 -15630568.56245  20790259.4614                   20790255.3954
 -43067230.42246 -32294710.33643  23565570.7584                   23565568.2734
 -16332992.16447 -12561916.54345  20505946.5944                   20505943.4654
 -38381437.35247 -27215396.14545  20932793.7814                   20932788.7074
 11  8  1  2 41  0.0000000  0  7G10G25G29G12G04G05G02
 -26095378.60247 -19957165.12944  21685700.0164                   21685697.9144
   3853268.19147   4768828.16044  22159668.3204                   22159667.5164
  27310029.027 5                  24104691.953
 -21584842.02747 -15692843.18745  20775051.1644                   20775047.6604
 -43074503.46946 -32300377.63343  23564186.3594                   23564184.6414
 -16458509.40247 -12659722.15246  20482061.5864                   20482058.5124
 -38444061.24647 -27264193.96145  20920876.9614                   20920871.3874
 11  8  1  2 41 30.0000000  0  7G10G25G29G12G04G05G02
 -26116175.50447 -19973370.51244  21681743.4144                   21681740.3524
   3707620.42247   4655336.42644  22131952.4144                   22131951.4264
  27138053.059 5                  24071967.320
 -21664166.22747 -15754654.25045  20759956.1094                   20759952.5784
 -43081788.38746 -32306054.14143  23562800.6024                   23562797.9494
 -16583455.16447 -12757082.45345  20458285.0634                   20458281.4574
 -38506513.32847 -27312857.90245  20908992.5634                   20908987.5784
 11  8  1  2 42  0.0000000  0  7G10G25G29G12G04G05G02
 -26136490.89547 -19989200.65644  21677876.9694                   21677874.2304
   3562477.75847   4542238.29345  22104332.2344                   22104331.3164
  26966040.723 5                  24039233.078
 -21742896.88347 -15816002.79745  20744973.7274                   20744970.5864
 -43089087.67246 -32311741.89543  23561411.0474                   23561408.8324
 -16707830.10547 -12853997.97346  20434617.4144                   20434614.5354
 -38568796.03947 -27361389.85545  20897140.7504                   20897135.3524
 11  8  1  2 42 30.0000000  0  7G10G25G29G12G04G05G02
 -26156327.39147 -20004657.66044  21674102.3364                   21674099.5944
   3417842.19147   4429535.29345  22076809.0864                   22076808.7424
  26793993.082 5                  24006493.469
 -21821034.59047 -15876889.30945  20730104.4224                   20730101.1724
 -43096401.99846 -32317441.39543  23560019.6414                   23560017.7504
 -16831633.35547 -12950468.00046  20411058.0394                   20411054.7344
 -38630910.55947 -27409790.77345  20885320.4454                   20885315.4924
 11  8  1  2 43  0.0000000  0  7G10G25G29G12G04G05G02
 -26175687.92647 -20019743.78144  21670418.6254                   21670415.8444
   3273715.25047   4317228.63745  22049382.8594                   22049382.1954
  26621910.402 5                  23973747.875
 -21898579.57447 -15937313.97345  20715349.1414                   20715345.3054
 -43103732.68446 -32323153.58643  23558624.5314                   23558622.3054
 -16954864.39847 -13046492.17245  20387607.9224                   20387604.7624
 -38692858.07047 -27458061.53945  20873532.3444                   20873527.2624
 11  8  1  2 43 30.0000000  0  7G10G25G29G12G04G05G02
 -26194572.65247 -20034459.14544  21666823.9304                   21666821.6174
   3130101.47347   4205321.83245  22022053.7274                   22022053.2814
  26449796.203 5                  23940994.758
 -21975530.26247 -15997275.53945  20700705.3054                   20700702.1884
 -43111077.43746 -32328876.76243  23557226.2664                   23557224.2504
 -17077519.58647 -13142067.60946  20364267.3524                   20364264.8014
 -38754636.63747 -27506200.66845  20861776.4774                   20861771.1764
 11  8  1  2 44  0.0000000  0  7G10G25G29G12G04G05G02
 -26212986.71947 -20048807.76244  21663320.5314                   21663318.0514
   2987000.12947   4093814.34045  21994822.4924                   21994821.6054
  26277649.117 5                  23908237.133
 -22051889.39547 -16056776.15245  20686174.8594                   20686171.1914
 -43118439.89546 -32334613.76243  23555826.3754                   23555823.8954
 -17199600.47347 -13237195.53946  20341036.6564                   20341033.2544
 -38816249.68747 -27554210.82445  20850051.5004                   20850046.5204
 11  8  1  2 44 30.0000000  0  7G10G25G29G12G04G05G02
 -26230931.67247 -20062790.84844  21659905.4774                   21659903.0474
   2844413.80947   3982708.16445  21967689.8054                   21967688.7464
  26105470.504 5                  23875472.078
 -22127656.71947 -16115815.61745  20671757.0234                   20671753.1024
 -43125820.01646 -32340364.43743  23554421.0704                   23554419.4024
 -17321106.07047 -13331875.21146  20317914.5944                   20317911.8324
 -38877697.46147 -27602092.17645  20838358.8914                   20838353.3324
 11  8  1  2 45  0.0000000  0  7G10G25G29G12G04G05G02
 -26248410.05547 -20076410.35544  21656579.1334                   21656576.9734
   2702344.69147   3872004.99645  21940654.7814                   21940653.5084
  25933261.570 5                  23842701.922
 -22202832.49647 -16174394.14545  20657450.9224                   20657447.3094
 -43133218.21946 -32346129.29343  23553013.7114                   23553011.5984
 -17442034.93747 -13426105.46546  20294902.8674                   20294899.5554
 -38938980.81647 -27649845.43045  20826696.7504                   20826691.2034
 11  8  1  2 45 30.0000000  0  7G10G25G29G12G04G05G02
 -24690005.68447 -18862069.27344  21953133.8444                   21953131.3954
   4136217.61747   4989308.61745  22213511.7274                   22213510.5394
  27336447.152 5                  24109718.836
 -20701996.22347 -15004911.32445  20943050.9534                   20943047.7074
 -41565216.36346 -31124309.66043  23851394.4304                   23851392.3984
 -15986963.95747 -12292283.89546  20571793.6484                   20571789.9144
 -37424680.07047 -26469870.82045  21114858.5784                   21114853.6914
 11  8  1  2 46  0.0000000  0  7G10G25G29G12G04G05G02
 -24706560.57447 -18874969.18744  21949983.6954                   21949981.5394
   3995186.65647   4879414.39845  22186674.2274                   22186673.3204
  27164178.648 5                  24076937.219
 -20775991.93747 -15062570.32445  20928969.4534                   20928966.4494
 -41572654.12146 -31130105.29743  23849978.5164                   23849977.3754
 -16106738.73847 -12385614.86746  20549001.3524                   20548998.0004
 -37485638.39147 -26517370.78145  21103258.7584                   21103253.3244
 11  8  1  2 46 30.0000000  0  7G10G25G29G12G04G05G02
 -24722658.03947 -18887512.66444  21946920.2584                   21946917.1954
   3854677.11347   4769926.48445  22159936.0474                   22159935.3014
  26991881.461 5                  24044150.109
 -20849398.67247 -15119770.37145  20915001.2974                   20914997.5124
 -41580113.07046 -31135917.46143  23848560.0164                   23848558.2234
 -16225935.67247 -12478495.57845  20526319.0784                   20526315.0514
 -37546435.85247 -26564745.41445  21091689.2344                   21091683.7814
 11  8  1  2 47  0.0000000  0  7G10G25G29G12G04G05G02
 -24738299.25447 -18899700.63344  21943944.0234                   21943941.5084
   3714692.06647   4660847.25845  22133297.3754                   22133297.2464
  26819557.668 5                  24011358.250
 -20922215.51647 -15176510.77345  20901144.2274                   20901140.7774
 -41587592.80546 -31141745.83243  23847136.0164                   23847134.4304
 -16344553.03547 -12570924.65646  20503746.3984                   20503743.0634
 -37607071.97747 -26611994.33645  21080150.1724                   21080145.7704
 11  8  1  2 47 30.0000000  0  7G10G25G29G12G04G05G02
 -24753489.44547 -18911537.14844  21941053.5004                   21941050.5004
   3575230.75047   4552176.14845  22106758.9384                   22106758.1604
  26647205.83646  23769949.63752  23978560.3054                   23978560.1094
 -20994446.15247 -15232794.37545  20887399.4224                   20887396.0554
 -41595096.23846 -31147592.67643  23845708.1644                   23845706.2034
 -16462592.82447 -12662903.69545  20481284.4384                   20481280.9304
 -37667550.18747 -26659120.19945  21068641.5474                   21068636.4844
 11  8  1  2 48  0.0000000  0  7G10G25G29G12G04G05G02
 -24768229.39847 -18923022.81244  21938248.9064                   21938245.7154
   3436296.69947   4443915.91045  22080320.4144                   22080320.1644
  26474829.09446  23635630.25842  23945757.9694                   23945758.2704
 -21066089.29347 -15288620.19945  20873766.0004                   20873762.1884
 -41602622.44546 -31153457.25843  23844276.5864                   23844274.5474
 -16580052.15647 -12754430.42646  20458932.1254                   20458928.9734
 -37727869.66047 -26706122.36745  21057162.7194                   21057158.6564
 11  8  1  2 48 30.0000000  0  7G10G25G29G12G04G05G02
 -24782523.86747 -18934161.34844  21935528.8754                   21935525.4144
   3297889.46947   4336066.14545  22053982.1484                   22053982.2234
  26302426.03946  23501290.39143  23912950.6094                   23912950.5434
 -21137147.50047 -15343990.21145  20860244.1484                   20860240.7464
 -41610174.03146 -31159341.58643  23842838.9064                   23842837.5594
 -16696932.60247 -12845506.07046  20436690.8674                   20436687.5234
 -37788033.14847 -26753003.00445  21045714.7664                   21045709.0164
 11  8  1  2 49  0.0000000  0  7G10G25G29G12G04G05G02
 -24796374.40647 -18944953.97744  21932893.2974                   21932889.6884
   3160012.12547   4228629.28545  22027745.1174                   22027744.6524
  26129998.94545  23366931.71942  23880139.0164                   23880139.1804
 -21207620.05147 -15398903.88345  20846833.9224                   20846830.3524
 -41617750.32046 -31165245.19142  23841397.3524                   23841394.8594
 -16813232.29747 -12936129.19946  20414559.7344                   20414556.2384
 -37848039.80547 -26799761.43045  21034296.9384                   21034290.4184
 11  8  1  2 49 30.0000000  0  7G10G25G29G12G04G05G02
 -24809783.49647 -18955402.63744  21930341.0944                   21930338.1374
   3022666.46547   4121606.72345  22001608.7584                   22001608.7304
  25957548.71945  23232555.07042  23847323.0554                   23847322.7934
 -21277507.96947 -15453361.99645  20833534.5314                   20833530.7504
 -41625351.91846 -31171168.53243  23839950.7814                   23839948.4574
 -16928950.67647 -13026299.33646  20392538.8134                   20392535.7774
 -37907891.10947 -26846398.80545  21022905.5004                   21022901.6524
 11  8  1  2 50  0.0000000  0  7G10G25G29G12G04G05G02
 -24822754.16447 -18965509.62544  21927873.1174                   21927868.7344
   2885853.87147   4014999.55545  21975574.1024                   21975573.9344
  25785076.46545  23098161.20742  23814501.1724                   23814501.8014
 -21346811.84847 -15507365.00845  20820346.7424                   20820343.3284
 -41632979.68046 -31177112.20343  23838499.3754                   23838496.9614
 -17044087.10947 -13116016.01646  20370629.6174                   20370625.8444
 -37967587.77047 -26892915.67645  21011546.7344                   21011542.4574
 11  8  1  2 50 30.0000000  0  7G10G25G29G12G04G05G02
 -24835287.81647 -18975276.09844  21925488.3674                   21925484.5824
   2749577.33247   3908810.07045  21949642.0704                   21949641.2154
  25612584.039 5                  23781678.141
 -21415531.23047 -15560912.57045  20807269.8524                   20807266.1054
 -41640633.02746 -31183075.84443  23837043.4064                   23837040.6414
 -17158640.07447 -13205278.04746  20348830.6884                   20348827.7424
 -38027129.50847 -26939311.82445  21000215.8984                   21000210.9654
 11  8  1  2 51  0.0000000  0  7G10G25G29G12G04G05G02
 -24847389.53147 -18984706.00844  21923184.8134                   21923181.6954
   2613835.96147   3803037.60245  21923811.6414                   21923810.6414
  25440070.414 6                  23748850.391
 -21483669.57047 -15614007.35945  20794303.7584                   20794299.7934
 -41648314.82446 -31189061.63743  23835580.1724                   23835578.7774
 -17272611.55547 -13294086.96146  20327142.8054                   20327139.3794
 -38086519.11347 -26985589.43045  20988914.3284                   20988909.8834
 11  8  1  2 51 30.0000000  0  7G10G25G29G12G04G05G02
 -24859059.34047 -18993799.38344  21920964.0554                   21920961.2074
   2478634.38747   3697685.75445  21898083.4454                   21898082.6214
  25267539.383 5                  23716019.195
 -21551224.67247 -15666647.69545  20781447.8444                   20781444.2504
 -41656022.73046 -31195067.80943  23834114.0164                   23834112.2894
 -17385997.70747 -13382439.80146  20305565.9064                   20305562.5084
 -38145754.71547 -27031747.03545  20977641.9144                   20977636.9414
 11  8  1  2 52  0.0000000  0  7G10G25G29G12G04G05G02
 -24870303.96147 -19002561.43444  21918824.7664                   21918821.4494
   2343969.97747   3592752.49245  21872457.3204                   21872456.8054
  25094988.055 5                  23683182.992
 -21618201.57047 -15718837.46145  20768702.8444                   20768699.3404
 -41663761.32846 -31201097.90243  23832641.4614                   23832640.0944
 -17498802.63347 -13470339.71946  20284099.8054                   20284096.6334
 -38204841.34047 -27077788.55545  20966398.4064                   20966393.3714
 11  8  1  2 52 30.0000000  0  7G10G25G29G12G04G05G02
 -24881125.64547 -19010993.87544  21916765.0634                   21916761.8954
   2209845.01647   3488239.56645  21846934.3674                   21846933.5394
  24922418.000 6                  23650343.297
 -21684600.22747 -15770576.66445  20756067.1804                   20756063.9844
 -41671530.73446 -31207152.00842  23831163.4144                   23831160.9884
 -17611025.12147 -13557785.78546  20262744.3674                   20262741.0744
 -38263778.85247 -27123713.89545  20955183.6484                   20955178.0354
 11  8  1  2 53  0.0000000  0  7G10G25G29G12G04G05G02
 -24891526.10247 -19019098.15244  21914785.7894                   21914782.5234
   2076261.72747   3384148.71945  21821513.3834                   21821513.6214
  24749830.93045  22996861.84453  23617500.5554                   23617499.8524
 -21750421.04347 -15821865.60245  20743542.1724                   20743538.3594
 -41679330.77745 -31213229.93042  23829677.8674                   23829676.4574
 -17722664.28947 -13644777.32846  20241500.1884                   20241497.1054
 -38322567.64847 -27169523.32845  20943996.1174                   20943991.0234
 11  8  1  2 53 30.0000000  0  7G10G25G29G12G04G05G02
 -24901508.87147 -19026876.93744  21912886.6094                   21912883.9804
   1943221.05947   3280480.69945  21796197.1174                   21796196.9144
  24577227.65646  22862365.91042  23584656.2584                   23584654.4454
 -21815665.17247 -15872705.16445  20731126.4384                   20731122.6454
 -41687162.55146 -31219332.64143  23828189.0474                   23828186.7774
 -17833720.15647 -13731314.34446  20220367.0944                   20220363.9064
 -38381208.85247 -27215217.76645  20932837.1884                   20932832.0274
 11  8  1  2 54  0.0000000  0  7G10G25G29G12G04G05G02
 -24911076.26647 -19034332.02744  21911065.8134                   21911062.7854
   1810724.85947   3177236.93445  21770983.8674                   21770983.0044
  24404609.41445  22727858.27742  23551807.0554                   23551806.4344
 -21880333.49647 -15923096.05545  20718820.3594                   20718817.2154
 -41695026.15646 -31225460.08642  23826691.6954                   23826690.0904
 -17944191.69547 -13817396.03946  20199344.9384                   20199341.4804
 -38439702.73847 -27260797.41045  20921706.0784                   20921700.9694
 11  8  1  2 54 30.0000000  0  7G10G25G29G12G04G05G02
 -23344810.47347 -17813865.16444  22209116.5864                   22209113.5084
   3254199.25847   4302022.20745  22045668.3364   22045667.2464   25807403.21945
  23820944.38742                  23818750.0634                   23818749.0204
 -20369004.64847 -14745437.20745  21006416.9614                   21006413.8244
 -40127501.76246 -30004012.49643  24124981.1884                   24124980.2274
 -16478655.12147 -12675419.47346  20478226.6804                   20478223.8674
 -36922628.08647 -26078661.31245  21210395.6804                   21210390.7234
 11  8  1  2 55  0.0000000  0  7G10G25G29G12G04G05G02
 -23353554.09047 -17820678.37144  22207452.3914                   22207449.8714
   3122797.67647   4199631.37545  22020663.5164   22020662.7344   25634759.34445
  23686416.74642                  23785896.8754                   23785896.7074
 -20432522.57847 -14794931.69145  20994329.4694                   20994326.2384
 -40135429.55946 -30010190.00843  24123474.3594                   24123471.3014
 -16587956.50447 -12760589.34446  20457427.8674                   20457424.5474
 -36980828.82047 -26124012.51645  21199320.6724                   21199315.0394
 11  8  1  2 55 30.0000000  0  7G10G25G29G12G04G05G02
 -23361892.78547 -17827176.07444  22205865.3914                   22205863.2624
   2991943.05147   4097666.75845  21995762.3834   21995762.0554   25462102.05146
  23551878.67642                  23753041.9694                   23753041.3244
 -20495469.92247 -14843981.56645  20982351.1094                   20982348.0164
 -40143393.03546 -30016395.33243  24121957.6334                   24121955.6564
 -16696675.17647 -12845305.16846  20436739.3054                   20436736.5274
 -37038886.56247 -26169252.30945  21188272.5864                   21188267.3834
 11  8  1  2 56  0.0000000  0  7G10G25G29G12G04G05G02
 -23369828.10547 -17833359.42644  22204355.4144                   22204352.7584
   2861637.91847   3996130.30545  21970966.2504   21970965.6254   25289433.29745
  23417331.60942                  23720183.5634                   23720183.3714
 -20557846.17647 -14892586.41845  20970481.4844                   20970478.1844
 -40151391.12146 -30022627.58242  24120435.9844                   24120434.2384
 -16804809.30547 -12929565.51646  20416161.8984                   20416158.8794
 -37096800.93447 -26214380.37545  21177252.3594                   21177246.0594
 11  8  1  2 56 30.0000000  0  7G10G25G29G12G04G05G02
 -23377361.14846 -17839229.34044  22202921.5704                   22202919.9614
   2731885.23847   3895024.34045  21946274.8204   21946274.4534   25116756.20745
  23282778.12542                  23687322.8444                   23687324.0434
 -20619650.92247 -14940745.95745  20958720.4694                   20958716.8134
 -40159422.90646 -30028886.11342  24118907.7584                   24118905.7774
 -16912357.24247 -13013369.07846  20395695.8594                   20395693.3794
 -37154571.06647 -26259396.05145  21166258.0944                   21166253.3524
 11  8  1  2 57  0.0000000  0  7G10G25G29G12G04G05G02
 -23384496.44146 -17844789.34044  22201563.8594                   22201562.0744
   2602684.72347   3794348.64145  21921689.1024   21921688.7814   24944069.848 5
                                  23654463.227
 -20680886.96147 -14988462.35245  20947066.9454                   20947064.2504
 -40167490.57446 -30035172.63743  24117371.4694                   24117371.1294
 -17019320.45747 -13096717.01246  20375342.0784                   20375339.0824
 -37212199.30547 -26304301.16845  21155291.8204                   21155286.7544
 11  8  1  2 57 30.0000000  0  7G10G25G29G12G04G05G02
 -23391236.98046 -17850041.71544  22200282.0234                   22200279.2894
   2474037.73047   3694104.26245  21897207.7344   21897207.8674   24771375.555 5
                                  23621600.125
 -20741555.20347 -15035736.31245  20935522.0784                   20935519.5474
 -40175594.82046 -30041487.63342  24115830.9614                   24115828.6334
 -17125698.85947 -13179609.25446  20355099.3054                   20355095.6484
 -37269686.43747 -26349096.32045  21144352.4534                   21144346.8164
 11  8  1  2 58  0.0000000  0  7G10G25G29G12G04G05G02
 -23397584.81247 -17854988.07444  22199074.0394                   22199071.2624
   2345946.04347   3594292.59045  21872833.7664   21872832.6524   24598675.09446
  23155385.73853                  23588736.2814                   23588734.9384
 -20801655.96147 -15082568.06645  20924086.5234                   20924082.5004
 -40183735.34046 -30047830.87942  24114280.7734                   24114279.0704
 -17231491.75447 -13262045.25446  20334967.2114                   20334964.1294
 -37327032.73047 -26393781.72345  21133439.9064                   21133434.6564
 11  8  1  2 58 30.0000000  0  7G10G25G29G12G04G05G02
 -23403543.64547 -17859631.32044  22197939.3284                   22197937.2464
   2218410.06647   3494913.92645  21848563.8134   21848562.7274   24425968.49645
  23020809.24643                  23555871.7664                   23555870.2544
 -20861192.12947 -15128959.88345  20912756.6094                   20912753.3404
 -40191913.60246 -30054203.53542  24112724.8204                   24112723.0084
 -17336700.23447 -13344025.86746  20314946.8284                   20314943.1094
 -37384240.22747 -26438358.97745  21122553.5704                   21122548.5594
 11  8  1  2 59  0.0000000  0  7G10G25G29G12G04G05G02
 -23409116.26246 -17863973.62144  22196879.3204                   22196876.2074
   2091431.51647   3395969.60945  21824400.9774   21824400.4104   24253257.55546
  22886229.40643                  23523006.2344                   23523005.3754
 -20920164.25847 -15174912.19945  20901534.6254                   20901531.2274
 -40200129.68046 -30060605.61343  24111161.3284                   24111159.3014
 -17441323.46947 -13425550.43746  20295037.6484                   20295034.4574
 -37441308.61347 -26482827.84445  21111694.0314                   21111688.6414
 11  8  1  2 59 30.0000000  0  7G10G25G29G12G04G05G02
 -23414303.35546 -17868015.49644  22195891.9384                   22195889.3404
   1965013.60547   3297462.18045  21800344.0704   21800343.8014   24080545.34846
  22751648.46543                  23490139.6644                   23490138.7934
 -20978571.51247 -15220424.34445  20890419.8674                   20890416.8794
 -40208382.12546 -30067036.13343  24109591.7664                   24109588.8134
 -17545359.39547 -13506617.38346  20275239.8984                   20275236.9144
 -37498236.52347 -26527187.24245  21100860.9614                   21100855.9184
 11  8  1  3  0  0.0000000  0  7G10G25G29G12G04G05G02
 -23419109.16846 -17871760.28543  22194977.2114                   22194974.1134
   1839155.97347   3199391.32045  21776393.7274   21776393.6804   23907831.52046
  22617066.37143                  23457273.0314                   23457272.2344
 -21036416.68047 -15265498.50445  20879412.3834                   20879409.1294
 -40216672.97746 -30073496.53943  24108013.1094                   24108011.7894
 -17648809.74247 -13587228.01646  20255554.1484                   20255550.8954
 -37555026.72747 -26571439.32445  21090054.1334                   21090048.8054
 11  8  1  3  0 30.0000000  0  7G10G25G29G12G04G05G02
 -23423537.77047 -17875211.12944  22194135.3984                   22194132.4184
   1713858.82047   3101757.17245  21752551.2194   21752550.1094   23735116.06346
  22482482.92243                  23424406.0234                   23424404.2704
 -21093701.58247 -15310136.08645  20868511.4694                   20868508.0594
 -40225003.61346 -30079987.93742  24106429.1724                   24106426.1334
 -17751675.31247 -13667382.99246  20235979.3984                   20235976.6484
 -37611680.85547 -26615585.38345  21079273.0394                   21079267.8834
 11  8  1  3  1  0.0000000  0  7G10G25G29G12G04G05G02
 -23427591.39146 -17878369.77744  22193363.1564                   22193360.2664
   1589123.96547   3004561.19945  21728814.4304   21728814.0824   23562400.97746
  22347899.77743                  23391540.4534                   23391538.7424
 -21150427.45347 -15354338.06645  20857717.1254                   20857713.4494
 -40233373.78146 -30086510.18042  24104835.0084                   24104833.0204
 -17853955.54347 -13747081.85546  20216515.6804                   20216512.7584
 -37668198.67247 -26659625.23445  21068517.9304                   21068512.7074
 11  8  1  3  1 30.0000000  0  7G10G25G29G12G04G05G02
 -23431273.33647 -17881238.83644  22192662.7344                   22192660.1604
   1464952.07047   2907803.89145  21705185.1884   21705185.0554   23389687.06646
  22213317.57043                  23358673.3284                   23358672.4804
 -21206596.08247 -15398105.84045  20847028.4614                   20847025.2934
 -40241784.539 5                  24103235.055
 -17955651.20747 -13826325.20746  20197164.2734                   20197160.5744
 -37724581.63347 -26703559.99245  21057788.9304                   21057783.8484
 11  8  1  3  2  0.0000000  0  7G10G25G29G12G04G05G02
 -23434584.57046 -17883819.03544  22192032.8444                   22192030.4264
   1341346.16447   2811487.60945  21681663.8284   21681663.4104   23216977.39546
  22078738.71543                  23325807.8594                   23325806.6454
 -21262207.04347 -15441439.05145  20836445.6414                   20836442.8014
 -40250234.398 5                  24101626.500
 -18056760.54747 -13905111.68746  20177923.4064                   20177920.4024
 -37780828.44947 -26747388.66845  21047085.6334                   21047080.0204
 11  8  1  3  2 30.0000000  0  7G10G25G29G12G04G05G02
 -23437529.36746 -17886113.68044  22191472.8524                   22191469.1844
   1218306.05547   2715612.19945  21658250.3284   21658249.7074   23044271.88346
  21944163.01643                  23292943.9694                   23292940.7074
 -21317262.64847 -15484339.53145  20825969.1884                   20825965.6174
 -40258725.062 6                  24100011.969
 -18157284.75047 -13983442.21946  20158794.8674                   20158791.3754
 -37836940.96947 -26791112.69545  21036407.6254                   21036402.5314
 11  8  1  3  3  0.0000000  0  7G10G25G29G12G04G05G02
 -23440109.50847 -17888124.19544  22190982.4384                   22190978.8134
   1095833.89147   2620179.36745  21634944.3054   21634944.2114   22871572.85946
  21809592.42243                  23260079.6804                   23260078.3554
 -21371763.49647 -15526807.71945  20815597.7504                   20815594.6454
 -40267255.836 6                  24098388.766
 -18257222.81647 -14061316.02346  20139776.7584                   20139774.0824
 -37892918.80547 -26834731.78945  21025755.6884                   21025750.5004
 11  8  1  3  3 30.0000000  0  7G10G25G29G12G04G05G02
 -21866908.10247 -16662252.96544  22490351.9774                   22490348.8054
   2549354.53947   3752792.87945  21911540.3444   21911540.3874   24274307.08646
  22902632.07443                  23527011.1414                   23527008.3094
 -19850289.32447 -14341243.42245  21105125.5704                   21105121.6524
 -38700407.048 6                  24396549.578
 -16781151.94547 -12911130.90646  20420663.5704                   20420660.8054
 -36373341.07047 -25650645.22345  21314921.6804                   21314916.0004
 11  8  1  3  4  0.0000000  0  7G10G25G29G12G04G05G02
 -21868769.53547 -16663703.43044  22489997.7504                   22489994.4494
   2428019.46147   3658246.08645  21888451.2734   21888450.6094
  24101622.81346                  22768073.00043  23494150.5554   23494148.6994
 -19903686.73847 -14382851.78945  21094963.9534                   21094960.1334
 -38709021.37546 -28863845.09052  24394910.7114                   24394910.1684
 -16879920.48047 -12988093.38746  20401869.0944                   20401865.4024
 -36429053.63347 -25694057.60945  21304319.5394                   21304314.4494
 11  8  1  3  4 30.0000000  0  7G10G25G29G12G04G05G02
 -21870275.19547 -16664876.64844  22489711.3444                   22489707.5354
   2307255.12947   3564144.02345  21865469.9144   21865469.4574   23928948.60546
                                  22633521.72743  23461291.1174   23461289.1844
 -19956533.79347 -14424031.31245  21084907.3524                   21084904.3014
 -38717677.25846 -28870589.95342  24393263.6804                   24393262.3094
 -16978103.71147 -13064599.78546  20383184.8674                   20383182.0164
 -36484634.12547 -25737367.06645  21293742.7584                   21293737.4734
 11  8  1  3  5  0.0000000  0  7G10G25G29G12G04G05G02
 -21871430.48847 -16665776.86744  22489491.5314                   22489487.9804
   2187060.14847   3470485.62545  21842598.0634   21842597.2344   23756283.21946
                                  22498977.35943  23428433.8984   23428432.0984
 -20008834.16447 -14464784.85245  21074954.8834                   21074951.9804
 -38726377.68446 -28877369.52342  24391607.4064                   24391605.7074
 -17075704.53147 -13140652.35946  20364612.5634                   20364609.4734
 -36540085.07447 -25780575.59845  21283191.4064                   21283186.1994
 11  8  1  3  5 30.0000000  0  7G10G25G29G12G04G05G02
 -21872236.27746 -16666404.74244  22489337.7504                   22489334.5474
   2067437.29347   3377273.00845  21819834.3364   21819833.5864   23583629.76646
                                  22364442.30543  23395578.8284   23395578.1294
 -20060588.56647 -14505112.93745  21065106.3364                   21065103.1334
 -38735121.13746 -28884182.62142  24389943.7344                   24389942.0274
 -17172721.11347 -13216249.67646  20346150.7344                   20346147.6644
 -36595405.78547 -25823682.62945  21272664.0234                   21272658.4694
 11  8  1  3  6  0.0000000  0  8G10G25G29G26G12G04G05G02
 -21872695.54346 -16666762.60543  22489249.7274                   22489247.2974
   1948387.38747   3284506.87545  21797180.3594   21797179.5864   23410989.47346
                                  22229917.50843  23362726.1484   23362725.3524
  34296476.47715                  24840306.563
 -20111797.95347 -14545016.35945  21055361.5864                   21055358.2234
 -38743908.07046 -28891029.64542  24388271.5314                   24388268.9144
 -17269153.85947 -13291392.06246  20327799.9924                   20327796.8244
 -36650596.93447 -25866688.71545  21262161.6334                   21262156.2274
 11  8  1  3  6 30.0000000  0  8G10G25G29G26G12G04G05G02
 -21872817.00046 -16666857.27043  22489226.7504                   22489224.5004
   1829905.59447   3192183.42245  21774633.7344   21774633.3954   23238358.15246
                                  22095399.71144  23329875.5864   23329874.2424
  34112512.145 5                  24805297.711
 -20162469.62947 -14584500.78545  21045718.9694                   21045715.7504
 -38752744.75446 -28897915.40243  24386590.0004                   24386588.4694
 -17365009.10947 -13366084.44946  20309559.5704                   20309555.9304
 -36705664.52047 -25909598.52045  21251682.2034                   21251676.8134
 11  8  1  3  7  0.0000000  0  8G10G25G29G26G12G04G05G02
 -21872603.82046 -16666691.17644  22489267.4064                   22489264.5864
   1711992.68847   3100303.26245  21752195.4534   21752195.4344   23065736.68046
                                  21960889.60943  23297026.8834   23297025.2624
  33928430.051 5                  24770269.461
 -20212604.97347 -14623567.29745  21036178.5314                   21036175.7894
 -38761631.34446 -28904840.00443  24384899.2734                   24384896.7814
 -17460287.05547 -13440326.98846  20291428.7114                   20291425.3834
 -36760609.48847 -25952412.77345  21241226.8054                   21241221.3364
 11  8  1  3  7 30.0000000  0  8G10G25G29G26G12G04G05G02
 -21872058.09046 -16666265.91843  22489371.8984                   22489368.9264
   1594650.40647   3008867.75045  21729866.1804   21729865.5204   22893127.40646
                                  21826388.94143  23264181.0784   23264178.6644
  33744234.148 5                  24735216.969
 -20262205.46147 -14662217.02045  21026739.7274                   21026736.4494
 -38770567.50846 -28911803.22343  24383198.3594                   24383196.6454
 -17554987.41847 -13514119.46946  20273408.0234                   20273404.2384
 -36815431.44547 -25995131.18445  21230793.9614                   21230789.4184
 11  8  1  3  8  0.0000000  0  8G10G25G29G26G12G04G05G02
 -21871183.72746 -16665584.58644  22489538.7034                   22489535.7034
   1477878.71547   2917876.83245  21707644.7424   21707644.2934   22720530.68446
                                  21691898.09043  23231336.6484   23231334.0704
  33559926.223 5                  24700144.438
 -20311273.09847 -14700451.55545  21017402.5554                   21017399.5824
 -38779554.34846 -28918806.00042  24381488.1644                   24381485.9224
 -17649111.14547 -13587462.61346  20255496.5314                   20255493.4614
 -36870132.30547 -26037755.21545  21220384.7114                   21220380.1414
 11  8  1  3  8 30.0000000  0  8G10G25G29G26G12G04G05G02
 -21869980.34846 -16664646.88744  22489766.9774                   22489764.2774
   1361681.69947   2827333.74245  21685533.5554   21685533.4104   22547951.15646
                                  21557420.62544  23198494.7814   23198494.1054
  33375512.60915                  24665050.625
 -20359806.74647 -14738269.98045  21008167.6564                   21008163.5354
 -38788588.98846 -28925845.93442  24379768.6724                   24379767.0664
 -17742655.85247 -13660354.57846  20237695.5474                   20237692.3794
 -36924709.16047 -26080282.63745  21209999.3984                   21209994.4024
 11  8  1  3  9  0.0000000  0  8G10G25G29G26G12G04G05G02
 -21868451.65246 -16663455.71544  22490058.6094                   22490055.6914
   1246059.10547   2737238.23445  21663531.0864   21663530.1644   22375389.09046
                                  21422956.75843  23165658.1094   23165655.9964
  33190995.20345  26940013.91452  24629938.0234                   24629938.3794
 -20407808.69547 -14775674.09045  20999032.3594                   20999029.2544
 -38797673.00846 -28932924.39842  24378040.7584                   24378038.5354
 -17835622.60547 -13732796.18446  20220004.9304                   20220001.5784
 -36979163.57047 -26122714.65245  21199637.3284                   21199631.4224
 11  8  1  3  9 30.0000000  0  8G10G25G29G26G12G04G05G02
 -21866599.11746 -16662012.20344  22490410.6954                   22490407.2114
   1131012.91847   2647591.87545  21641638.6564   21641637.6994   22202847.22746
                                  21288508.65643  23132824.0234   23132822.6914
  33006377.95745  26796156.38342  24594807.5474                   24594808.1054
 -20455279.66047 -14812664.44945  20989999.3284                   20989996.2504
 -38806805.10546 -28940040.30942  24376301.6414                   24376301.2774
 -17928010.65647 -13804786.85946  20202423.6414                   20202420.2154
 -37033495.05147 -26165050.85945  21189298.1564                   21189293.4574
 11  8  1  3 10  0.0000000  0  8G10G25G29G26G12G04G05G02
 -21864424.96546 -16660318.04344  22490824.5394                   22490822.1134
   1016544.96947   2558396.08645  21619855.6024   21619855.2504   22030328.02346
                                  21154078.18043  23099995.0864   23099992.8634
  32821665.09845  26652224.49242  24559657.4614                   24559658.1994
 -20502219.93047 -14849241.29345  20981067.0164                   20981063.4454
 -38815984.81645 -28947193.34042  24374554.9454                   24374555.1334
 -18019819.49647 -13876326.19946  20184953.5004                   20184949.9734
 -37087703.12147 -26207290.91045  21178982.8984                   21178978.1684
 11  8  1  3 10 30.0000000  0  8G10G25G29G26G12G04G05G02
 -21861931.76646 -16658375.30943  22491299.3834                   22491296.2774
    902655.94947   2469651.42245  21598183.4614   21598183.3554   21857832.70346
                                  21019666.33243  23067170.0554   23067167.7544
  32636859.55945  26508220.32442  24524490.3134                   24524490.5474
 -20548631.69547 -14885406.30545  20972234.6094                   20972231.6884
 -38825212.359 5                  24372798.172
 -18111049.67647 -13947414.63746  20167592.3524                   20167589.5124
 -37141788.10247 -26249435.04345  21168690.9924                   21168685.5084
 11  8  1  3 11  0.0000000  0  8G10G25G29G26G12G04G05G02
 -21859120.21146 -16656184.48443  22491833.3364                   22491830.6564
    789348.89847   2381360.24645  21576622.5944   21576621.5474   21685365.02746
                                  20885276.02344  23034350.5474   23034348.7384
  32451966.68445  26364148.07442  24489306.7034                   24489306.8554
 -20594513.79747 -14921158.59445  20963503.5234                   20963500.5164
 -38834485.723 5                  24371035.594
 -18201699.48047 -14018050.83246  20150342.8834                   20150339.4924
 -37195748.38747 -26291482.02745  21158422.3754                   21158417.3284
 11  8  1  3 11 30.0000000  0  8G10G25G29G26G12G04G05G02
 -21855994.53146 -16653748.90243  22492429.0394                   22492425.2304
    676623.24647   2293522.09445  21555171.0394   21555170.1804   21512925.43446
                                  20750907.57043  23001536.1724   23001534.2934
  32266987.98445  26220008.99242  24454104.4304                   24454106.7974
 -20639869.86347 -14956500.99245  20954872.4064                   20954869.4264
 -38843806.402 5                  24369260.484
 -18291770.67647 -14088236.16846  20133202.7894                   20133198.8524
 -37249585.66447 -26333433.13745  21148177.9534                   21148172.4694
 11  8  1  3 12  0.0000000  0  8G10G25G29G26G12G04G05G02
 -20277139.02046 -15423471.86743  22792874.4144                   22792871.5394
   2139902.21947   3433739.48045  21833624.0864   21833622.9534   22915939.68846
                                  21844165.52343  23268521.2974   23268518.4734
  33657351.66045  27303409.47342  24718682.3054                   24718684.8524
 -19109281.24247 -13763834.53945  21246133.9614                   21246130.6914
 -37277755.574 5                  24667270.797
 -16805841.88347 -12930369.55946  20415965.0634                   20415962.1134
 -35727879.94147 -25147688.42645  21437748.4924                   21437743.2074
 11  8  1  3 12 30.0000000  0  8G10G25G29G26G12G04G05G02
 -20273397.40246 -15420556.30143  22793587.1334                   22793584.0204
   2028337.65647   3346806.07445  21812394.3524   21812393.1094   22743556.36346
                                  21709840.91044  23235717.5864   23235715.4774
  33472207.04345  27159140.99642  24683451.7344                   24683451.8524
 -19153593.64847 -13798363.69145  21237702.2734                   21237698.5204
 -37287175.414 5                  24665479.766
 -16894761.05947 -12999657.21146  20399044.9614                   20399041.0664
 -35781476.47347 -25189451.95345  21427549.4224                   21427544.1844
 11  8  1  3 13  0.0000000  0  8G10G25G29G26G12G04G05G02
 -20269350.46146 -15417402.85244  22794357.8914                   22794354.0664
   1917356.42247   3260327.20745  21791275.0234   21791274.4534   22571205.34846
                                  21575541.52043  23202920.6884   23202917.9144
  33286985.688 5                  24648204.344
 -19197385.65247 -13832487.34045  21229368.7424                   21229365.3204
 -37296643.387 6                  24663676.992
 -16983103.03947 -13068495.09846  20382233.0944                   20382230.3484
 -35834951.70747 -25231120.96545  21417373.4534                   21417367.9694
 11  8  1  3 13 30.0000000  0  8G10G25G29G26G12G04G05G02
 -20265001.00446 -15414013.66044  22795184.9224                   22795181.8914
   1806959.24247   3174303.46545  21770266.7894   21770266.1564   22398888.24246
                                  21441268.51644  23170129.4064   23170126.9694
  33101690.762 5                  24612942.508
 -19240658.46547 -13866206.40245  21221133.9844                   21221130.5664
 -37306159.340 6                  24661866.023
 -17070868.75047 -13136883.94546  20365532.2194                   20365529.4344
 -35888305.96547 -25272695.71145  21407220.4844                   21407214.7584
 11  8  1  3 14  0.0000000  0  8G10G25G29G26G12G04G05G02
 -20260353.37146 -15410392.12144  22796069.2504                   22796066.0204
   1697144.89847   3088733.86345  21749369.9924   21749369.5904   22226604.76646
                                  21307021.69143  23137344.8204   23137342.1684
  32916323.809 5                  24577669.922
 -19283415.80947 -13899523.82845  21212997.3754                   21212994.1334
 -37315725.492 6                  24660045.828
 -17158060.54347 -13204825.59046  20348940.0784                   20348937.4144
 -35941541.71547 -25314178.11345  21397089.7194                   21397084.8984
 11  8  1  3 14 30.0000000  0  8G10G25G29G26G12G04G05G02
 -20255408.58246 -15406539.05143  22797009.9144                   22797007.3874
   1587915.90647   3003620.37545  21728584.2274   21728583.5554   22054358.21146
                                  21172803.70343  23104567.8594   23104565.6564
  32730889.691 5                  24542382.930
 -19325657.21147 -13932439.21945  21204959.1644                   21204956.3834
 -37325340.187 6                  24658215.023
 -17244677.09047 -13272318.98846  20332458.1174                   20332454.4494
 -35994656.91447 -25355566.56245  21386982.9144                   21386977.5354
 11  8  1  3 15  0.0000000  0  8G10G25G29G26G12G04G05G02
 -20250169.46946 -15402456.64843  22798006.5704                   22798003.9774
   1479272.91047   2918963.50845  21707910.0084   21707909.2854   21882150.58246
                                  21038615.96943  23071797.0634   23071795.2854
  32545391.672 5                  24507084.086
 -19367384.88747 -13964954.29345  21197018.8134                   21197015.7504
 -37335003.430 6                  24656377.484
 -17330718.89547 -13339364.53946  20316084.8754                   20316081.6844
 -36047652.35547 -25396861.71545  21376897.6024                   21376892.5084
 11  8  1  3 15 30.0000000  0  8G10G25G29G26G12G04G05G02
 -20244639.77046 -15398147.81643  22799058.7584                   22799056.0354
   1371215.35247   2834762.83245  21687347.2424   21687346.2464   21709981.90246
                                  20904458.60544  23039033.9384   23039032.4454
  32359831.730 6                  24471772.813
 -19408601.77047 -13997071.34445  21189175.5004                   21189171.9024
 -37344716.42246 -27729650.64552  24654529.1094                   24654525.5394
 -17416187.60247 -13405963.51646  20299820.5164                   20299817.3484
 -36100529.69547 -25438064.82845  21366835.7664                   21366830.1454
 11  8  1  3 16  0.0000000  0  8G10G25G29G26G12G04G05G02
 -20238822.43746 -15393614.85243  22800166.1804                   22800162.7584
   1263744.08647   2751018.99245  21666896.7114   21666895.8834   21537854.14146
                                  20770333.10543  23006279.3674   23006277.4774
  32174213.258 5                  24436450.641
 -19449309.53547 -14028791.68745  21181428.8754                   21181425.0664
 -37354478.98446 -27737257.78942  24652671.4454                   24652669.5004
 -17501083.61347 -13472116.23446  20283665.1724                   20283662.0704
 -36153288.68447 -25479175.71545  21356795.5164                   21356790.4694
 11  8  1  3 16 30.0000000  0  8G10G25G29G26G12G04G05G02
 -20232721.62146 -15388860.94943  22801326.3364                   22801324.3674
   1156858.19147   2667731.30945  21646556.7034   21646556.0084   21365767.82846
                                  20636239.93843  22973532.5704   22973530.8794
  31988538.098 5                  24401117.438
 -19489511.40647 -14060117.83245  21173778.8754                   21173775.5864
 -37364292.73446 -27744904.89142  24650803.2194                   24650801.9804
 -17585409.19947 -13537824.47346  20267618.6094                   20267615.0474
 -36205931.18047 -25520195.84045  21346778.4844                   21346772.8484
 11  8  1  3 17  0.0000000  0  8G10G25G29G26G12G04G05G02
 -20226337.85946 -15383886.62143  22802542.2424                   22802539.5124
   1050560.22747   2584901.71945  21626328.9064   21626328.2814   21193726.40646
                                  20502181.74244  22940794.9224   22940792.2624
  31802811.508 5                  24365774.633
 -19529207.32447 -14091049.70345  21166224.6484                   21166221.6724
 -37374155.54746 -27752590.25442  24648926.6884                   24648925.6684
 -17669163.05947 -13603087.20746  20251680.8834                   20251677.4454
 -36258455.56647 -25561123.91845  21336783.7114                   21336778.1174
 11  8  1  3 17 30.0000000  0  8G10G25G29G26G12G04G05G02
 -20219675.68446 -15378695.30543  22803810.1804                   22803807.0354
    944848.82447   2502529.22345  21606212.6024   21606211.6524   21021729.74246
                                  20368158.40644  22908064.0944   22908062.0824
  31617035.020 5                  24330422.016
 -19568400.73847 -14121590.03545  21158767.1724                   21158763.3554
 -37384069.64846 -27760315.48042  24647039.7734                   24647038.8054
 -17752347.50047 -13667906.23046  20235851.0864                   20235847.7504
 -36310864.29747 -25601961.88745  21326810.2974                   21326805.2304
 11  8  1  3 18  0.0000000  0  7G10G25G29G26G12G05G02
 -20212738.66046 -15373289.83243  22805129.9144                   22805127.2974
    839723.93047   2420613.72745  21586208.3674   21586206.9884   20849779.10946
                                  20234170.96944  22875343.5864   22875340.9024
  31431210.969 5                  24295061.477
 -19607094.00847 -14151740.64145  21151403.6024                   21151400.5904
 -17834964.08247 -13732282.77746  20220129.3984                   20220126.3524
 -36363158.11347 -25642710.30945  21316858.6254                   21316853.6334
 11  8  1  3 18 30.0000000  0  7G10G25G29G26G12G05G02
 -20205526.68746 -15367670.10543  22806501.7344                   22806499.1954
    735188.83647   2339157.82845  21566315.6174   21566314.8984   20677878.99246
                                  20100222.87544  22842632.0164   22842629.2624
  31245345.754 5                  24259692.508
 -19645286.58247 -14181501.10245  21144135.8364                   21144132.7074
 -17917010.53547 -13796215.06246  20204516.7664                   20204513.3134
 -36415333.89147 -25683366.74645  21306930.5474                   21306925.0004
 11  8  1  3 19  0.0000000  0  7G10G25G29G26G12G05G02
 -20198038.91846 -15361835.43743  22807927.3674                   22807923.9104
    631247.25447   2258164.39845  21546536.0084   21546535.7584   20506034.10946
                                  19966317.80944  22809930.8204   22809927.9774
  31059445.879 5                  24224316.391
 -19682976.57847 -14210869.91845  21136963.7034                   21136960.0044
 -17998484.56247 -13859701.29346  20189012.6644                   20189009.1254
 -36467389.04347 -25723929.18745  21297024.2504                   21297019.1524
 11  8  1  3 19 30.0000000  0  7G10G25G29G26G12G05G02
 -20190278.20746 -15355788.14843  22809403.8914                   22809400.2894
    527899.48447   2177633.67245  21526869.9774   21526869.2074   20334246.40646
                                  19832457.32844  22777240.4454   22777238.7074
  30873514.71145  27063707.79352  24188934.9144                   24188933.6844
 -19720166.53547 -14239849.11345  21129886.7504                   21129883.5124
 -18079386.67647 -13922741.89146  20173617.9844                   20173614.8714
 -36519324.12547 -25764398.06645  21287141.8914                   21287136.0784
 11  8  1  3 20  0.0000000  0  7G10G25G29G26G12G05G02
 -20182249.58646 -15349532.08643  22810931.5784                   22810928.2194
    425143.74647   2097564.28145  21507315.9844   21507315.1884   20162515.09046
                                  19698640.78943  22744561.0704   22744558.3754
  30687552.97345  26918802.66442  24153548.0164                   24153546.5554
 -19756861.02747 -14268442.23045  21122903.6254                   21122900.3954
 -18159720.13347 -13985339.37946  20158330.9774                   20158327.3324
 -36571141.67647 -25804775.38745  21277280.7344                   21277276.5394
 11  8  1  3 20 30.0000000  0  7G10G25G29G26G12G05G02
 -20173955.26246 -15343069.00043  22812510.3364                   22812506.9884
    322980.97347   2017956.91845  21487874.8444   21487874.2304   19990842.52346
                                  19564870.00044  22711893.2974   22711890.4264
  30501564.98046  26773877.04743  24118155.1484                   24118154.4494
 -19793060.86747 -14296649.89545  21116015.7664                   21116011.7424
 -18239485.18747 -14047493.96546  20143152.0234                   20143148.9384
 -36622841.22747 -25845060.73845  21267443.1954                   21267437.6954
 11  8  1  3 21  0.0000000  0  7G10G25G29G26G12G05G02
 -18589978.72346 -14108801.55143  23113931.0234                   23113927.2424
   1796834.61347   3166414.29745  21768339.8834   21768339.2424   21394656.30146
                                  20658750.94944  22979029.1024   22979027.5554
  31890979.81646  27856538.10942  24382551.7274                   24382550.7504
 -18253346.92647 -13096872.79745  21409013.1094                   21409009.7734
 -16743260.16047 -12881604.30946  20427873.8594                   20427870.7114
 -35099001.54347 -24657653.18045  21557420.2814                   21557414.3134
 11  8  1  3 21 30.0000000  0  7G10G25G29G26G12G05G02
 -18581163.39846 -14101932.45343  23115608.6564                   23115604.6914
   1695856.64547   3087730.17645  21749125.1254   21749123.5554   21223105.13346
                                  20525074.77344  22946384.6334   22946382.0474
  31704946.87346  27711577.47242  24347151.0554                   24347150.0594
 -18288565.62147 -13124315.94545  21402311.7194                   21402307.9614
 -16821892.84447 -12942876.52346  20412910.4924                   20412907.4344
 -35150467.97347 -24697756.91045  21547626.4694                   21547621.1484
 11  8  1  3 22  0.0000000  0  7G10G25G29G26G12G05G02
 -18572094.85546 -14094866.05543  23117333.5474                   23117330.0904
   1595468.43447   3009505.60545  21730021.4224   21730020.6374   21051613.88346
                                  20391445.31344  22913751.0864   22913748.7774
  31518893.39846  27566600.85942  24311745.6804                   24311745.5664
 -18323299.81247 -13151381.54345  21395701.3674                   21395697.9104
 -16899963.64147 -13003710.89546  20398054.6174                   20398051.1094
 -35201821.27047 -24737772.44145  21537853.7424                   21537848.2854
 11  8  1  3 22 30.0000000  0  7G10G25G29G26G12G05G02
 -18562774.08246 -14087603.12943  23119107.1414                   23119104.3914
   1495671.80147   2931741.99245  21711031.1094   21711030.1884   20880185.98446
                                  20257865.20744  22881129.0784   22881126.5164
  31332824.30546  27421611.94942  24276338.8754                   24276338.2464
 -18357550.17647 -13178070.14145  21389183.7584                   21389180.7664
 -16977472.02047 -13064107.02346  20383304.6174                   20383301.4844
 -35253060.20747 -24777698.89145  21528103.3054                   21528098.4774
 11  8  1  3 23  0.0000000  0  7G10G25G29G26G12G05G02
 -18553206.14846 -14080147.57843  23120928.3134                   23120924.7734
   1396464.59447   2854437.68445  21692152.2034   21692151.4494   20708821.05146
                                  20124334.14544  22848519.9614   22848516.6684
  31146740.547 5                  24240927.211
 -18391321.12947 -13204385.17245  21382757.3364                   21382754.0314
 -17054421.23447 -13124067.44146  20368661.9844                   20368658.6804
 -35304187.30147 -24817538.18745  21518374.3134                   21518369.1844
 11  8  1  3 23 30.0000000  0  7G10G25G29G26G12G05G02
 -18543393.95346 -14072501.71543  23122794.9774                   23122791.4264
   1297846.85247   2777592.68845  21673385.5474   21673385.3714   20537520.61346
                                  19990853.32844  22815921.6174   22815919.3484
  30960645.293 5                  24205514.625
 -18424615.05547 -13230328.49245  21376422.0784                   21376418.5744
 -17130812.57047 -13183593.14546  20354125.2734                   20354121.8404
 -35355203.05547 -24857290.71945  21508666.2034                   21508661.2584
 11  8  1  3 24  0.0000000  0  7G10G25G29G26G12G05G02
 -18533339.69146 -14064667.25043  23124709.3594                   23124705.4454
   1199819.40247   2701207.67645  21654731.6884   21654731.5664   20366286.87146
                                  19857424.52344  22783337.6094   22783334.6214
  30774542.801 5                  24170100.563
 -18457433.37947 -13255901.21945  21370176.5394                   21370173.8794
 -17206646.23847 -13242684.30146  20339694.2504                   20339691.2624
 -35406106.93047 -24896956.06645  21498979.3054                   21498974.6564
 11  8  1  3 24 30.0000000  0  7G10G25G29G26G12G05G02
 -18523045.87946 -14056646.09043  23126666.7894                   23126664.2544
   1102382.58647   2625282.89545  21636190.1884   21636189.4694   20195122.26246
                                  19724049.57044  22750765.6804   22750763.6294
  30588436.609 5                  24134685.523
 -18489777.69947 -13281104.58645  21364021.5164                   21364018.5084
 -17281923.12147 -13301341.60246  20325369.9844                   20325366.1994
 -35456899.15247 -24936534.43045  21489314.2664                   21489309.1684
 11  8  1  3 25  0.0000000  0  7G10G25G29G26G12G05G02
 -18512516.50046 -14048441.39143  23128671.7424                   23128668.0394
   1005535.31347   2549817.48045  21617760.6804   21617759.7114   20024027.31346
                                  19590728.89544  22718207.0944   22718204.7034
  30402328.672 5                  24099270.586
 -18521651.82047 -13305941.56645  21357956.2424                   21357953.0394
 -17356645.20347 -13359566.60246  20311150.6414                   20311147.3364
 -35507581.23047 -24976026.95745  21479669.5314                   21479664.4804
 11  8  1  3 25 30.0000000  0  7G10G25G29G26G12G05G02
 -18501755.59446 -14040056.30543  23130719.0944                   23130716.4804
    909276.19947   2474810.37545  21599443.4774   21599442.6254   19853002.10246
                                  19457462.56644  22685662.1724   22685659.6294
  30216220.98045  27211835.08652  24063855.0004                   24063855.4844
 -18553059.36747 -13330415.00045  21351980.0634                   21351976.2384
 -17430815.33647 -13417361.48846  20297036.2584                   20297032.9104
 -35558154.41847 -25015434.62545  21470046.0394                   21470040.8014
 11  8  1  3 26  0.0000000  0  7G10G25G29G26G12G05G02
 -18490762.39546 -14031490.16843  23132811.5554                   23132808.1484
    813608.69147   2400264.28945  21581238.6644   21581237.9454   19682051.94946
                                  19324254.69944  22653131.8594   22653128.9304
  30030120.48446  27066821.81342  24028441.9384                   24028441.1604
 -18583998.88747 -13354523.71145  21346092.3674                   21346089.0394
 -17504431.11747 -13474724.42646  20283027.9304                   20283024.2154
 -35608615.73047 -25054755.13345  21460443.2974                   21460438.1414
 11  8  1  3 26 30.0000000  0  7G10G25G29G26G12G05G02
 -18479543.35546 -14022748.05943  23134946.4224                   23134942.8714
    718529.25047   2326176.41445  21563145.4064   21563144.4024   19511175.33246
                                  19191104.15244  22620614.5004   22620611.7154
  29844027.31646  26921814.25043  23993028.5164                   23993028.1604
 -18614476.00447 -13378272.11345  21340292.4384                   21340289.0274
 -17577497.10247 -13531658.94946  20269124.3524                   20269120.5664
 -35658969.00847 -25093991.44545  21450861.9534                   21450856.0274
 11  8  1  3 27  0.0000000  0  7G10G25G29G26G12G05G02
 -18468096.02046 -14013828.06243  23137124.5704                   23137121.0704
    624042.89547   2252550.68845  21545165.6094   21545164.5354   19340378.99246
                                  19058016.17244  22588112.7664   22588110.4414
  29657949.17646  26776818.42643  23957619.6334                   23957618.1844
 -18644488.31247 -13401658.33645  21334582.0634                   21334578.2114
 -17650009.44147 -13588162.06246  20255325.1804                   20255321.9694
 -35709209.51647 -25133139.89145  21441301.3444                   21441296.2504
 11  8  1  3 27 30.0000000  0  7G10G25G29G26G12G05G02
 -18456428.11346 -14004736.23043  23139344.3134                   23139340.9064
    530144.64147   2179383.21545  21527296.9144   21527296.5004   19169659.92246
                                  18924988.37544  22555625.7584   22555623.1644
  29471885.10546  26631833.50443  23922211.7814                   23922211.1524
 -18674042.80547 -13424687.83245  21328957.3754                   21328953.9344
 -17721974.33647 -13644238.58246  20241630.4924                   20241626.8134
 -35759342.21547 -25172204.33245  21431761.8054                   21431755.8834
 11  8  1  3 28  0.0000000  0  7G10G25G29G26G12G05G02
 -18444541.22346 -13995473.71143  23141606.8914                   23141602.8444
    436835.59047   2106674.88745  21509541.1334   21509540.0274   18999020.94146
                                  18792022.99244  22523154.4844   22523151.9454
  29285839.66046  26486863.12543  23886809.7664                   23886807.3914
 -18703140.55947 -13447361.40645  21323419.9774                   21323416.7274
 -17793391.52047 -13699888.34046  20228040.6804                   20228037.0864
 -35809366.23847 -25211184.07045  21422242.0704                   21422236.8794
 11  8  1  3 28 30.0000000  0  7G10G25G29G26G12G05G02
 -18432438.28946 -13986042.81243  23143909.5474                   23143906.2934
    344115.30147   2034425.31345  21491896.6724   21491896.1214   18828463.65646
                                  18659121.25844  22490698.2974   22490696.0354
  29099815.77046  26341909.53543  23851410.6884                   23851407.2974
 -18731784.40247 -13469681.28145  21317969.3594                   21317966.1604
 -17864262.85547 -13755112.73846  20214554.3284                   20214550.6134
 -35859282.05547 -25250079.51645  21412743.0004                   21412737.9774
 11  8  1  3 29  0.0000000  0  7G10G25G29G26G12G05G02
 -18420119.16446 -13976443.51643  23146254.2424                   23146251.0634
    251986.41447   1962636.57445  21474365.5554   21474364.5394   18657992.89146
                                  18526286.95744  22458258.9224   22458256.8244
  28913819.82846  26196977.69143  23816015.7504                   23816014.3014
 -18759973.66847 -13491646.95745  21312605.7114                   21312602.0434
 -17934586.53547 -13809910.41046  20201172.5004                   20201168.5274
 -35909087.13747 -25288888.68045  21403265.5394                   21403260.4454
 11  8  1  3 29 30.0000000  0  7G10G25G29G26G12G05G02
 -18407591.70746 -13966681.87143  23148637.9224                   23148634.9654
    160443.81347   1891304.68445  21456945.4224   21456944.5784   18487605.02346
                                  18393517.24244  22425835.6254   22425832.9924
  28727850.20745  26052066.40243  23780626.8914                   23780625.9264
 -18787715.84047 -13513264.23045  21307325.8834                   21307322.2114
 -18004368.81647 -13864286.19946  20187892.6804                   20187889.4964
 -35958786.57847 -25327615.50045  21393808.0394                   21393802.6644
 11  8  1  3 30  0.0000000  0  7G10G25G29G26G12G05G02
 -16819437.92246 -12729159.45343  23450853.6954                   23450850.4694
   1644911.50447   3048032.75845  21739429.9694   21739429.5084   19892729.28947
                                  19488419.32444  22693221.8754   22693218.7504
  30117337.68045  27134783.95742  24045037.9384                   24045036.0704
 -17239591.07447 -12306933.25845  21601924.3444                   21601921.0904
 -16498187.64547 -12690638.52346  20474509.0474                   20474506.1844
 -34432957.92647 -24138658.10945  21684163.5704                   21684158.4264
 11  8  1  3 30 30.0000000  0  7G10G25G29G26G12G05G02
 -16806498.13346 -12719076.50443  23453316.0634                   23453312.4534
   1554544.62947   2977617.02745  21722233.7114   21722232.3674   19722517.54746
                                  19355786.85244  22660831.2734   22660828.1644
  29931434.80945  26989924.69942  24009661.7814                   24009660.2154
 -17266442.19947 -12327856.23045  21596815.1644                   21596811.6914
 -16566887.66447 -12744171.00046  20461436.6094                   20461432.8714
 -34482443.13747 -24177218.02345  21674746.7894                   21674741.5554
 11  8  1  3 31  0.0000000  0  7G10G25G29G26G12G05G02
 -16793356.89846 -12708836.57443  23455816.5864                   23455814.1764
   1464764.78147   2907658.71145  21705149.0004   21705148.1914   19552396.15647
                                  19223224.76244  22628458.3284   22628455.6054
  29745570.04745  26845095.04742  23974291.4224                   23974292.0634
 -17292851.91847 -12348435.23845  21591789.8834                   21591786.2194
 -16635048.77347 -12797283.54346  20448466.1094                   20448462.0904
 -34531821.99647 -24215695.05145  21665350.5634                   21665345.1804
 11  8  1  3 31 30.0000000  0  7G10G25G29G26G12G05G02
 -16780017.66446 -12698442.40243  23458354.7344                   23458352.5354
   1375570.70747   2838156.84445  21688176.2814   21688175.1094   19382365.84446
                                  19090733.65644  22596102.6644   22596100.1024
  29559745.73045  26700296.93442  23938928.6884                   23938930.6174
 -17318823.24247 -12368672.64545  21586847.1724                   21586843.9104
 -16702673.30947 -12849977.98446  20435597.2584                   20435593.6684
 -34581095.52047 -24254089.99645  21655974.1564                   21655968.9494
 11  8  1  3 32  0.0000000  0  7G10G25G29G26G12G05G02
 -16766481.43046 -12687894.70743  23460930.4064                   23460927.9304
   1286964.03547   2769112.70745  21671314.9924   21671314.1294   19212430.64147
                                  18958316.65244  22563764.4694   22563762.3714
  29373967.64845  26555534.91042  23903578.8984                   23903578.6454
 -17344356.98447 -12388569.06645  21581988.3284                   21581984.7384
 -16769760.63347 -12902253.80946  20422830.9454                   20422827.7974
 -34630261.92247 -24292401.47345  21646618.4924                   21646612.7894
 11  8  1  3 32 30.0000000  0  7G10G25G29G26G12G05G02
 -16752750.81646 -12677195.52343  23463543.5704                   23463541.1844
   1198944.18447   2700525.80545  21654565.7814   21654563.8404   19042592.15247
                                  18825975.01244  22531445.6414   22531442.7934
  29188238.73055  26410811.16852  23868235.4224                   23868235.7034
 -17369455.77747 -12408126.56645  21577212.4384                   21577208.6884
 -16836312.52747 -12954112.41846  20410166.6644                   20410163.0744
 -34679321.58647 -24330629.79345  21637282.5084                   21637276.9694
 11  8  1  3 33  0.0000000  0  7G10G25G29G26G12G05G02
 -16738830.65246 -12666348.69143  23466192.2344                   23466190.0864
   1111508.65647   2632394.23445  21637926.5314   21637926.4804   18872850.36346
                                  18693708.73444  22499145.1094   22499141.9454
  29002560.62546  26266126.96142  23832902.3834                   23832901.5434
 -17394124.40647 -12427348.89845  21572517.9534                   21572514.4454
 -16902332.35247 -13005556.43446  20397603.4304                   20397599.8874
 -34728276.94147 -24368776.81645  21627966.4454                   21627961.2234
 11  8  1  3 33 30.0000000  0  7G10G25G29G26G12G05G02
 -16724723.22746 -12655355.88343  23468876.7584                   23468874.6644
   1024657.39847   2564717.93445  21621399.5394   21621398.4384   18703207.33247
                                  18561519.40244  22466862.4224   22466860.5434
  28816936.94546  26121485.17643  23797579.4924                   23797577.7624
 -17418364.64547 -12446237.41845  21567905.0554                   21567901.8914
 -16967821.56247 -13056586.97746  20385141.3054                   20385137.5084
 -34777127.73447 -24406842.36345  21618670.4144                   21618665.3834
 11  8  1  3 34  0.0000000  0  7G10G25G29G26G12G05G02
 -16710431.70746 -12644219.69542  23471597.1804                   23471594.5274
    938389.94147   2497496.53545  21604983.5004   21604982.6724   18533664.87547
                                  18429408.44144  22434600.1334   22434597.1764
  28631371.17646  25976888.56643  23762267.5554                   23762265.1764
 -17442179.30547 -12464794.27745  21563372.7584                   21563369.7504
 -17032781.22747 -13107204.90246  20372780.0784                   20372775.8674
 -34825874.68447 -24444827.01645  21609394.0554                   21609388.6684
 11  8  1  3 34 30.0000000  0  7G10G25G29G26G12G05G02
 -16695957.85946 -12632941.39543  23474350.4614                   23474348.4264
    852706.72347   2430730.40245  21588678.0164   21588677.7584   18364225.77347
                                  18297377.99244  22402357.3914   22402354.2464
  28445867.77046  25832340.48443  23726967.9224                   23726965.5474
 -17465569.80547 -12483020.65245  21558922.1484                   21558918.7704
 -17097211.96147 -13157410.64846  20360519.3834                   20360515.4494
 -34874516.31247 -24482729.57445  21600138.1884                   21600132.5474
 11  8  1  3 35  0.0000000  0  7G10G25G29G26G12G05G02
 -16681303.97746 -12621522.79343  23477139.9224                   23477136.9844
    767607.31647   2364419.17245  21572484.5084   21572484.0784   18194892.18047
                                  18165429.75844  22370133.9064   22370130.9964
  28260430.10946  25687843.69143  23691679.6414                   23691677.9224
 -17488538.62147 -12500918.45745  21554551.1414                   21554548.1024
 -17161115.77347 -13207205.82046  20348358.4224                   20348355.1684
 -34923052.82847 -24520550.23445  21590901.8754                   21590896.6724
 11  8  1  3 35 30.0000000  0  7G10G25G29G26G12G05G02
 -16666473.09046 -12609966.27743  23479962.1094                   23479959.0044
    683090.78547   2298562.13345  21556401.9614   21556400.5824   18025665.62147
                                  18033564.96944  22337931.0944   22337928.6024
  28075061.48846  25543400.64143  23656405.1724                   23656404.3094
 -17511088.78947 -12518490.01645  21550259.8674                   21550256.6994
 -17224494.04347 -13256591.48046  20336297.9614                   20336294.6054
 -34971484.95747 -24558289.56645  21581685.3984                   21581680.2544
 11  8  1  3 36  0.0000000  0  7G10G25G29G26G12G05G02
 -16651469.60246 -12598275.19142  23482817.8984                   23482813.7074
    599155.02047   2233157.66045  21540429.1564   21540428.5554   17856546.31647
                                  17901783.72744  22305748.8914   22305745.6884
  27889763.75846  25399012.84843  23621144.5944                   23621142.5274
 -17533224.36747 -12535738.52045  21546048.1024                   21546044.3284
 -17287349.86347 -13305570.03946  20324337.2424                   20324333.4264
 -35019814.33647 -24595948.81645  21572489.0234                   21572483.2974
 11  8  1  3 36 30.0000000  0  7G10G25G29G26G12G05G02
 -16636293.02346 -12586449.30943  23485704.7664                   23485701.6564
    515802.76247   2168207.85945  21524567.8444   21524566.9884   17687539.70746
                                  17770090.29344  22273587.5634   22273585.2624
  27704543.71946  25254685.64143  23585898.1804                   23585896.5744
 -17554944.75047 -12552663.49645  21541914.6174                   21541911.5124
 -17349681.61747 -13354140.23046  20312475.4454                   20312472.1684
 -35068037.66447 -24633525.43445  21563312.2734                   21563306.8554
 11  8  1  3 37  0.0000000  0  7G10G25G29G26G12G05G02
 -16620950.47346 -12574494.09443  23488624.6254                   23488621.2974
    433028.95347   2103708.79745  21508816.4774   21508815.6764   17518643.39546
                                  17638482.83244  22241447.0784   22241445.1954
  27519400.43845  25110418.21143  23550666.0704                   23550664.1804
 -17576256.78147 -12569270.29745  21537859.5394                   21537855.8874
 -17411495.48847 -13402306.87546  20300712.8054                   20300709.4184
 -35116160.24647 -24671023.54345  21554154.9694                   21554149.6954
